Time,TemperatureF,DewpointF,PressureIn,WindDirection,WindDirectionDegrees,WindSpeedMPH,WindSpeedGustMPH,Humidity,HourlyPrecipIn,Conditions,Clouds,dailyrainin,SoftwareType,DateUTC
2013-05-12 00:00:00,67.6,55.4,30.16,North,360,0.0,0.0,65,0.00,,---,0.00,VWS V14.01,2013-05-12 05:00:00,
2013-05-12 00:01:00,67.6,55.8,30.16,North,360,0.0,0.0,66,0.00,,---,0.00,VWS V14.01,2013-05-12 05:01:00,
2013-05-12 00:02:00,67.6,55.4,30.16,North,360,0.0,0.0,65,0.00,,---,0.00,VWS V14.01,2013-05-12 05:02:00,
2013-05-12 00:03:00,67.4,55.7,30.16,North,360,0.0,0.0,66,0.00,,---,0.00,VWS V14.01,2013-05-12 05:03:00,
2013-05-12 00:04:00,67.5,55.8,30.16,North,360,0.0,0.0,66,0.00,,---,0.00,VWS V14.01,2013-05-12 05:04:00,
2013-05-12 00:05:00,67.5,55.8,30.15,North,360,0.0,0.0,66,0.00,,---,0.00,VWS V14.01,2013-05-12 05:05:00,
2013-05-12 00:06:00,67.4,55.7,30.16,North,360,0.0,0.0,66,0.00,,---,0.00,VWS V14.01,2013-05-12 05:06:00,
2013-05-12 00:07:00,67.4,55.7,30.16,North,360,0.0,0.0,66,0.00,,---,0.00,VWS V14.01,2013-05-12 05:07:00,
2013-05-12 00:08:00,67.3,55.6,30.16,North,360,0.0,0.0,66,0.00,,---,0.00,VWS V14.01,2013-05-12 05:08:00,
2013-05-12 00:09:00,67.4,55.7,30.16,North,360,0.0,0.0,66,0.00,,---,0.00,VWS V14.01,2013-05-12 05:09:00,
2013-05-12 00:10:00,67.4,55.7,30.16,North,360,0.0,0.0,66,0.00,,---,0.00,VWS V14.01,2013-05-12 05:10:00,
2013-05-12 00:11:00,67.3,55.6,30.16,North,360,0.0,0.0,66,0.00,,---,0.00,VWS V14.01,2013-05-12 05:11:00,
2013-05-12 00:12:00,67.3,55.6,30.15,North,360,0.0,0.0,66,0.00,,---,0.00,VWS V14.01,2013-05-12 05:12:00,
2013-05-12 00:13:00,67.2,55.9,30.16,North,360,0.0,0.0,67,0.00,,---,0.00,VWS V14.01,2013-05-12 05:13:00,
2013-05-12 00:14:00,67.3,55.6,30.16,North,360,0.0,0.0,66,0.00,,---,0.00,VWS V14.01,2013-05-12 05:14:00,
2013-05-12 00:15:00,67.3,55.6,30.16,North,360,0.0,0.0,66,0.00,,---,0.00,VWS V14.01,2013-05-12 05:15:00,
2013-05-12 00:16:00,67.2,55.5,30.16,North,360,0.0,0.0,66,0.00,,---,0.00,VWS V14.01,2013-05-12 05:16:00,
2013-05-12 00:17:00,67.2,55.5,30.16,North,360,0.0,0.0,66,0.00,,---,0.00,VWS V14.01,2013-05-12 05:17:00,
2013-05-12 00:18:00,67.1,55.8,30.16,North,360,0.0,0.0,67,0.00,,---,0.00,VWS V14.01,2013-05-12 05:18:00,
2013-05-12 00:19:00,67.1,55.8,30.16,North,360,0.0,0.0,67,0.00,,---,0.00,VWS V14.01,2013-05-12 05:19:00,
2013-05-12 00:20:00,67.1,55.8,30.16,North,360,0.0,0.0,67,0.00,,---,0.00,VWS V14.01,2013-05-12 05:20:00,
2013-05-12 00:21:00,67.1,55.8,30.16,North,360,0.0,0.0,67,0.00,,---,0.00,VWS V14.01,2013-05-12 05:21:00,
2013-05-12 00:22:00,67.1,55.8,30.16,North,360,0.0,0.0,67,0.00,,---,0.00,VWS V14.01,2013-05-12 05:22:00,
2013-05-12 00:23:00,67.0,55.7,30.16,North,360,0.0,0.0,67,0.00,,---,0.00,VWS V14.01,2013-05-12 05:23:00,
2013-05-12 00:24:00,67.0,55.7,30.16,North,360,0.0,0.0,67,0.00,,---,0.00,VWS V14.01,2013-05-12 05:24:00,
2013-05-12 00:25:00,67.0,55.7,30.16,North,360,0.0,0.0,67,0.00,,---,0.00,VWS V14.01,2013-05-12 05:25:00,
2013-05-12 00:26:00,67.0,55.7,30.16,North,360,0.0,0.0,67,0.00,,---,0.00,VWS V14.01,2013-05-12 05:26:00,
2013-05-12 00:27:00,67.0,55.7,30.15,North,360,0.0,0.0,67,0.00,,---,0.00,VWS V14.01,2013-05-12 05:27:00,
2013-05-12 00:28:00,66.8,55.5,30.16,North,360,0.0,0.0,67,0.00,,---,0.00,VWS V14.01,2013-05-12 05:28:00,
2013-05-12 00:29:00,66.9,55.6,30.16,North,360,0.0,0.0,67,0.00,,---,0.00,VWS V14.01,2013-05-12 05:29:00,
2013-05-12 00:30:00,66.9,55.6,30.16,North,360,0.0,0.0,67,0.00,,---,0.00,VWS V14.01,2013-05-12 05:30:00,
2013-05-12 00:31:00,66.9,55.6,30.16,North,360,0.0,0.0,67,0.00,,---,0.00,VWS V14.01,2013-05-12 05:31:00,
2013-05-12 00:32:00,66.8,55.5,30.16,North,360,0.0,0.0,67,0.00,,---,0.00,VWS V14.01,2013-05-12 05:32:00,
2013-05-12 00:33:00,66.7,55.4,30.16,North,360,0.0,0.0,67,0.00,,---,0.00,VWS V14.01,2013-05-12 05:33:00,
2013-05-12 00:34:00,66.8,55.5,30.16,North,360,0.0,0.0,67,0.00,,---,0.00,VWS V14.01,2013-05-12 05:34:00,
2013-05-12 00:35:00,66.8,55.5,30.16,North,360,0.0,0.0,67,0.00,,---,0.00,VWS V14.01,2013-05-12 05:35:00,
2013-05-12 00:36:00,66.7,55.4,30.16,North,360,0.0,0.0,67,0.00,,---,0.00,VWS V14.01,2013-05-12 05:36:00,
2013-05-12 00:37:00,66.7,55.4,30.16,North,360,0.0,0.0,67,0.00,,---,0.00,VWS V14.01,2013-05-12 05:37:00,
2013-05-12 00:38:00,66.6,55.7,30.16,North,360,0.0,0.0,68,0.00,,---,0.00,VWS V14.01,2013-05-12 05:38:00,
2013-05-12 00:39:00,66.7,55.4,30.16,North,360,0.0,0.0,67,0.00,,---,0.00,VWS V14.01,2013-05-12 05:39:00,
2013-05-12 00:40:00,66.6,55.7,30.16,North,360,0.0,0.0,68,0.00,,---,0.00,VWS V14.01,2013-05-12 05:40:00,
2013-05-12 00:41:00,66.6,55.7,30.16,North,360,0.0,0.0,68,0.00,,---,0.00,VWS V14.01,2013-05-12 05:41:00,
2013-05-12 00:42:00,66.6,55.7,30.16,North,360,0.0,0.0,68,0.00,,---,0.00,VWS V14.01,2013-05-12 05:42:00,
2013-05-12 00:43:00,66.4,55.5,30.16,North,360,0.0,0.0,68,0.00,,---,0.00,VWS V14.01,2013-05-12 05:43:00,
2013-05-12 00:44:00,66.6,55.7,30.16,North,360,0.0,0.0,68,0.00,,---,0.00,VWS V14.01,2013-05-12 05:44:00,
2013-05-12 00:45:00,66.5,55.6,30.16,North,360,0.0,0.0,68,0.00,,---,0.00,VWS V14.01,2013-05-12 05:45:00,
2013-05-12 00:46:00,66.5,55.6,30.16,North,360,0.0,0.0,68,0.00,,---,0.00,VWS V14.01,2013-05-12 05:46:00,
2013-05-12 00:47:00,66.5,55.6,30.16,North,360,0.0,0.0,68,0.00,,---,0.00,VWS V14.01,2013-05-12 05:47:00,
2013-05-12 00:48:00,66.3,55.4,30.16,North,360,0.0,0.0,68,0.00,,---,0.00,VWS V14.01,2013-05-12 05:48:00,
2013-05-12 00:49:00,66.4,55.5,30.16,North,360,0.0,0.0,68,0.00,,---,0.00,VWS V14.01,2013-05-12 05:49:00,
2013-05-12 00:50:00,66.4,55.5,30.16,North,360,0.0,0.0,68,0.00,,---,0.00,VWS V14.01,2013-05-12 05:50:00,
2013-05-12 00:51:00,66.4,55.5,30.16,North,360,0.0,0.0,68,0.00,,---,0.00,VWS V14.01,2013-05-12 05:51:00,
2013-05-12 00:52:00,66.3,55.4,30.16,North,360,0.0,0.0,68,0.00,,---,0.00,VWS V14.01,2013-05-12 05:52:00,
2013-05-12 00:53:00,66.2,55.3,30.16,North,360,0.0,0.0,68,0.00,,---,0.00,VWS V14.01,2013-05-12 05:53:00,
2013-05-12 00:54:00,66.3,55.4,30.16,North,360,0.0,0.0,68,0.00,,---,0.00,VWS V14.01,2013-05-12 05:54:00,
2013-05-12 00:55:00,66.3,55.4,30.16,North,360,0.0,0.0,68,0.00,,---,0.00,VWS V14.01,2013-05-12 05:55:00,
2013-05-12 00:56:00,66.2,55.3,30.16,North,360,0.0,0.0,68,0.00,,---,0.00,VWS V14.01,2013-05-12 05:56:00,
2013-05-12 00:57:00,66.2,55.3,30.16,North,360,0.0,0.0,68,0.00,,---,0.00,VWS V14.01,2013-05-12 05:57:00,
2013-05-12 00:58:00,66.1,55.2,30.16,North,360,0.0,0.0,68,0.00,,---,0.00,VWS V14.01,2013-05-12 05:58:00,
2013-05-12 00:59:00,66.2,55.3,30.16,North,360,0.0,0.0,68,0.00,,---,0.00,VWS V14.01,2013-05-12 05:59:00,
2013-05-12 01:00:00,66.2,55.3,30.16,North,360,0.0,0.0,68,0.00,,---,0.00,VWS V14.01,2013-05-12 06:00:00,
2013-05-12 01:01:00,66.2,55.7,30.16,North,360,0.0,0.0,69,0.00,,---,0.00,VWS V14.01,2013-05-12 06:01:00,
2013-05-12 01:02:00,66.1,55.7,30.16,North,360,0.0,0.0,69,0.00,,---,0.00,VWS V14.01,2013-05-12 06:02:00,
2013-05-12 01:03:00,66.0,55.5,30.16,North,360,0.0,0.0,69,0.00,,---,0.00,VWS V14.01,2013-05-12 06:03:00,
2013-05-12 01:04:00,66.1,55.7,30.16,North,360,0.0,0.0,69,0.00,,---,0.00,VWS V14.01,2013-05-12 06:04:00,
2013-05-12 01:05:00,66.1,55.7,30.16,North,360,0.0,0.0,69,0.00,,---,0.00,VWS V14.01,2013-05-12 06:05:00,
2013-05-12 01:06:00,66.1,55.7,30.16,North,360,0.0,0.0,69,0.00,,---,0.00,VWS V14.01,2013-05-12 06:06:00,
2013-05-12 01:07:00,66.0,55.5,30.16,North,360,0.0,0.0,69,0.00,,---,0.00,VWS V14.01,2013-05-12 06:07:00,
2013-05-12 01:08:00,65.9,55.5,30.16,North,360,0.0,0.0,69,0.00,,---,0.00,VWS V14.01,2013-05-12 06:08:00,
2013-05-12 01:09:00,66.0,55.5,30.16,North,360,0.0,0.0,69,0.00,,---,0.00,VWS V14.01,2013-05-12 06:09:00,
2013-05-12 01:10:00,66.0,55.5,30.16,North,360,0.0,0.0,69,0.00,,---,0.00,VWS V14.01,2013-05-12 06:10:00,
2013-05-12 01:11:00,65.9,55.5,30.16,North,360,0.0,0.0,69,0.00,,---,0.00,VWS V14.01,2013-05-12 06:11:00,
2013-05-12 01:12:00,65.9,55.5,30.16,North,360,0.0,0.0,69,0.00,,---,0.00,VWS V14.01,2013-05-12 06:12:00,
2013-05-12 01:13:00,65.8,55.4,30.16,North,360,0.0,0.0,69,0.00,,---,0.00,VWS V14.01,2013-05-12 06:13:00,
2013-05-12 01:14:00,65.9,55.5,30.16,North,360,0.0,0.0,69,0.00,,---,0.00,VWS V14.01,2013-05-12 06:14:00,
2013-05-12 01:15:00,65.8,55.4,30.16,North,360,0.0,0.0,69,0.00,,---,0.00,VWS V14.01,2013-05-12 06:15:00,
2013-05-12 01:16:00,65.8,55.4,30.16,North,360,0.0,0.0,69,0.00,,---,0.00,VWS V14.01,2013-05-12 06:16:00,
2013-05-12 01:17:00,65.8,55.4,30.16,North,360,0.0,0.0,69,0.00,,---,0.00,VWS V14.01,2013-05-12 06:17:00,
2013-05-12 01:18:00,65.7,55.7,30.16,North,360,0.0,0.0,70,0.00,,---,0.00,VWS V14.01,2013-05-12 06:18:00,
2013-05-12 01:19:00,65.8,55.8,30.16,North,360,0.0,0.0,70,0.00,,---,0.00,VWS V14.01,2013-05-12 06:19:00,
2013-05-12 01:20:00,65.8,55.8,30.16,North,360,0.0,0.0,70,0.00,,---,0.00,VWS V14.01,2013-05-12 06:20:00,
2013-05-12 01:21:00,65.8,55.8,30.16,North,360,0.0,0.0,70,0.00,,---,0.00,VWS V14.01,2013-05-12 06:21:00,
2013-05-12 01:22:00,65.7,55.7,30.16,North,360,0.0,0.0,70,0.00,,---,0.00,VWS V14.01,2013-05-12 06:22:00,
2013-05-12 01:23:00,65.7,55.7,30.16,North,360,0.0,0.0,70,0.00,,---,0.00,VWS V14.01,2013-05-12 06:23:00,
2013-05-12 01:24:00,65.7,55.7,30.16,North,360,0.0,0.0,70,0.00,,---,0.00,VWS V14.01,2013-05-12 06:24:00,
2013-05-12 01:25:00,65.7,55.7,30.16,North,360,0.0,0.0,70,0.00,,---,0.00,VWS V14.01,2013-05-12 06:25:00,
2013-05-12 01:26:00,65.7,55.7,30.16,North,360,0.0,0.0,70,0.00,,---,0.00,VWS V14.01,2013-05-12 06:26:00,
2013-05-12 01:27:00,65.7,55.7,30.16,North,360,0.0,0.0,70,0.00,,---,0.00,VWS V14.01,2013-05-12 06:27:00,
2013-05-12 01:28:00,65.6,56.0,30.16,North,360,0.0,0.0,71,0.00,,---,0.00,VWS V14.01,2013-05-12 06:28:00,
2013-05-12 01:29:00,65.7,55.7,30.16,North,360,0.0,0.0,70,0.00,,---,0.00,VWS V14.01,2013-05-12 06:29:00,
2013-05-12 01:30:00,65.7,55.7,30.16,North,360,0.0,0.0,70,0.00,,---,0.00,VWS V14.01,2013-05-12 06:30:00,
2013-05-12 01:31:00,65.7,55.7,30.16,North,360,0.0,0.0,70,0.00,,---,0.00,VWS V14.01,2013-05-12 06:31:00,
2013-05-12 01:32:00,65.6,56.0,30.16,North,360,0.0,0.0,71,0.00,,---,0.00,VWS V14.01,2013-05-12 06:32:00,
2013-05-12 01:33:00,65.6,56.0,30.16,North,360,0.0,0.0,71,0.00,,---,0.00,VWS V14.01,2013-05-12 06:33:00,
2013-05-12 01:34:00,65.6,56.0,30.16,North,360,0.0,0.0,71,0.00,,---,0.00,VWS V14.01,2013-05-12 06:34:00,
2013-05-12 01:35:00,65.6,56.0,30.16,North,360,0.0,0.0,71,0.00,,---,0.00,VWS V14.01,2013-05-12 06:35:00,
2013-05-12 01:36:00,65.6,56.0,30.16,North,360,0.0,0.0,71,0.00,,---,0.00,VWS V14.01,2013-05-12 06:36:00,
2013-05-12 01:37:00,65.6,56.0,30.16,North,360,0.0,0.0,71,0.00,,---,0.00,VWS V14.01,2013-05-12 06:37:00,
2013-05-12 01:38:00,65.4,55.8,30.16,North,360,0.0,0.0,71,0.00,,---,0.00,VWS V14.01,2013-05-12 06:38:00,
2013-05-12 01:39:00,65.5,55.9,30.16,North,360,0.0,0.0,71,0.00,,---,0.00,VWS V14.01,2013-05-12 06:39:00,
2013-05-12 01:40:00,65.5,55.9,30.16,North,360,0.0,0.0,71,0.00,,---,0.00,VWS V14.01,2013-05-12 06:40:00,
2013-05-12 01:41:00,65.5,55.9,30.16,North,360,0.0,0.0,71,0.00,,---,0.00,VWS V14.01,2013-05-12 06:41:00,
2013-05-12 01:42:00,65.5,55.9,30.16,North,360,0.0,0.0,71,0.00,,---,0.00,VWS V14.01,2013-05-12 06:42:00,
2013-05-12 01:43:00,65.3,55.7,30.16,North,360,0.0,0.0,71,0.00,,---,0.00,VWS V14.01,2013-05-12 06:43:00,
2013-05-12 01:44:00,65.4,55.8,30.16,North,360,0.0,0.0,71,0.00,,---,0.00,VWS V14.01,2013-05-12 06:44:00,
2013-05-12 01:45:00,65.4,55.8,30.16,North,360,0.0,0.0,71,0.00,,---,0.00,VWS V14.01,2013-05-12 06:45:00,
2013-05-12 01:46:00,65.4,55.8,30.16,North,360,0.0,0.0,71,0.00,,---,0.00,VWS V14.01,2013-05-12 06:46:00,
2013-05-12 01:47:00,65.3,55.7,30.16,North,360,0.0,0.0,71,0.00,,---,0.00,VWS V14.01,2013-05-12 06:47:00,
2013-05-12 01:48:00,65.2,55.6,30.16,North,360,0.0,0.0,71,0.00,,---,0.00,VWS V14.01,2013-05-12 06:48:00,
2013-05-12 01:49:00,65.3,55.7,30.16,North,360,0.0,0.0,71,0.00,,---,0.00,VWS V14.01,2013-05-12 06:49:00,
2013-05-12 01:50:00,65.3,55.7,30.16,North,360,0.0,0.0,71,0.00,,---,0.00,VWS V14.01,2013-05-12 06:50:00,
2013-05-12 01:51:00,65.3,55.7,30.16,North,360,0.0,0.0,71,0.00,,---,0.00,VWS V14.01,2013-05-12 06:51:00,
2013-05-12 01:52:00,65.2,55.6,30.16,North,360,0.0,0.0,71,0.00,,---,0.00,VWS V14.01,2013-05-12 06:52:00,
2013-05-12 01:53:00,65.0,55.4,30.16,North,360,0.0,0.0,71,0.00,,---,0.00,VWS V14.01,2013-05-12 06:53:00,
2013-05-12 01:54:00,65.2,55.6,30.16,North,360,0.0,0.0,71,0.00,,---,0.00,VWS V14.01,2013-05-12 06:54:00,
2013-05-12 01:55:00,65.1,55.9,30.16,North,360,0.0,0.0,72,0.00,,---,0.00,VWS V14.01,2013-05-12 06:55:00,
2013-05-12 01:56:00,65.1,55.9,30.16,North,360,0.0,0.0,72,0.00,,---,0.00,VWS V14.01,2013-05-12 06:56:00,
2013-05-12 01:57:00,65.1,55.9,30.16,North,360,0.0,0.0,72,0.00,,---,0.00,VWS V14.01,2013-05-12 06:57:00,
2013-05-12 01:58:00,64.8,55.2,30.16,North,360,0.0,0.0,71,0.00,,---,0.00,VWS V14.01,2013-05-12 06:58:00,
2013-05-12 01:59:00,65.0,55.8,30.16,North,360,0.0,0.0,72,0.00,,---,0.00,VWS V14.01,2013-05-12 06:59:00,
2013-05-12 02:00:00,65.0,55.8,30.16,North,360,0.0,0.0,72,0.00,,---,0.00,VWS V14.01,2013-05-12 07:00:00,
2013-05-12 02:01:00,64.9,55.7,30.16,North,360,0.0,0.0,72,0.00,,---,0.00,VWS V14.01,2013-05-12 07:01:00,
2013-05-12 02:02:00,64.9,55.3,30.16,North,360,0.0,0.0,71,0.00,,---,0.00,VWS V14.01,2013-05-12 07:02:00,
2013-05-12 02:03:00,64.7,55.1,30.16,North,360,0.0,0.0,71,0.00,,---,0.00,VWS V14.01,2013-05-12 07:03:00,
2013-05-12 02:04:00,64.8,55.2,30.16,North,360,0.0,0.0,71,0.00,,---,0.00,VWS V14.01,2013-05-12 07:04:00,
2013-05-12 02:05:00,64.8,55.2,30.16,North,360,0.0,0.0,71,0.00,,---,0.00,VWS V14.01,2013-05-12 07:05:00,
2013-05-12 02:06:00,64.7,55.1,30.16,North,360,0.0,0.0,71,0.00,,---,0.00,VWS V14.01,2013-05-12 07:06:00,
2013-05-12 02:07:00,64.7,55.1,30.16,North,360,0.0,0.0,71,0.00,,---,0.00,VWS V14.01,2013-05-12 07:07:00,
2013-05-12 02:08:00,64.7,55.1,30.16,North,360,0.0,0.0,71,0.00,,---,0.00,VWS V14.01,2013-05-12 07:08:00,
2013-05-12 02:09:00,64.5,54.5,30.16,North,360,0.0,0.0,70,0.00,,---,0.00,VWS V14.01,2013-05-12 07:09:00,
2013-05-12 02:10:00,64.6,54.6,30.16,North,360,0.0,0.0,70,0.00,,---,0.00,VWS V14.01,2013-05-12 07:10:00,
2013-05-12 02:11:00,64.6,54.6,30.16,North,360,0.0,0.0,70,0.00,,---,0.00,VWS V14.01,2013-05-12 07:11:00,
2013-05-12 02:12:00,64.5,54.5,30.16,North,360,0.0,0.0,70,0.00,,---,0.00,VWS V14.01,2013-05-12 07:12:00,
2013-05-12 02:13:00,64.5,54.5,30.16,North,360,0.0,0.0,70,0.00,,---,0.00,VWS V14.01,2013-05-12 07:13:00,
2013-05-12 02:14:00,64.4,54.0,30.16,North,360,0.0,0.0,69,0.00,,---,0.00,VWS V14.01,2013-05-12 07:14:00,
2013-05-12 02:15:00,64.5,54.5,30.16,North,360,0.0,0.0,70,0.00,,---,0.00,VWS V14.01,2013-05-12 07:15:00,
2013-05-12 02:16:00,64.5,54.5,30.16,North,360,0.0,0.0,70,0.00,,---,0.00,VWS V14.01,2013-05-12 07:16:00,
2013-05-12 02:17:00,64.4,54.0,30.16,North,360,0.0,0.0,69,0.00,,---,0.00,VWS V14.01,2013-05-12 07:17:00,
2013-05-12 02:19:00,64.3,53.9,30.16,North,360,0.0,0.0,69,0.00,,---,0.00,VWS V14.01,2013-05-12 07:19:00,
2013-05-12 02:20:00,64.4,54.0,30.16,North,360,0.0,0.0,69,0.00,,---,0.00,VWS V14.01,2013-05-12 07:20:00,
2013-05-12 02:21:00,64.3,53.9,30.16,North,360,0.0,0.0,69,0.00,,---,0.00,VWS V14.01,2013-05-12 07:21:00,
2013-05-12 02:22:00,64.3,53.9,30.16,North,360,0.0,0.0,69,0.00,,---,0.00,VWS V14.01,2013-05-12 07:22:00,
2013-05-12 02:23:00,64.3,53.9,30.16,North,360,0.0,0.0,69,0.00,,---,0.00,VWS V14.01,2013-05-12 07:23:00,
2013-05-12 02:24:00,64.2,53.4,30.16,North,360,0.0,0.0,68,0.00,,---,0.00,VWS V14.01,2013-05-12 07:24:00,
2013-05-12 02:25:00,64.3,53.9,30.16,North,360,0.0,0.0,69,0.00,,---,0.00,VWS V14.01,2013-05-12 07:25:00,
2013-05-12 02:26:00,64.2,53.4,30.16,North,360,0.0,0.0,68,0.00,,---,0.00,VWS V14.01,2013-05-12 07:26:00,
2013-05-12 02:27:00,64.2,53.8,30.16,North,360,0.0,0.0,69,0.00,,---,0.00,VWS V14.01,2013-05-12 07:27:00,
2013-05-12 02:28:00,64.2,53.4,30.16,North,360,0.0,0.0,68,0.00,,---,0.00,VWS V14.01,2013-05-12 07:28:00,
2013-05-12 02:29:00,64.0,53.2,30.16,North,360,0.0,0.0,68,0.00,,---,0.00,VWS V14.01,2013-05-12 07:29:00,
2013-05-12 02:30:00,64.1,53.3,30.16,North,360,0.0,0.0,68,0.00,,---,0.00,VWS V14.01,2013-05-12 07:30:00,
2013-05-12 02:31:00,64.1,53.3,30.16,North,360,0.0,0.0,68,0.00,,---,0.00,VWS V14.01,2013-05-12 07:31:00,
2013-05-12 02:32:00,64.1,53.3,30.16,North,360,0.0,0.0,68,0.00,,---,0.00,VWS V14.01,2013-05-12 07:32:00,
2013-05-12 02:33:00,64.0,53.2,30.16,North,360,0.0,0.0,68,0.00,,---,0.00,VWS V14.01,2013-05-12 07:33:00,
2013-05-12 02:34:00,63.8,53.0,30.16,North,360,0.0,0.0,68,0.00,,---,0.00,VWS V14.01,2013-05-12 07:34:00,
2013-05-12 02:35:00,64.0,53.2,30.16,North,360,0.0,0.0,68,0.00,,---,0.00,VWS V14.01,2013-05-12 07:35:00,
2013-05-12 02:36:00,64.0,53.2,30.16,North,360,0.0,0.0,68,0.00,,---,0.00,VWS V14.01,2013-05-12 07:36:00,
2013-05-12 02:37:00,63.9,53.2,30.16,North,360,0.0,0.0,68,0.00,,---,0.00,VWS V14.01,2013-05-12 07:37:00,
2013-05-12 02:38:00,63.9,53.2,30.16,North,360,0.0,0.0,68,0.00,,---,0.00,VWS V14.01,2013-05-12 07:38:00,
2013-05-12 02:39:00,63.7,53.0,30.16,North,360,0.0,0.0,68,0.00,,---,0.00,VWS V14.01,2013-05-12 07:39:00,
2013-05-12 02:40:00,63.8,53.0,30.16,North,360,0.0,0.0,68,0.00,,---,0.00,VWS V14.01,2013-05-12 07:40:00,
2013-05-12 02:41:00,63.8,53.0,30.16,North,360,0.0,0.0,68,0.00,,---,0.00,VWS V14.01,2013-05-12 07:41:00,
2013-05-12 02:42:00,63.8,53.0,30.16,North,360,0.0,0.0,68,0.00,,---,0.00,VWS V14.01,2013-05-12 07:42:00,
2013-05-12 02:43:00,63.7,53.0,30.17,North,360,0.0,0.0,68,0.00,,---,0.00,VWS V14.01,2013-05-12 07:43:00,
2013-05-12 02:44:00,63.6,53.3,30.16,North,360,0.0,0.0,69,0.00,,---,0.00,VWS V14.01,2013-05-12 07:44:00,
2013-05-12 02:45:00,63.7,53.3,30.16,North,360,0.0,0.0,69,0.00,,---,0.00,VWS V14.01,2013-05-12 07:45:00,
2013-05-12 02:46:00,63.6,53.3,30.16,North,360,0.0,0.0,69,0.00,,---,0.00,VWS V14.01,2013-05-12 07:46:00,
2013-05-12 02:47:00,63.6,53.3,30.17,North,360,0.0,0.0,69,0.00,,---,0.00,VWS V14.01,2013-05-12 07:47:00,
2013-05-12 02:48:00,63.6,53.3,30.17,North,360,0.0,0.0,69,0.00,,---,0.00,VWS V14.01,2013-05-12 07:48:00,
2013-05-12 02:49:00,63.4,53.5,30.17,North,360,0.0,0.0,70,0.00,,---,0.00,VWS V14.01,2013-05-12 07:49:00,
2013-05-12 02:50:00,63.6,53.3,30.17,North,360,0.0,0.0,69,0.00,,---,0.00,VWS V14.01,2013-05-12 07:50:00,
2013-05-12 02:51:00,63.5,53.5,30.16,North,360,0.0,0.0,70,0.00,,---,0.00,VWS V14.01,2013-05-12 07:51:00,
2013-05-12 02:52:00,63.5,53.5,30.16,North,360,0.0,0.0,70,0.00,,---,0.00,VWS V14.01,2013-05-12 07:52:00,
2013-05-12 02:53:00,63.5,53.5,30.16,North,360,0.0,0.0,70,0.00,,---,0.00,VWS V14.01,2013-05-12 07:53:00,
2013-05-12 02:54:00,63.3,53.0,30.17,North,360,0.0,0.0,69,0.00,,---,0.00,VWS V14.01,2013-05-12 07:54:00,
2013-05-12 02:55:00,63.4,53.5,30.17,North,360,0.0,0.0,70,0.00,,---,0.00,VWS V14.01,2013-05-12 07:55:00,
2013-05-12 02:56:00,63.4,53.5,30.17,North,360,0.0,0.0,70,0.00,,---,0.00,VWS V14.01,2013-05-12 07:56:00,
2013-05-12 02:57:00,63.4,53.5,30.16,North,360,0.0,0.0,70,0.00,,---,0.00,VWS V14.01,2013-05-12 07:57:00,
2013-05-12 02:58:00,63.3,53.4,30.17,North,360,0.0,0.0,70,0.00,,---,0.00,VWS V14.01,2013-05-12 07:58:00,
2013-05-12 02:59:00,63.1,52.8,30.16,North,360,0.0,0.0,69,0.00,,---,0.00,VWS V14.01,2013-05-12 07:59:00,
2013-05-12 03:00:00,63.3,53.0,30.16,North,360,0.0,0.0,69,0.00,,---,0.00,VWS V14.01,2013-05-12 08:00:00,
2013-05-12 03:01:00,63.2,52.9,30.16,North,360,0.0,0.0,69,0.00,,---,0.00,VWS V14.01,2013-05-12 08:01:00,
2013-05-12 03:02:00,63.2,52.9,30.16,North,360,0.0,0.0,69,0.00,,---,0.00,VWS V14.01,2013-05-12 08:02:00,
2013-05-12 03:03:00,63.2,52.9,30.16,North,360,0.0,0.0,69,0.00,,---,0.00,VWS V14.01,2013-05-12 08:03:00,
2013-05-12 03:04:00,63.0,52.3,30.16,North,360,0.0,0.0,68,0.00,,---,0.00,VWS V14.01,2013-05-12 08:04:00,
2013-05-12 03:05:00,63.1,52.8,30.16,North,360,0.0,0.0,69,0.00,,---,0.00,VWS V14.01,2013-05-12 08:05:00,
2013-05-12 03:06:00,63.1,52.8,30.17,North,360,0.0,0.0,69,0.00,,---,0.00,VWS V14.01,2013-05-12 08:06:00,
2013-05-12 03:07:00,63.1,52.8,30.17,North,360,0.0,0.0,69,0.00,,---,0.00,VWS V14.01,2013-05-12 08:07:00,
2013-05-12 03:08:00,63.0,52.3,30.17,North,360,0.0,0.0,68,0.00,,---,0.00,VWS V14.01,2013-05-12 08:08:00,
2013-05-12 03:09:00,62.9,52.2,30.16,North,360,0.0,0.0,68,0.00,,---,0.00,VWS V14.01,2013-05-12 08:09:00,
2013-05-12 03:10:00,63.0,52.3,30.17,North,360,0.0,0.0,68,0.00,,---,0.00,VWS V14.01,2013-05-12 08:10:00,
2013-05-12 03:11:00,63.0,52.3,30.16,North,360,0.0,0.0,68,0.00,,---,0.00,VWS V14.01,2013-05-12 08:11:00,
2013-05-12 03:12:00,62.9,52.2,30.16,North,360,0.0,0.0,68,0.00,,---,0.00,VWS V14.01,2013-05-12 08:12:00,
2013-05-12 03:13:00,62.9,52.2,30.17,North,360,0.0,0.0,68,0.00,,---,0.00,VWS V14.01,2013-05-12 08:13:00,
2013-05-12 03:14:00,62.8,51.7,30.17,North,360,0.0,0.0,67,0.00,,---,0.00,VWS V14.01,2013-05-12 08:14:00,
2013-05-12 03:15:00,62.9,52.2,30.16,North,360,0.0,0.0,68,0.00,,---,0.00,VWS V14.01,2013-05-12 08:15:00,
2013-05-12 03:16:00,62.8,52.1,30.17,North,360,0.0,0.0,68,0.00,,---,0.00,VWS V14.01,2013-05-12 08:16:00,
2013-05-12 03:17:00,62.8,51.7,30.16,North,360,0.0,0.0,67,0.00,,---,0.00,VWS V14.01,2013-05-12 08:17:00,
2013-05-12 03:18:00,62.8,51.7,30.17,North,360,0.0,0.0,67,0.00,,---,0.00,VWS V14.01,2013-05-12 08:18:00,
2013-05-12 03:19:00,62.7,51.6,30.17,North,360,0.0,0.0,67,0.00,,---,0.00,VWS V14.01,2013-05-12 08:19:00,
2013-05-12 03:20:00,62.7,51.6,30.16,North,360,0.0,0.0,67,0.00,,---,0.00,VWS V14.01,2013-05-12 08:20:00,
2013-05-12 03:21:00,62.7,51.6,30.16,North,360,0.0,0.0,67,0.00,,---,0.00,VWS V14.01,2013-05-12 08:21:00,
2013-05-12 03:22:00,62.7,51.6,30.17,North,360,0.0,0.0,67,0.00,,---,0.00,VWS V14.01,2013-05-12 08:22:00,
2013-05-12 03:23:00,62.7,51.6,30.16,North,360,0.0,0.0,67,0.00,,---,0.00,VWS V14.01,2013-05-12 08:23:00,
2013-05-12 03:24:00,62.6,51.5,30.16,North,360,0.0,0.0,67,0.00,,---,0.00,VWS V14.01,2013-05-12 08:24:00,
2013-05-12 03:25:00,62.7,51.6,30.16,North,360,0.0,0.0,67,0.00,,---,0.00,VWS V14.01,2013-05-12 08:25:00,
2013-05-12 03:26:00,62.6,51.5,30.16,North,360,0.0,0.0,67,0.00,,---,0.00,VWS V14.01,2013-05-12 08:26:00,
2013-05-12 03:27:00,62.6,51.5,30.16,North,360,0.0,0.0,67,0.00,,---,0.00,VWS V14.01,2013-05-12 08:27:00,
2013-05-12 03:28:00,62.6,51.5,30.16,North,360,0.0,0.0,67,0.00,,---,0.00,VWS V14.01,2013-05-12 08:28:00,
2013-05-12 03:29:00,62.5,51.0,30.16,North,360,0.0,0.0,66,0.00,,---,0.00,VWS V14.01,2013-05-12 08:29:00,
2013-05-12 03:30:00,62.6,51.5,30.16,North,360,0.0,0.0,67,0.00,,---,0.00,VWS V14.01,2013-05-12 08:30:00,
2013-05-12 03:31:00,62.5,51.4,30.16,North,360,0.0,0.0,67,0.00,,---,0.00,VWS V14.01,2013-05-12 08:31:00,
2013-05-12 03:32:00,62.5,51.4,30.17,North,360,0.0,0.0,67,0.00,,---,0.00,VWS V14.01,2013-05-12 08:32:00,
2013-05-12 03:33:00,62.5,51.0,30.16,North,360,0.0,0.0,66,0.00,,---,0.00,VWS V14.01,2013-05-12 08:33:00,
2013-05-12 03:34:00,62.4,50.9,30.16,North,360,0.0,0.0,66,0.00,,---,0.00,VWS V14.01,2013-05-12 08:34:00,
2013-05-12 03:35:00,62.5,51.0,30.16,North,360,0.0,0.0,66,0.00,,---,0.00,VWS V14.01,2013-05-12 08:35:00,
2013-05-12 03:36:00,62.5,51.0,30.16,North,360,0.0,0.0,66,0.00,,---,0.00,VWS V14.01,2013-05-12 08:36:00,
2013-05-12 03:37:00,62.4,50.9,30.16,North,360,0.0,0.0,66,0.00,,---,0.00,VWS V14.01,2013-05-12 08:37:00,
2013-05-12 03:38:00,62.4,50.9,30.16,North,360,0.0,0.0,66,0.00,,---,0.00,VWS V14.01,2013-05-12 08:38:00,
2013-05-12 03:39:00,62.3,50.4,30.16,North,360,0.0,0.0,65,0.00,,---,0.00,VWS V14.01,2013-05-12 08:39:00,
2013-05-12 03:40:00,62.4,50.9,30.16,North,360,0.0,0.0,66,0.00,,---,0.00,VWS V14.01,2013-05-12 08:40:00,
2013-05-12 03:41:00,62.4,50.9,30.17,North,360,0.0,0.0,66,0.00,,---,0.00,VWS V14.01,2013-05-12 08:41:00,
2013-05-12 03:42:00,62.3,50.4,30.17,North,360,0.0,0.0,65,0.00,,---,0.00,VWS V14.01,2013-05-12 08:42:00,
2013-05-12 03:43:00,62.3,50.4,30.17,North,360,0.0,0.0,65,0.00,,---,0.00,VWS V14.01,2013-05-12 08:43:00,
2013-05-12 03:44:00,62.3,50.4,30.17,North,360,0.0,0.0,65,0.00,,---,0.00,VWS V14.01,2013-05-12 08:44:00,
2013-05-12 03:45:00,62.3,50.4,30.16,North,360,0.0,0.0,65,0.00,,---,0.00,VWS V14.01,2013-05-12 08:45:00,
2013-05-12 03:46:00,62.3,50.0,30.17,North,360,0.0,0.0,64,0.00,,---,0.00,VWS V14.01,2013-05-12 08:46:00,
2013-05-12 03:47:00,62.3,50.4,30.17,North,360,0.0,0.0,65,0.00,,---,0.00,VWS V14.01,2013-05-12 08:47:00,
2013-05-12 03:48:00,62.3,50.0,30.17,North,360,0.0,0.0,64,0.00,,---,0.00,VWS V14.01,2013-05-12 08:48:00,
2013-05-12 03:49:00,62.2,49.9,30.17,North,360,0.0,0.0,64,0.00,,---,0.00,VWS V14.01,2013-05-12 08:49:00,
2013-05-12 03:50:00,62.3,50.0,30.17,North,360,0.0,0.0,64,0.00,,---,0.00,VWS V14.01,2013-05-12 08:50:00,
2013-05-12 03:51:00,62.2,49.9,30.17,North,360,0.0,0.0,64,0.00,,---,0.00,VWS V14.01,2013-05-12 08:51:00,
2013-05-12 03:52:00,62.2,49.9,30.17,North,360,0.0,0.0,64,0.00,,---,0.00,VWS V14.01,2013-05-12 08:52:00,
2013-05-12 03:53:00,62.2,49.9,30.17,North,360,0.0,0.0,64,0.00,,---,0.00,VWS V14.01,2013-05-12 08:53:00,
2013-05-12 03:54:00,62.1,49.8,30.17,North,360,0.0,0.0,64,0.00,,---,0.00,VWS V14.01,2013-05-12 08:54:00,
2013-05-12 03:55:00,62.2,49.9,30.17,North,360,0.0,0.0,64,0.00,,---,0.00,VWS V14.01,2013-05-12 08:55:00,
2013-05-12 03:56:00,62.2,49.9,30.17,North,360,0.0,0.0,64,0.00,,---,0.00,VWS V14.01,2013-05-12 08:56:00,
2013-05-12 03:57:00,62.1,49.8,30.17,North,360,0.0,0.0,64,0.00,,---,0.00,VWS V14.01,2013-05-12 08:57:00,
2013-05-12 03:58:00,62.1,49.8,30.17,North,360,0.0,0.0,64,0.00,,---,0.00,VWS V14.01,2013-05-12 08:58:00,
2013-05-12 03:59:00,62.0,49.3,30.17,North,360,0.0,0.0,63,0.00,,---,0.00,VWS V14.01,2013-05-12 08:59:00,
2013-05-12 04:00:00,62.1,49.8,30.17,North,360,0.0,0.0,64,0.00,,---,0.00,VWS V14.01,2013-05-12 09:00:00,
2013-05-12 04:01:00,62.1,49.8,30.17,North,360,0.0,0.0,64,0.00,,---,0.00,VWS V14.01,2013-05-12 09:01:00,
2013-05-12 04:02:00,62.0,49.7,30.17,North,360,0.0,0.0,64,0.00,,---,0.00,VWS V14.01,2013-05-12 09:02:00,
2013-05-12 04:03:00,62.0,49.7,30.17,North,360,0.0,0.0,64,0.00,,---,0.00,VWS V14.01,2013-05-12 09:03:00,
2013-05-12 04:04:00,62.0,49.3,30.17,North,360,0.0,0.0,63,0.00,,---,0.00,VWS V14.01,2013-05-12 09:04:00,
2013-05-12 04:05:00,62.0,49.3,30.17,North,360,0.0,0.0,63,0.00,,---,0.00,VWS V14.01,2013-05-12 09:05:00,
2013-05-12 04:06:00,62.0,49.3,30.17,North,360,0.0,0.0,63,0.00,,---,0.00,VWS V14.01,2013-05-12 09:06:00,
2013-05-12 04:07:00,62.0,49.3,30.17,North,360,0.0,0.0,63,0.00,,---,0.00,VWS V14.01,2013-05-12 09:07:00,
2013-05-12 04:08:00,62.0,49.3,30.17,North,360,0.0,0.0,63,0.00,,---,0.00,VWS V14.01,2013-05-12 09:08:00,
2013-05-12 04:09:00,61.8,48.7,30.17,North,360,0.0,0.0,62,0.00,,---,0.00,VWS V14.01,2013-05-12 09:09:00,
2013-05-12 04:10:00,61.9,49.2,30.17,North,360,0.0,0.0,63,0.00,,---,0.00,VWS V14.01,2013-05-12 09:10:00,
2013-05-12 04:11:00,61.9,49.2,30.17,North,360,0.0,0.0,63,0.00,,---,0.00,VWS V14.01,2013-05-12 09:11:00,
2013-05-12 04:12:00,61.9,49.2,30.17,North,360,0.0,0.0,63,0.00,,---,0.00,VWS V14.01,2013-05-12 09:12:00,
2013-05-12 04:13:00,61.9,48.8,30.17,North,360,0.0,0.0,62,0.00,,---,0.00,VWS V14.01,2013-05-12 09:13:00,
2013-05-12 04:14:00,61.8,48.7,30.17,North,360,0.0,0.0,62,0.00,,---,0.00,VWS V14.01,2013-05-12 09:14:00,
2013-05-12 04:15:00,61.8,48.7,30.17,North,360,0.0,0.0,62,0.00,,---,0.00,VWS V14.01,2013-05-12 09:15:00,
2013-05-12 04:16:00,61.8,48.7,30.17,North,360,0.0,0.0,62,0.00,,---,0.00,VWS V14.01,2013-05-12 09:16:00,
2013-05-12 04:17:00,61.8,48.7,30.17,North,360,0.0,0.0,62,0.00,,---,0.00,VWS V14.01,2013-05-12 09:17:00,
2013-05-12 04:18:00,61.8,48.7,30.17,North,360,0.0,0.0,62,0.00,,---,0.00,VWS V14.01,2013-05-12 09:18:00,
2013-05-12 04:19:00,61.6,48.0,30.17,North,360,0.0,0.0,61,0.00,,---,0.00,VWS V14.01,2013-05-12 09:19:00,
2013-05-12 04:20:00,61.7,48.1,30.17,North,360,0.0,0.0,61,0.00,,---,0.00,VWS V14.01,2013-05-12 09:20:00,
2013-05-12 04:21:00,61.7,48.6,30.17,North,360,0.0,0.0,62,0.00,,---,0.00,VWS V14.01,2013-05-12 09:21:00,
2013-05-12 04:22:00,61.7,48.1,30.17,North,360,0.0,0.0,61,0.00,,---,0.00,VWS V14.01,2013-05-12 09:22:00,
2013-05-12 04:23:00,61.7,48.1,30.17,North,360,0.0,0.0,61,0.00,,---,0.00,VWS V14.01,2013-05-12 09:23:00,
2013-05-12 04:24:00,61.6,48.0,30.17,North,360,0.0,0.0,61,0.00,,---,0.00,VWS V14.01,2013-05-12 09:24:00,
2013-05-12 04:25:00,61.6,48.0,30.17,North,360,0.0,0.0,61,0.00,,---,0.00,VWS V14.01,2013-05-12 09:25:00,
2013-05-12 04:26:00,61.6,48.0,30.17,North,360,0.0,0.0,61,0.00,,---,0.00,VWS V14.01,2013-05-12 09:26:00,
2013-05-12 04:27:00,61.6,48.0,30.17,North,360,0.0,0.0,61,0.00,,---,0.00,VWS V14.01,2013-05-12 09:27:00,
2013-05-12 04:28:00,61.6,48.0,30.17,North,360,0.0,0.0,61,0.00,,---,0.00,VWS V14.01,2013-05-12 09:28:00,
2013-05-12 04:29:00,61.5,47.9,30.17,North,360,0.0,0.0,61,0.00,,---,0.00,VWS V14.01,2013-05-12 09:29:00,
2013-05-12 04:30:00,61.6,48.0,30.17,North,360,0.0,0.0,61,0.00,,---,0.00,VWS V14.01,2013-05-12 09:30:00,
2013-05-12 04:31:00,61.5,47.9,30.17,North,360,0.0,0.0,61,0.00,,---,0.00,VWS V14.01,2013-05-12 09:31:00,
2013-05-12 04:32:00,61.5,47.9,30.17,North,360,0.0,0.0,61,0.00,,---,0.00,VWS V14.01,2013-05-12 09:32:00,
2013-05-12 04:33:00,61.5,47.9,30.17,North,360,0.0,0.0,61,0.00,,---,0.00,VWS V14.01,2013-05-12 09:33:00,
2013-05-12 04:34:00,61.3,47.8,30.17,North,360,0.0,0.0,61,0.00,,---,0.00,VWS V14.01,2013-05-12 09:34:00,
2013-05-12 04:35:00,61.4,47.8,30.17,North,360,0.0,0.0,61,0.00,,---,0.00,VWS V14.01,2013-05-12 09:35:00,
2013-05-12 04:36:00,61.4,47.8,30.17,North,360,0.0,0.0,61,0.00,,---,0.00,VWS V14.01,2013-05-12 09:36:00,
2013-05-12 04:37:00,61.4,47.8,30.17,North,360,0.0,0.0,61,0.00,,---,0.00,VWS V14.01,2013-05-12 09:37:00,
2013-05-12 04:38:00,61.4,47.8,30.17,North,360,0.0,0.0,61,0.00,,---,0.00,VWS V14.01,2013-05-12 09:38:00,
2013-05-12 04:39:00,61.2,48.1,30.17,North,360,0.0,0.0,62,0.00,,---,0.00,VWS V14.01,2013-05-12 09:39:00,
2013-05-12 04:40:00,61.3,47.8,30.17,North,360,0.0,0.0,61,0.00,,---,0.00,VWS V14.01,2013-05-12 09:40:00,
2013-05-12 04:41:00,61.3,48.2,30.17,North,360,0.0,0.0,62,0.00,,---,0.00,VWS V14.01,2013-05-12 09:41:00,
2013-05-12 04:42:00,61.3,48.2,30.17,North,360,0.0,0.0,62,0.00,,---,0.00,VWS V14.01,2013-05-12 09:42:00,
2013-05-12 04:43:00,61.2,48.1,30.17,North,360,0.0,0.0,62,0.00,,---,0.00,VWS V14.01,2013-05-12 09:43:00,
2013-05-12 04:44:00,61.1,48.0,30.17,North,360,0.0,0.0,62,0.00,,---,0.00,VWS V14.01,2013-05-12 09:44:00,
2013-05-12 04:45:00,61.2,48.1,30.17,North,360,0.0,0.0,62,0.00,,---,0.00,VWS V14.01,2013-05-12 09:45:00,
2013-05-12 04:46:00,61.2,47.7,30.17,North,360,0.0,0.0,61,0.00,,---,0.00,VWS V14.01,2013-05-12 09:46:00,
2013-05-12 04:47:00,61.1,47.6,30.17,North,360,0.0,0.0,61,0.00,,---,0.00,VWS V14.01,2013-05-12 09:47:00,
2013-05-12 04:48:00,61.1,47.6,30.17,North,360,0.0,0.0,61,0.00,,---,0.00,VWS V14.01,2013-05-12 09:48:00,
2013-05-12 04:49:00,60.9,47.8,30.18,North,360,0.0,0.0,62,0.00,,---,0.00,VWS V14.01,2013-05-12 09:49:00,
2013-05-12 04:50:00,61.1,48.0,30.17,North,360,0.0,0.0,62,0.00,,---,0.00,VWS V14.01,2013-05-12 09:50:00,
2013-05-12 04:51:00,61.0,47.9,30.18,North,360,0.0,0.0,62,0.00,,---,0.00,VWS V14.01,2013-05-12 09:51:00,
2013-05-12 04:52:00,61.0,47.9,30.17,North,360,0.0,0.0,62,0.00,,---,0.00,VWS V14.01,2013-05-12 09:52:00,
2013-05-12 04:53:00,60.9,47.8,30.17,North,360,0.0,0.0,62,0.00,,---,0.00,VWS V14.01,2013-05-12 09:53:00,
2013-05-12 04:54:00,60.8,47.7,30.18,North,360,0.0,0.0,62,0.00,,---,0.00,VWS V14.01,2013-05-12 09:54:00,
2013-05-12 04:55:00,60.9,47.8,30.18,North,360,0.0,0.0,62,0.00,,---,0.00,VWS V14.01,2013-05-12 09:55:00,
2013-05-12 04:56:00,60.9,47.8,30.18,North,360,0.0,0.0,62,0.00,,---,0.00,VWS V14.01,2013-05-12 09:56:00,
2013-05-12 04:57:00,60.8,47.7,30.18,North,360,0.0,0.0,62,0.00,,---,0.00,VWS V14.01,2013-05-12 09:57:00,
2013-05-12 04:58:00,60.8,47.7,30.18,North,360,0.0,0.0,62,0.00,,---,0.00,VWS V14.01,2013-05-12 09:58:00,
2013-05-12 04:59:00,60.6,47.5,30.18,North,360,0.0,0.0,62,0.00,,---,0.00,VWS V14.01,2013-05-12 09:59:00,
2013-05-12 05:00:00,60.7,47.6,30.18,North,360,0.0,0.0,62,0.00,,---,0.00,VWS V14.01,2013-05-12 10:00:00,
2013-05-12 05:01:00,60.7,47.6,30.18,North,360,0.0,0.0,62,0.00,,---,0.00,VWS V14.01,2013-05-12 10:01:00,
2013-05-12 05:02:00,60.7,47.6,30.18,North,360,0.0,0.0,62,0.00,,---,0.00,VWS V14.01,2013-05-12 10:02:00,
2013-05-12 05:03:00,60.6,47.5,30.18,North,360,0.0,0.0,62,0.00,,---,0.00,VWS V14.01,2013-05-12 10:03:00,
2013-05-12 05:04:00,60.4,47.3,30.18,North,360,0.0,0.0,62,0.00,,---,0.00,VWS V14.01,2013-05-12 10:04:00,
2013-05-12 05:05:00,60.6,47.5,30.18,North,360,0.0,0.0,62,0.00,,---,0.00,VWS V14.01,2013-05-12 10:05:00,
2013-05-12 05:06:00,60.5,47.4,30.18,North,360,0.0,0.0,62,0.00,,---,0.00,VWS V14.01,2013-05-12 10:06:00,
2013-05-12 05:07:00,60.5,47.4,30.18,North,360,0.0,0.0,62,0.00,,---,0.00,VWS V14.01,2013-05-12 10:07:00,
2013-05-12 05:08:00,60.5,47.4,30.18,North,360,0.0,0.0,62,0.00,,---,0.00,VWS V14.01,2013-05-12 10:08:00,
2013-05-12 05:09:00,60.2,47.2,30.18,North,360,0.0,0.0,62,0.00,,---,0.00,VWS V14.01,2013-05-12 10:09:00,
2013-05-12 05:10:00,60.4,47.3,30.18,North,360,0.0,0.0,62,0.00,,---,0.00,VWS V14.01,2013-05-12 10:10:00,
2013-05-12 05:11:00,60.3,47.2,30.18,North,360,0.0,0.0,62,0.00,,---,0.00,VWS V14.01,2013-05-12 10:11:00,
2013-05-12 05:12:00,60.3,47.2,30.18,North,360,0.0,0.0,62,0.00,,---,0.00,VWS V14.01,2013-05-12 10:12:00,
2013-05-12 05:13:00,60.3,47.2,30.19,North,360,0.0,0.0,62,0.00,,---,0.00,VWS V14.01,2013-05-12 10:13:00,
2013-05-12 05:14:00,60.0,47.0,30.19,North,360,0.0,0.0,62,0.00,,---,0.00,VWS V14.01,2013-05-12 10:14:00,
2013-05-12 05:15:00,60.2,47.2,30.18,North,360,0.0,0.0,62,0.00,,---,0.00,VWS V14.01,2013-05-12 10:15:00,
2013-05-12 05:16:00,60.2,47.2,30.18,North,360,0.0,0.0,62,0.00,,---,0.00,VWS V14.01,2013-05-12 10:16:00,
2013-05-12 05:17:00,60.1,47.0,30.18,North,360,0.0,0.0,62,0.00,,---,0.00,VWS V14.01,2013-05-12 10:17:00,
2013-05-12 05:18:00,60.0,47.0,30.19,North,360,0.0,0.0,62,0.00,,---,0.00,VWS V14.01,2013-05-12 10:18:00,
2013-05-12 05:19:00,60.0,47.0,30.19,North,360,0.0,0.0,62,0.00,,---,0.00,VWS V14.01,2013-05-12 10:19:00,
2013-05-12 05:20:00,59.8,46.8,30.19,North,360,0.0,0.0,62,0.00,,---,0.00,VWS V14.01,2013-05-12 10:20:00,
2013-05-12 05:21:00,59.9,46.9,30.18,North,360,0.0,0.0,62,0.00,,---,0.00,VWS V14.01,2013-05-12 10:21:00,
2013-05-12 05:22:00,59.9,46.9,30.18,North,360,0.0,0.0,62,0.00,,---,0.00,VWS V14.01,2013-05-12 10:22:00,
2013-05-12 05:23:00,59.9,46.9,30.19,North,360,0.0,0.0,62,0.00,,---,0.00,VWS V14.01,2013-05-12 10:23:00,
2013-05-12 05:24:00,59.8,46.8,30.19,North,360,0.0,0.0,62,0.00,,---,0.00,VWS V14.01,2013-05-12 10:24:00,
2013-05-12 05:25:00,59.6,46.2,30.19,North,360,0.0,0.0,61,0.00,,---,0.00,VWS V14.01,2013-05-12 10:25:00,
2013-05-12 05:26:00,59.8,46.3,30.19,North,360,0.0,0.0,61,0.00,,---,0.00,VWS V14.01,2013-05-12 10:26:00,
2013-05-12 05:27:00,59.7,46.2,30.18,North,360,0.0,0.0,61,0.00,,---,0.00,VWS V14.01,2013-05-12 10:27:00,
2013-05-12 05:28:00,59.7,46.2,30.18,North,360,0.0,0.0,61,0.00,,---,0.00,VWS V14.01,2013-05-12 10:28:00,
2013-05-12 05:29:00,59.7,46.2,30.18,North,360,0.0,0.0,61,0.00,,---,0.00,VWS V14.01,2013-05-12 10:29:00,
2013-05-12 05:30:00,59.5,46.5,30.18,North,360,0.0,0.0,62,0.00,,---,0.00,VWS V14.01,2013-05-12 10:30:00,
2013-05-12 05:31:00,59.6,46.2,30.18,North,360,0.0,0.0,61,0.00,,---,0.00,VWS V14.01,2013-05-12 10:31:00,
2013-05-12 05:32:00,59.6,46.6,30.18,North,360,0.0,0.0,62,0.00,,---,0.00,VWS V14.01,2013-05-12 10:32:00,
2013-05-12 05:33:00,59.5,46.1,30.18,North,360,0.0,0.0,61,0.00,,---,0.00,VWS V14.01,2013-05-12 10:33:00,
2013-05-12 05:34:00,59.5,46.1,30.18,North,360,0.0,0.0,61,0.00,,---,0.00,VWS V14.01,2013-05-12 10:34:00,
2013-05-12 05:35:00,59.3,46.3,30.19,North,360,0.0,0.0,62,0.00,,---,0.00,VWS V14.01,2013-05-12 10:35:00,
2013-05-12 05:36:00,59.4,46.4,30.18,North,360,0.0,0.0,62,0.00,,---,0.00,VWS V14.01,2013-05-12 10:36:00,
2013-05-12 05:37:00,59.4,46.4,30.18,North,360,0.0,0.0,62,0.00,,---,0.00,VWS V14.01,2013-05-12 10:37:00,
2013-05-12 05:38:00,59.3,46.3,30.18,North,360,0.0,0.0,62,0.00,,---,0.00,VWS V14.01,2013-05-12 10:38:00,
2013-05-12 05:39:00,59.3,46.3,30.18,North,360,0.0,0.0,62,0.00,,---,0.00,VWS V14.01,2013-05-12 10:39:00,
2013-05-12 05:40:00,59.1,46.1,30.19,North,360,0.0,0.0,62,0.00,,---,0.00,VWS V14.01,2013-05-12 10:40:00,
2013-05-12 05:41:00,59.3,46.3,30.19,North,360,0.0,0.0,62,0.00,,---,0.00,VWS V14.01,2013-05-12 10:41:00,
2013-05-12 05:42:00,59.2,46.2,30.19,North,360,0.0,0.0,62,0.00,,---,0.00,VWS V14.01,2013-05-12 10:42:00,
2013-05-12 05:43:00,59.2,46.2,30.19,North,360,0.0,0.0,62,0.00,,---,0.00,VWS V14.01,2013-05-12 10:43:00,
2013-05-12 05:44:00,59.1,46.1,30.19,North,360,0.0,0.0,62,0.00,,---,0.00,VWS V14.01,2013-05-12 10:44:00,
2013-05-12 05:45:00,58.9,45.9,30.19,North,360,0.0,0.0,62,0.00,,---,0.00,VWS V14.01,2013-05-12 10:45:00,
2013-05-12 05:46:00,59.0,46.0,30.19,North,360,0.0,0.0,62,0.00,,---,0.00,VWS V14.01,2013-05-12 10:46:00,
2013-05-12 05:47:00,59.0,46.0,30.19,North,360,0.0,0.0,62,0.00,,---,0.00,VWS V14.01,2013-05-12 10:47:00,
2013-05-12 05:48:00,59.0,46.0,30.19,North,360,0.0,0.0,62,0.00,,---,0.00,VWS V14.01,2013-05-12 10:48:00,
2013-05-12 05:49:00,59.0,46.0,30.19,North,360,0.0,0.0,62,0.00,,---,0.00,VWS V14.01,2013-05-12 10:49:00,
2013-05-12 05:50:00,58.7,46.2,30.19,North,360,0.0,0.0,63,0.00,,---,0.00,VWS V14.01,2013-05-12 10:50:00,
2013-05-12 05:51:00,58.9,45.9,30.19,North,360,0.0,0.0,62,0.00,,---,0.00,VWS V14.01,2013-05-12 10:51:00,
2013-05-12 05:52:00,58.9,45.9,30.19,North,360,0.0,0.0,62,0.00,,---,0.00,VWS V14.01,2013-05-12 10:52:00,
2013-05-12 05:53:00,58.8,46.2,30.19,North,360,0.0,0.0,63,0.00,,---,0.00,VWS V14.01,2013-05-12 10:53:00,
2013-05-12 05:54:00,58.8,46.2,30.19,North,360,0.0,0.0,63,0.00,,---,0.00,VWS V14.01,2013-05-12 10:54:00,
2013-05-12 05:55:00,58.5,46.0,30.19,North,360,0.0,0.0,63,0.00,,---,0.00,VWS V14.01,2013-05-12 10:55:00,
2013-05-12 05:56:00,58.7,46.2,30.19,North,360,0.0,0.0,63,0.00,,---,0.00,VWS V14.01,2013-05-12 10:56:00,
2013-05-12 05:57:00,58.6,46.1,30.19,North,360,0.0,0.0,63,0.00,,---,0.00,VWS V14.01,2013-05-12 10:57:00,
2013-05-12 05:58:00,58.6,46.1,30.19,North,360,0.0,0.0,63,0.00,,---,0.00,VWS V14.01,2013-05-12 10:58:00,
2013-05-12 05:59:00,58.6,46.1,30.19,North,360,0.0,0.0,63,0.00,,---,0.00,VWS V14.01,2013-05-12 10:59:00,
2013-05-12 06:00:00,58.3,45.8,30.19,North,360,0.0,0.0,63,0.00,,---,0.00,VWS V14.01,2013-05-12 11:00:00,
2013-05-12 06:01:00,58.5,46.0,30.19,North,360,0.0,0.0,63,0.00,,---,0.00,VWS V14.01,2013-05-12 11:01:00,
2013-05-12 06:02:00,58.4,45.9,30.20,North,360,0.0,0.0,63,0.00,,---,0.00,VWS V14.01,2013-05-12 11:02:00,
2013-05-12 06:03:00,58.4,45.9,30.20,North,360,0.0,0.0,63,0.00,,---,0.00,VWS V14.01,2013-05-12 11:03:00,
2013-05-12 06:04:00,58.4,45.9,30.19,North,360,0.0,0.0,63,0.00,,---,0.00,VWS V14.01,2013-05-12 11:04:00,
2013-05-12 06:05:00,58.1,45.6,30.19,North,360,0.0,0.0,63,0.00,,---,0.00,VWS V14.01,2013-05-12 11:05:00,
2013-05-12 06:06:00,58.3,45.8,30.20,North,360,0.0,0.0,63,0.00,,---,0.00,VWS V14.01,2013-05-12 11:06:00,
2013-05-12 06:07:00,58.2,45.7,30.20,North,360,0.0,0.0,63,0.00,,---,0.00,VWS V14.01,2013-05-12 11:07:00,
2013-05-12 06:08:00,58.2,45.7,30.20,North,360,0.0,0.0,63,0.00,,---,0.00,VWS V14.01,2013-05-12 11:08:00,
2013-05-12 06:09:00,58.2,45.7,30.20,North,360,0.0,0.0,63,0.00,,---,0.00,VWS V14.01,2013-05-12 11:09:00,
2013-05-12 06:10:00,57.9,45.4,30.20,North,360,0.0,0.0,63,0.00,,---,0.00,VWS V14.01,2013-05-12 11:10:00,
2013-05-12 06:11:00,58.1,45.6,30.19,North,360,0.0,0.0,63,0.00,,---,0.00,VWS V14.01,2013-05-12 11:11:00,
2013-05-12 06:12:00,58.0,45.5,30.19,North,360,0.0,0.0,63,0.00,,---,0.00,VWS V14.01,2013-05-12 11:12:00,
2013-05-12 06:15:00,57.7,45.6,30.20,North,360,0.0,0.0,64,0.00,,---,0.00,VWS V14.01,2013-05-12 11:15:00,
2013-05-12 06:16:00,57.8,45.3,30.20,North,360,0.0,0.0,63,0.00,,---,0.00,VWS V14.01,2013-05-12 11:16:00,
2013-05-12 06:19:00,57.7,45.6,30.20,North,360,0.0,0.0,64,0.00,,---,0.00,VWS V14.01,2013-05-12 11:19:00,
2013-05-12 06:20:00,57.5,45.4,30.20,North,360,0.0,0.0,64,0.00,,---,0.00,VWS V14.01,2013-05-12 11:20:00,
2013-05-12 06:22:00,57.6,45.5,30.20,North,360,0.0,0.0,64,0.00,,---,0.00,VWS V14.01,2013-05-12 11:22:00,
2013-05-12 06:23:00,57.6,45.5,30.20,North,360,0.0,0.0,64,0.00,,---,0.00,VWS V14.01,2013-05-12 11:23:00,
2013-05-12 06:24:00,57.5,45.4,30.20,North,360,0.0,0.0,64,0.00,,---,0.00,VWS V14.01,2013-05-12 11:24:00,
2013-05-12 06:25:00,57.3,45.7,30.20,North,360,0.0,0.0,65,0.00,,---,0.00,VWS V14.01,2013-05-12 11:25:00,
2013-05-12 06:26:00,57.4,45.3,30.20,North,360,0.0,0.0,64,0.00,,---,0.00,VWS V14.01,2013-05-12 11:26:00,
2013-05-12 06:27:00,57.4,45.3,30.20,North,360,0.0,0.0,64,0.00,,---,0.00,VWS V14.01,2013-05-12 11:27:00,
2013-05-12 06:29:00,57.3,45.7,30.20,North,360,0.0,0.0,65,0.00,,---,0.00,VWS V14.01,2013-05-12 11:29:00,
2013-05-12 06:30:00,57.1,45.5,30.20,North,360,0.0,0.0,65,0.00,,---,0.00,VWS V14.01,2013-05-12 11:30:00,
2013-05-12 06:31:00,57.3,45.7,30.20,North,360,0.0,0.0,65,0.00,,---,0.00,VWS V14.01,2013-05-12 11:31:00,
2013-05-12 06:32:00,57.2,45.6,30.20,North,360,0.0,0.0,65,0.00,,---,0.00,VWS V14.01,2013-05-12 11:32:00,
2013-05-12 06:33:00,57.2,45.6,30.20,North,360,0.0,0.0,65,0.00,,---,0.00,VWS V14.01,2013-05-12 11:33:00,
2013-05-12 06:34:00,57.1,45.5,30.20,North,360,0.0,0.0,65,0.00,,---,0.00,VWS V14.01,2013-05-12 11:34:00,
2013-05-12 06:35:00,56.9,45.7,30.20,North,360,0.0,0.0,66,0.00,,---,0.00,VWS V14.01,2013-05-12 11:35:00,
2013-05-12 06:36:00,57.1,45.5,30.20,North,360,0.0,0.0,65,0.00,,---,0.00,VWS V14.01,2013-05-12 11:36:00,
2013-05-12 06:37:00,57.0,45.4,30.20,North,360,0.0,0.0,65,0.00,,---,0.00,VWS V14.01,2013-05-12 11:37:00,
2013-05-12 06:38:00,57.0,45.8,30.20,North,360,0.0,0.0,66,0.00,,---,0.00,VWS V14.01,2013-05-12 11:38:00,
2013-05-12 06:39:00,57.0,45.8,30.20,North,360,0.0,0.0,66,0.00,,---,0.00,VWS V14.01,2013-05-12 11:39:00,
2013-05-12 06:40:00,56.8,45.6,30.21,North,360,0.0,0.0,66,0.00,,---,0.00,VWS V14.01,2013-05-12 11:40:00,
2013-05-12 06:41:00,56.9,45.7,30.20,North,360,0.0,0.0,66,0.00,,---,0.00,VWS V14.01,2013-05-12 11:41:00,
2013-05-12 06:42:00,56.9,45.7,30.21,North,360,0.0,0.0,66,0.00,,---,0.00,VWS V14.01,2013-05-12 11:42:00,
2013-05-12 06:43:00,56.8,45.6,30.20,North,360,0.0,0.0,66,0.00,,---,0.00,VWS V14.01,2013-05-12 11:43:00,
2013-05-12 06:44:00,56.8,45.6,30.20,North,360,0.0,0.0,66,0.00,,---,0.00,VWS V14.01,2013-05-12 11:44:00,
2013-05-12 06:45:00,56.6,45.4,30.21,North,360,0.0,0.0,66,0.00,,---,0.00,VWS V14.01,2013-05-12 11:45:00,
2013-05-12 06:47:00,56.7,45.5,30.21,North,360,0.0,0.0,66,0.00,,---,0.00,VWS V14.01,2013-05-12 11:47:00,
2013-05-12 06:48:00,56.7,45.5,30.21,North,360,0.0,0.0,66,0.00,,---,0.00,VWS V14.01,2013-05-12 11:48:00,
2013-05-12 06:49:00,56.7,45.5,30.21,North,360,0.0,0.0,66,0.00,,---,0.00,VWS V14.01,2013-05-12 11:49:00,
2013-05-12 06:50:00,56.5,45.3,30.21,North,360,0.0,0.0,66,0.00,,---,0.00,VWS V14.01,2013-05-12 11:50:00,
2013-05-12 06:51:00,56.6,45.4,30.21,North,360,0.0,0.0,66,0.00,,---,0.00,VWS V14.01,2013-05-12 11:51:00,
2013-05-12 06:52:00,56.6,45.4,30.21,North,360,0.0,0.0,66,0.00,,---,0.00,VWS V14.01,2013-05-12 11:52:00,
2013-05-12 06:53:00,56.5,45.3,30.21,North,360,0.0,0.0,66,0.00,,---,0.00,VWS V14.01,2013-05-12 11:53:00,
2013-05-12 06:54:00,56.5,45.3,30.21,North,360,0.0,0.0,66,0.00,,---,0.00,VWS V14.01,2013-05-12 11:54:00,
2013-05-12 06:55:00,56.3,45.5,30.22,North,360,0.0,0.0,67,0.00,,---,0.00,VWS V14.01,2013-05-12 11:55:00,
2013-05-12 06:56:00,56.4,45.2,30.21,North,360,0.0,0.0,66,0.00,,---,0.00,VWS V14.01,2013-05-12 11:56:00,
2013-05-12 06:57:00,56.4,45.6,30.21,North,360,0.0,0.0,67,0.00,,---,0.00,VWS V14.01,2013-05-12 11:57:00,
2013-05-12 06:58:00,56.4,45.6,30.22,North,360,0.0,0.0,67,0.00,,---,0.00,VWS V14.01,2013-05-12 11:58:00,
2013-05-12 06:59:00,56.4,45.6,30.22,North,360,0.0,0.0,67,0.00,,---,0.00,VWS V14.01,2013-05-12 11:59:00,
2013-05-12 07:00:00,56.2,45.4,30.22,North,360,0.0,0.0,67,0.00,,---,0.00,VWS V14.01,2013-05-12 12:00:00,
2013-05-12 07:01:00,56.3,45.5,30.22,North,360,0.0,0.0,67,0.00,,---,0.00,VWS V14.01,2013-05-12 12:01:00,
2013-05-12 07:02:00,56.3,45.5,30.22,North,360,0.0,0.0,67,0.00,,---,0.00,VWS V14.01,2013-05-12 12:02:00,
2013-05-12 07:03:00,56.3,45.5,30.22,North,360,0.0,0.0,67,0.00,,---,0.00,VWS V14.01,2013-05-12 12:03:00,
2013-05-12 07:04:00,56.2,45.4,30.22,North,360,0.0,0.0,67,0.00,,---,0.00,VWS V14.01,2013-05-12 12:04:00,
2013-05-12 07:05:00,56.2,45.4,30.22,North,360,0.0,0.0,67,0.00,,---,0.00,VWS V14.01,2013-05-12 12:05:00,
2013-05-12 07:06:00,56.2,45.4,30.22,North,360,0.0,0.0,67,0.00,,---,0.00,VWS V14.01,2013-05-12 12:06:00,
2013-05-12 07:07:00,56.2,45.4,30.22,North,360,0.0,0.0,67,0.00,,---,0.00,VWS V14.01,2013-05-12 12:07:00,
2013-05-12 07:08:00,56.2,45.4,30.22,North,360,0.0,0.0,67,0.00,,---,0.00,VWS V14.01,2013-05-12 12:08:00,
2013-05-12 07:09:00,56.2,45.4,30.22,North,360,0.0,0.0,67,0.00,,---,0.00,VWS V14.01,2013-05-12 12:09:00,
2013-05-12 07:10:00,56.1,45.3,30.23,North,360,0.0,0.0,67,0.00,,---,0.00,VWS V14.01,2013-05-12 12:10:00,
2013-05-12 07:11:00,56.2,45.4,30.23,North,360,0.0,0.0,67,0.00,,---,0.00,VWS V14.01,2013-05-12 12:11:00,
2013-05-12 07:12:00,56.2,45.4,30.22,North,360,0.0,0.0,67,0.00,,---,0.00,VWS V14.01,2013-05-12 12:12:00,
2013-05-12 07:13:00,56.2,45.4,30.23,North,360,0.0,0.0,67,0.00,,---,0.00,VWS V14.01,2013-05-12 12:13:00,
2013-05-12 07:14:00,56.1,45.3,30.22,North,360,0.0,0.0,67,0.00,,---,0.00,VWS V14.01,2013-05-12 12:14:00,
2013-05-12 07:15:00,56.1,45.7,30.23,North,360,0.0,0.0,68,0.00,,---,0.00,VWS V14.01,2013-05-12 12:15:00,
2013-05-12 07:16:00,56.1,45.7,30.23,North,360,0.0,0.0,68,0.00,,---,0.00,VWS V14.01,2013-05-12 12:16:00,
2013-05-12 07:17:00,56.1,45.7,30.23,North,360,0.0,0.0,68,0.00,,---,0.00,VWS V14.01,2013-05-12 12:17:00,
2013-05-12 07:18:00,56.1,45.7,30.23,North,360,0.0,0.0,68,0.00,,---,0.00,VWS V14.01,2013-05-12 12:18:00,
2013-05-12 07:19:00,56.1,45.7,30.23,North,360,0.0,0.0,68,0.00,,---,0.00,VWS V14.01,2013-05-12 12:19:00,
2013-05-12 07:20:00,56.1,46.1,30.22,North,360,0.0,0.0,69,0.00,,---,0.00,VWS V14.01,2013-05-12 12:20:00,
2013-05-12 07:21:00,56.1,45.7,30.23,North,360,0.0,0.0,68,0.00,,---,0.00,VWS V14.01,2013-05-12 12:21:00,
2013-05-12 07:22:00,56.1,45.7,30.23,North,360,0.0,0.0,68,0.00,,---,0.00,VWS V14.01,2013-05-12 12:22:00,
2013-05-12 07:23:00,56.1,46.1,30.23,North,360,0.0,0.0,69,0.00,,---,0.00,VWS V14.01,2013-05-12 12:23:00,
2013-05-12 07:24:00,56.1,46.1,30.22,North,360,0.0,0.0,69,0.00,,---,0.00,VWS V14.01,2013-05-12 12:24:00,
2013-05-12 07:25:00,56.1,46.1,30.22,North,360,0.0,0.0,69,0.00,,---,0.00,VWS V14.01,2013-05-12 12:25:00,
2013-05-12 07:26:00,56.1,45.7,30.22,North,360,0.0,0.0,68,0.00,,---,0.00,VWS V14.01,2013-05-12 12:26:00,
2013-05-12 07:27:00,56.1,46.1,30.22,North,360,0.0,0.0,69,0.00,,---,0.00,VWS V14.01,2013-05-12 12:27:00,
2013-05-12 07:28:00,56.1,46.1,30.22,North,360,0.0,0.0,69,0.00,,---,0.00,VWS V14.01,2013-05-12 12:28:00,
2013-05-12 07:29:00,56.2,46.2,30.22,North,360,0.0,0.0,69,0.00,,---,0.00,VWS V14.01,2013-05-12 12:29:00,
2013-05-12 07:30:00,56.3,46.3,30.23,North,360,0.0,0.0,69,0.00,,---,0.00,VWS V14.01,2013-05-12 12:30:00,
2013-05-12 07:31:00,56.2,46.2,30.22,North,360,0.0,0.0,69,0.00,,---,0.00,VWS V14.01,2013-05-12 12:31:00,
2013-05-12 07:32:00,56.2,46.2,30.22,North,360,0.0,0.0,69,0.00,,---,0.00,VWS V14.01,2013-05-12 12:32:00,
2013-05-12 07:33:00,56.2,46.2,30.22,North,360,0.0,0.0,69,0.00,,---,0.00,VWS V14.01,2013-05-12 12:33:00,
2013-05-12 07:34:00,56.2,46.2,30.22,North,360,0.0,0.0,69,0.00,,---,0.00,VWS V14.01,2013-05-12 12:34:00,
2013-05-12 07:35:00,56.5,46.1,30.23,North,360,0.0,0.0,68,0.00,,---,0.00,VWS V14.01,2013-05-12 12:35:00,
2013-05-12 07:36:00,56.3,46.3,30.23,North,360,0.0,0.0,69,0.00,,---,0.00,VWS V14.01,2013-05-12 12:36:00,
2013-05-12 07:37:00,56.3,46.3,30.23,North,360,0.0,0.0,69,0.00,,---,0.00,VWS V14.01,2013-05-12 12:37:00,
2013-05-12 07:38:00,56.4,46.4,30.23,North,360,0.0,0.0,69,0.00,,---,0.00,VWS V14.01,2013-05-12 12:38:00,
2013-05-12 07:39:00,56.4,46.4,30.23,North,360,0.0,0.0,69,0.00,,---,0.00,VWS V14.01,2013-05-12 12:39:00,
2013-05-12 07:40:00,57.0,45.8,30.23,North,360,0.0,0.0,66,0.00,,---,0.00,VWS V14.01,2013-05-12 12:40:00,
2013-05-12 07:41:00,56.6,46.2,30.23,North,360,0.0,0.0,68,0.00,,---,0.00,VWS V14.01,2013-05-12 12:41:00,
2013-05-12 07:42:00,56.7,46.3,30.23,North,360,0.0,0.0,68,0.00,,---,0.00,VWS V14.01,2013-05-12 12:42:00,
2013-05-12 07:43:00,56.8,46.0,30.23,North,360,0.0,0.0,67,0.00,,---,0.00,VWS V14.01,2013-05-12 12:43:00,
2013-05-12 07:44:00,56.9,46.1,30.23,North,360,0.0,0.0,67,0.00,,---,0.00,VWS V14.01,2013-05-12 12:44:00,
2013-05-12 07:45:00,57.8,45.3,30.23,North,360,0.0,0.0,63,0.00,,---,0.00,VWS V14.01,2013-05-12 12:45:00,
2013-05-12 07:46:00,57.2,45.6,30.23,North,360,0.0,0.0,65,0.00,,---,0.00,VWS V14.01,2013-05-12 12:46:00,
2013-05-12 07:47:00,57.4,45.8,30.23,North,360,0.0,0.0,65,0.00,,---,0.00,VWS V14.01,2013-05-12 12:47:00,
2013-05-12 07:48:00,57.6,45.5,30.23,North,360,0.0,0.0,64,0.00,,---,0.00,VWS V14.01,2013-05-12 12:48:00,
2013-05-12 07:49:00,57.7,45.6,30.23,North,360,0.0,0.0,64,0.00,,---,0.00,VWS V14.01,2013-05-12 12:49:00,
2013-05-12 07:50:00,58.9,45.9,30.23,North,360,0.0,0.0,62,0.00,,---,0.00,VWS V14.01,2013-05-12 12:50:00,
2013-05-12 07:51:00,58.1,45.6,30.23,North,360,0.0,0.0,63,0.00,,---,0.00,VWS V14.01,2013-05-12 12:51:00,
2013-05-12 07:52:00,58.3,45.3,30.23,North,360,0.0,0.0,62,0.00,,---,0.00,VWS V14.01,2013-05-12 12:52:00,
2013-05-12 07:53:00,58.5,45.5,30.23,North,360,0.0,0.0,62,0.00,,---,0.00,VWS V14.01,2013-05-12 12:53:00,
2013-05-12 07:54:00,58.7,45.7,30.23,North,360,0.0,0.0,62,0.00,,---,0.00,VWS V14.01,2013-05-12 12:54:00,
2013-05-12 07:55:00,59.9,45.1,30.23,North,360,0.0,0.0,58,0.00,,---,0.00,VWS V14.01,2013-05-12 12:55:00,
2013-05-12 07:56:00,59.1,45.2,30.23,North,360,0.0,0.0,60,0.00,,---,0.00,VWS V14.01,2013-05-12 12:56:00,
2013-05-12 07:57:00,59.3,45.0,30.23,North,360,0.0,0.0,59,0.00,,---,0.00,VWS V14.01,2013-05-12 12:57:00,
2013-05-12 07:58:00,59.5,45.2,30.23,North,360,0.0,0.0,59,0.00,,---,0.00,VWS V14.01,2013-05-12 12:58:00,
2013-05-12 07:59:00,59.6,44.8,30.23,North,360,0.0,0.0,58,0.00,,---,0.00,VWS V14.01,2013-05-12 12:59:00,
2013-05-12 08:00:00,60.8,45.5,30.23,North,360,0.0,0.0,57,0.00,,---,0.00,VWS V14.01,2013-05-12 13:00:00,
2013-05-12 08:01:00,60.1,44.8,30.23,North,360,0.0,0.0,57,0.00,,---,0.00,VWS V14.01,2013-05-12 13:01:00,
2013-05-12 08:02:00,60.3,44.6,30.23,North,360,0.0,0.0,56,0.00,,---,0.00,VWS V14.01,2013-05-12 13:02:00,
2013-05-12 08:03:00,60.5,45.2,30.23,North,360,0.0,0.0,57,0.00,,---,0.00,VWS V14.01,2013-05-12 13:03:00,
2013-05-12 08:04:00,60.6,44.8,30.23,North,360,0.0,0.0,56,0.00,,---,0.00,VWS V14.01,2013-05-12 13:04:00,
2013-05-12 08:05:00,61.6,44.8,30.24,North,360,0.0,0.0,54,0.00,,---,0.00,VWS V14.01,2013-05-12 13:05:00,
2013-05-12 08:06:00,61.1,45.3,30.23,North,360,0.0,0.0,56,0.00,,---,0.00,VWS V14.01,2013-05-12 13:06:00,
2013-05-12 08:07:00,61.2,44.9,30.23,North,360,0.0,0.0,55,0.00,,---,0.00,VWS V14.01,2013-05-12 13:07:00,
2013-05-12 08:08:00,61.4,44.6,30.24,North,360,0.0,0.0,54,0.00,,---,0.00,VWS V14.01,2013-05-12 13:08:00,
2013-05-12 08:09:00,61.5,44.7,30.24,North,360,0.0,0.0,54,0.00,,---,0.00,VWS V14.01,2013-05-12 13:09:00,
2013-05-12 08:10:00,62.3,44.5,30.24,North,360,0.0,0.0,52,0.00,,---,0.00,VWS V14.01,2013-05-12 13:10:00,
2013-05-12 08:11:00,61.8,44.5,30.24,North,360,0.0,0.0,53,0.00,,---,0.00,VWS V14.01,2013-05-12 13:11:00,
2013-05-12 08:12:00,62.0,44.7,30.24,North,360,0.0,0.0,53,0.00,,---,0.00,VWS V14.01,2013-05-12 13:12:00,
2013-05-12 08:13:00,62.1,44.3,30.23,North,360,0.0,0.0,52,0.00,,---,0.00,VWS V14.01,2013-05-12 13:13:00,
2013-05-12 08:14:00,62.2,44.4,30.24,North,360,0.0,0.0,52,0.00,,---,0.00,VWS V14.01,2013-05-12 13:14:00,
2013-05-12 08:15:00,62.8,44.9,30.24,North,360,0.0,0.0,52,0.00,,---,0.00,VWS V14.01,2013-05-12 13:15:00,
2013-05-12 08:16:00,62.3,44.5,30.24,North,360,0.0,0.0,52,0.00,,---,0.00,VWS V14.01,2013-05-12 13:16:00,
2013-05-12 08:17:00,62.4,44.6,30.24,North,360,0.0,0.0,52,0.00,,---,0.00,VWS V14.01,2013-05-12 13:17:00,
2013-05-12 08:18:00,62.5,44.7,30.24,North,360,0.0,0.0,52,0.00,,---,0.00,VWS V14.01,2013-05-12 13:18:00,
2013-05-12 08:19:00,62.6,45.2,30.24,North,360,0.0,0.0,53,0.00,,---,0.00,VWS V14.01,2013-05-12 13:19:00,
2013-05-12 08:20:00,63.5,45.1,30.24,North,360,0.0,0.0,51,0.00,,---,0.00,VWS V14.01,2013-05-12 13:20:00,
2013-05-12 08:21:00,62.9,44.5,30.24,North,360,0.0,0.0,51,0.00,,---,0.00,VWS V14.01,2013-05-12 13:21:00,
2013-05-12 08:22:00,63.0,44.6,30.24,North,360,0.0,0.0,51,0.00,,---,0.00,VWS V14.01,2013-05-12 13:22:00,
2013-05-12 08:23:00,63.2,44.3,30.24,North,360,0.0,0.0,50,0.00,,---,0.00,VWS V14.01,2013-05-12 13:23:00,
2013-05-12 08:24:00,63.3,45.9,30.24,North,360,0.0,0.0,53,0.00,,---,0.00,VWS V14.01,2013-05-12 13:24:00,
2013-05-12 08:25:00,64.3,44.8,30.24,North,360,0.0,0.0,49,0.00,,---,0.00,VWS V14.01,2013-05-12 13:25:00,
2013-05-12 08:26:00,63.7,45.2,30.24,North,360,0.0,0.0,51,0.00,,---,0.00,VWS V14.01,2013-05-12 13:26:00,
2013-05-12 08:27:00,63.9,46.5,30.24,North,360,0.0,0.0,53,0.00,,---,0.00,VWS V14.01,2013-05-12 13:27:00,
2013-05-12 08:28:00,64.1,45.6,30.24,North,360,0.0,0.0,51,0.00,,---,0.00,VWS V14.01,2013-05-12 13:28:00,
2013-05-12 08:29:00,64.2,44.7,30.24,North,360,0.0,0.0,49,0.00,,---,0.00,VWS V14.01,2013-05-12 13:29:00,
2013-05-12 08:30:00,64.9,45.3,30.24,North,360,0.0,0.0,49,0.00,,---,0.00,VWS V14.01,2013-05-12 13:30:00,
2013-05-12 08:31:00,64.5,44.9,30.24,North,360,0.0,0.0,49,0.00,,---,0.00,VWS V14.01,2013-05-12 13:31:00,
2013-05-12 08:32:00,64.6,44.5,30.24,North,360,0.0,0.0,48,0.00,,---,0.00,VWS V14.01,2013-05-12 13:32:00,
2013-05-12 08:33:00,64.7,44.6,30.24,North,360,0.0,0.0,48,0.00,,---,0.00,VWS V14.01,2013-05-12 13:33:00,
2013-05-12 08:34:00,64.7,44.6,30.24,North,360,0.0,0.0,48,0.00,,---,0.00,VWS V14.01,2013-05-12 13:34:00,
2013-05-12 08:35:00,65.2,43.9,30.23,North,360,0.0,0.0,46,0.00,,---,0.00,VWS V14.01,2013-05-12 13:35:00,
2013-05-12 08:36:00,64.9,44.8,30.24,North,360,0.0,0.0,48,0.00,,---,0.00,VWS V14.01,2013-05-12 13:36:00,
2013-05-12 08:37:00,65.0,43.7,30.24,North,360,0.0,0.0,46,0.00,,---,0.00,VWS V14.01,2013-05-12 13:37:00,
2013-05-12 08:38:00,65.0,43.7,30.24,North,360,0.0,0.0,46,0.00,,---,0.00,VWS V14.01,2013-05-12 13:38:00,
2013-05-12 08:39:00,65.1,44.4,30.24,North,360,0.0,0.0,47,0.00,,---,0.00,VWS V14.01,2013-05-12 13:39:00,
2013-05-12 08:40:00,65.4,42.9,30.23,North,360,0.0,0.0,44,0.00,,---,0.00,VWS V14.01,2013-05-12 13:40:00,
2013-05-12 08:41:00,65.2,43.9,30.23,North,360,0.0,0.0,46,0.00,,---,0.00,VWS V14.01,2013-05-12 13:41:00,
2013-05-12 08:42:00,65.3,44.0,30.23,North,360,0.0,0.0,46,0.00,,---,0.00,VWS V14.01,2013-05-12 13:42:00,
2013-05-12 08:43:00,65.4,44.7,30.24,North,360,0.0,0.0,47,0.00,,---,0.00,VWS V14.01,2013-05-12 13:43:00,
2013-05-12 08:44:00,65.4,44.1,30.24,North,360,0.0,0.0,46,0.00,,---,0.00,VWS V14.01,2013-05-12 13:44:00,
2013-05-12 08:45:00,65.8,43.9,30.24,North,360,0.0,0.0,45,0.00,,---,0.00,VWS V14.01,2013-05-12 13:45:00,
2013-05-12 08:46:00,65.4,43.5,30.23,North,360,0.0,0.0,45,0.00,,---,0.00,VWS V14.01,2013-05-12 13:46:00,
2013-05-12 08:47:00,65.4,43.5,30.24,North,360,0.0,0.0,45,0.00,,---,0.00,VWS V14.01,2013-05-12 13:47:00,
2013-05-12 08:48:00,65.5,45.3,30.23,North,360,0.0,0.0,48,0.00,,---,0.00,VWS V14.01,2013-05-12 13:48:00,
2013-05-12 08:49:00,65.6,44.8,30.23,North,360,0.0,0.0,47,0.00,,---,0.00,VWS V14.01,2013-05-12 13:49:00,
2013-05-12 08:50:00,66.1,43.6,30.24,North,360,0.0,0.0,44,0.00,,---,0.00,VWS V14.01,2013-05-12 13:50:00,
2013-05-12 08:51:00,65.9,44.0,30.24,North,360,0.0,0.0,45,0.00,,---,0.00,VWS V14.01,2013-05-12 13:51:00,
2013-05-12 08:52:00,65.9,43.4,30.24,North,360,0.0,0.0,44,0.00,,---,0.00,VWS V14.01,2013-05-12 13:52:00,
2013-05-12 08:53:00,66.0,43.5,30.23,North,360,0.0,0.0,44,0.00,,---,0.00,VWS V14.01,2013-05-12 13:53:00,
2013-05-12 08:54:00,66.0,43.5,30.24,North,360,0.0,0.0,44,0.00,,---,0.00,VWS V14.01,2013-05-12 13:54:00,
2013-05-12 08:55:00,66.6,43.4,30.24,North,360,0.0,0.0,43,0.00,,---,0.00,VWS V14.01,2013-05-12 13:55:00,
2013-05-12 08:56:00,66.3,43.8,30.24,North,360,0.0,0.0,44,0.00,,---,0.00,VWS V14.01,2013-05-12 13:56:00,
2013-05-12 08:57:00,66.3,44.3,30.24,North,360,0.0,0.0,45,0.00,,---,0.00,VWS V14.01,2013-05-12 13:57:00,
2013-05-12 08:58:00,66.5,44.5,30.24,North,360,0.0,0.0,45,0.00,,---,0.00,VWS V14.01,2013-05-12 13:58:00,
2013-05-12 08:59:00,66.5,43.9,30.24,North,360,0.0,0.0,44,0.00,,---,0.00,VWS V14.01,2013-05-12 13:59:00,
2013-05-12 09:00:00,66.8,43.0,30.24,North,360,0.0,0.0,42,0.00,,---,0.00,VWS V14.01,2013-05-12 14:00:00,
2013-05-12 09:01:00,66.6,43.4,30.24,North,360,0.0,0.0,43,0.00,,---,0.00,VWS V14.01,2013-05-12 14:01:00,
2013-05-12 09:02:00,66.7,44.1,30.24,North,360,0.0,0.0,44,0.00,,---,0.00,VWS V14.01,2013-05-12 14:02:00,
2013-05-12 09:03:00,66.7,42.9,30.24,North,360,0.0,0.0,42,0.00,,---,0.00,VWS V14.01,2013-05-12 14:03:00,
2013-05-12 09:04:00,66.7,43.5,30.24,North,360,0.0,0.0,43,0.00,,---,0.00,VWS V14.01,2013-05-12 14:04:00,
2013-05-12 09:05:00,67.2,43.4,30.24,North,360,0.0,0.0,42,0.00,,---,0.00,VWS V14.01,2013-05-12 14:05:00,
2013-05-12 09:06:00,66.8,43.6,30.24,North,360,0.0,0.0,43,0.00,,---,0.00,VWS V14.01,2013-05-12 14:06:00,
2013-05-12 09:07:00,67.0,43.8,30.24,North,360,0.0,0.0,43,0.00,,---,0.00,VWS V14.01,2013-05-12 14:07:00,
2013-05-12 09:08:00,67.1,43.3,30.24,North,360,0.0,0.0,42,0.00,,---,0.00,VWS V14.01,2013-05-12 14:08:00,
2013-05-12 09:09:00,67.1,42.6,30.24,North,360,0.0,0.0,41,0.00,,---,0.00,VWS V14.01,2013-05-12 14:09:00,
2013-05-12 09:10:00,67.5,44.2,30.24,North,360,0.0,0.0,43,0.00,,---,0.00,VWS V14.01,2013-05-12 14:10:00,
2013-05-12 09:11:00,67.2,43.3,30.24,North,360,0.0,0.0,42,0.00,,---,0.00,VWS V14.01,2013-05-12 14:11:00,
2013-05-12 09:12:00,67.2,43.3,30.24,North,360,0.0,0.0,42,0.00,,---,0.00,VWS V14.01,2013-05-12 14:12:00,
2013-05-12 09:13:00,67.3,42.8,30.24,North,360,0.0,0.0,41,0.00,,---,0.00,VWS V14.01,2013-05-12 14:13:00,
2013-05-12 09:14:00,67.4,43.5,30.24,North,360,0.0,0.0,42,0.00,,---,0.00,VWS V14.01,2013-05-12 14:14:00,
2013-05-12 09:15:00,67.9,42.1,30.24,North,360,0.0,0.0,39,0.00,,---,0.00,VWS V14.01,2013-05-12 14:15:00,
2013-05-12 09:16:00,67.6,44.3,30.24,North,360,0.0,0.0,43,0.00,,---,0.00,VWS V14.01,2013-05-12 14:16:00,
2013-05-12 09:17:00,67.7,41.9,30.24,North,360,0.0,0.0,39,0.00,,---,0.00,VWS V14.01,2013-05-12 14:17:00,
2013-05-12 09:18:00,67.8,42.6,30.24,North,360,0.0,0.0,40,0.00,,---,0.00,VWS V14.01,2013-05-12 14:18:00,
2013-05-12 09:19:00,67.9,42.1,30.24,North,360,0.0,0.0,39,0.00,,---,0.00,VWS V14.01,2013-05-12 14:19:00,
2013-05-12 09:20:00,68.0,41.5,30.24,North,360,0.0,0.0,38,0.00,,---,0.00,VWS V14.01,2013-05-12 14:20:00,
2013-05-12 09:21:00,67.9,42.1,30.24,North,360,0.0,0.0,39,0.00,,---,0.00,VWS V14.01,2013-05-12 14:21:00,
2013-05-12 09:22:00,67.9,42.7,30.24,North,360,0.0,0.0,40,0.00,,---,0.00,VWS V14.01,2013-05-12 14:22:00,
2013-05-12 09:23:00,67.9,42.7,30.24,North,360,0.0,0.0,40,0.00,,---,0.00,VWS V14.01,2013-05-12 14:23:00,
2013-05-12 09:24:00,68.0,42.2,30.24,North,360,0.0,0.0,39,0.00,,---,0.00,VWS V14.01,2013-05-12 14:24:00,
2013-05-12 09:25:00,68.2,41.7,30.24,North,360,0.0,0.0,38,0.00,,---,0.00,VWS V14.01,2013-05-12 14:25:00,
2013-05-12 09:26:00,68.1,41.6,30.24,North,360,0.0,0.0,38,0.00,,---,0.00,VWS V14.01,2013-05-12 14:26:00,
2013-05-12 09:27:00,68.1,41.6,30.24,North,360,0.0,0.0,38,0.00,,---,0.00,VWS V14.01,2013-05-12 14:27:00,
2013-05-12 09:28:00,68.1,40.9,30.24,North,360,0.0,0.0,37,0.00,,---,0.00,VWS V14.01,2013-05-12 14:28:00,
2013-05-12 09:29:00,68.2,41.7,30.24,North,360,0.0,0.0,38,0.00,,---,0.00,VWS V14.01,2013-05-12 14:29:00,
2013-05-12 09:30:00,68.6,42.0,30.24,North,360,0.0,0.0,38,0.00,,---,0.00,VWS V14.01,2013-05-12 14:30:00,
2013-05-12 09:31:00,68.2,41.7,30.24,North,360,0.0,0.0,38,0.00,,---,0.00,VWS V14.01,2013-05-12 14:31:00,
2013-05-12 09:32:00,68.3,41.7,30.24,North,360,0.0,0.0,38,0.00,,---,0.00,VWS V14.01,2013-05-12 14:32:00,
2013-05-12 09:33:00,68.4,41.8,30.24,North,360,0.0,0.0,38,0.00,,---,0.00,VWS V14.01,2013-05-12 14:33:00,
2013-05-12 09:34:00,68.5,41.9,30.24,North,360,0.0,0.0,38,0.00,,---,0.00,VWS V14.01,2013-05-12 14:34:00,
2013-05-12 09:35:00,69.0,40.2,30.24,North,360,0.0,0.0,35,0.00,,---,0.00,VWS V14.01,2013-05-12 14:35:00,
2013-05-12 09:36:00,68.6,41.3,30.24,North,360,0.0,0.0,37,0.00,,---,0.00,VWS V14.01,2013-05-12 14:36:00,
2013-05-12 09:37:00,68.6,41.3,30.24,North,360,0.0,0.0,37,0.00,,---,0.00,VWS V14.01,2013-05-12 14:37:00,
2013-05-12 09:38:00,68.7,42.1,30.24,North,360,0.0,0.0,38,0.00,,---,0.00,VWS V14.01,2013-05-12 14:38:00,
2013-05-12 09:39:00,68.9,41.6,30.24,North,360,0.0,0.0,37,0.00,,---,0.00,VWS V14.01,2013-05-12 14:39:00,
2013-05-12 09:40:00,69.1,40.3,30.24,North,360,0.0,0.0,35,0.00,,---,0.00,VWS V14.01,2013-05-12 14:40:00,
2013-05-12 09:41:00,69.0,40.2,30.24,North,360,0.0,0.0,35,0.00,,---,0.00,VWS V14.01,2013-05-12 14:41:00,
2013-05-12 09:42:00,69.1,40.3,30.24,North,360,0.0,0.0,35,0.00,,---,0.00,VWS V14.01,2013-05-12 14:42:00,
2013-05-12 09:43:00,69.1,40.3,30.24,North,360,0.0,0.0,35,0.00,,---,0.00,VWS V14.01,2013-05-12 14:43:00,
2013-05-12 09:44:00,69.1,40.3,30.24,North,360,0.0,0.0,35,0.00,,---,0.00,VWS V14.01,2013-05-12 14:44:00,
2013-05-12 09:45:00,69.1,40.3,30.24,North,360,0.0,0.0,35,0.00,,---,0.00,VWS V14.01,2013-05-12 14:45:00,
2013-05-12 09:46:00,69.1,40.3,30.24,North,360,0.0,0.0,35,0.00,,---,0.00,VWS V14.01,2013-05-12 14:46:00,
2013-05-12 09:47:00,69.1,41.0,30.24,North,360,0.0,0.0,36,0.00,,---,0.00,VWS V14.01,2013-05-12 14:47:00,
2013-05-12 09:48:00,69.1,40.3,30.24,North,360,0.0,0.0,35,0.00,,---,0.00,VWS V14.01,2013-05-12 14:48:00,
2013-05-12 09:49:00,69.1,39.6,30.24,North,360,0.0,0.0,34,0.00,,---,0.00,VWS V14.01,2013-05-12 14:49:00,
2013-05-12 09:50:00,69.2,39.7,30.24,North,360,0.0,0.0,34,0.00,,---,0.00,VWS V14.01,2013-05-12 14:50:00,
2013-05-12 09:51:00,69.1,40.3,30.24,North,360,0.0,0.0,35,0.00,,---,0.00,VWS V14.01,2013-05-12 14:51:00,
2013-05-12 09:52:00,69.2,40.4,30.24,North,360,0.0,0.0,35,0.00,,---,0.00,VWS V14.01,2013-05-12 14:52:00,
2013-05-12 09:53:00,69.2,40.4,30.24,North,360,0.0,0.0,35,0.00,,---,0.00,VWS V14.01,2013-05-12 14:53:00,
2013-05-12 09:54:00,69.2,39.7,30.24,North,360,0.0,0.0,34,0.00,,---,0.00,VWS V14.01,2013-05-12 14:54:00,
2013-05-12 09:55:00,69.6,40.0,30.24,North,360,0.0,0.0,34,0.00,,---,0.00,VWS V14.01,2013-05-12 14:55:00,
2013-05-12 09:56:00,69.2,39.7,30.24,North,360,0.0,0.0,34,0.00,,---,0.00,VWS V14.01,2013-05-12 14:56:00,
2013-05-12 09:57:00,69.3,39.8,30.24,North,360,0.0,0.0,34,0.00,,---,0.00,VWS V14.01,2013-05-12 14:57:00,
2013-05-12 09:58:00,69.3,40.5,30.24,North,360,0.0,0.0,35,0.00,,---,0.00,VWS V14.01,2013-05-12 14:58:00,
2013-05-12 09:59:00,69.4,40.6,30.24,North,360,0.0,0.0,35,0.00,,---,0.00,VWS V14.01,2013-05-12 14:59:00,
2013-05-12 10:00:00,69.8,39.4,30.24,North,360,0.0,0.0,33,0.00,,---,0.00,VWS V14.01,2013-05-12 15:00:00,
2013-05-12 10:01:00,69.6,40.0,30.24,North,360,0.0,0.0,34,0.00,,---,0.00,VWS V14.01,2013-05-12 15:01:00,
2013-05-12 10:02:00,69.7,39.3,30.24,North,360,0.0,0.0,33,0.00,,---,0.00,VWS V14.01,2013-05-12 15:02:00,
2013-05-12 10:03:00,69.7,40.1,30.24,North,360,0.0,0.0,34,0.00,,---,0.00,VWS V14.01,2013-05-12 15:03:00,
2013-05-12 10:04:00,69.7,38.5,30.24,North,360,0.0,0.0,32,0.00,,---,0.00,VWS V14.01,2013-05-12 15:04:00,
2013-05-12 10:05:00,70.0,40.4,30.23,North,360,0.0,0.0,34,0.00,,---,0.00,VWS V14.01,2013-05-12 15:05:00,
2013-05-12 10:06:00,69.8,39.4,30.24,North,360,0.0,0.0,33,0.00,,---,0.00,VWS V14.01,2013-05-12 15:06:00,
2013-05-12 10:07:00,69.8,40.2,30.24,North,360,0.0,0.0,34,0.00,,---,0.00,VWS V14.01,2013-05-12 15:07:00,
2013-05-12 10:08:00,69.9,40.3,30.24,North,360,0.0,0.0,34,0.00,,---,0.00,VWS V14.01,2013-05-12 15:08:00,
2013-05-12 10:09:00,70.0,39.6,30.24,North,360,0.0,0.0,33,0.00,,---,0.00,VWS V14.01,2013-05-12 15:09:00,
2013-05-12 10:10:00,70.0,40.4,30.23,North,360,0.0,0.0,34,0.00,,---,0.00,VWS V14.01,2013-05-12 15:10:00,
2013-05-12 10:11:00,70.1,39.7,30.24,North,360,0.0,0.0,33,0.00,,---,0.00,VWS V14.01,2013-05-12 15:11:00,
2013-05-12 10:12:00,70.0,39.6,30.24,North,360,0.0,0.0,33,0.00,,---,0.00,VWS V14.01,2013-05-12 15:12:00,
2013-05-12 10:13:00,70.0,39.6,30.23,North,360,0.0,0.0,33,0.00,,---,0.00,VWS V14.01,2013-05-12 15:13:00,
2013-05-12 10:14:00,70.1,39.7,30.24,North,360,0.0,0.0,33,0.00,,---,0.00,VWS V14.01,2013-05-12 15:14:00,
2013-05-12 10:15:00,70.1,39.7,30.23,North,360,0.0,0.0,33,0.00,,---,0.00,VWS V14.01,2013-05-12 15:15:00,
2013-05-12 10:16:00,70.0,38.8,30.24,North,360,0.0,0.0,32,0.00,,---,0.00,VWS V14.01,2013-05-12 15:16:00,
2013-05-12 10:17:00,70.1,38.9,30.24,North,360,0.0,0.0,32,0.00,,---,0.00,VWS V14.01,2013-05-12 15:17:00,
2013-05-12 10:18:00,70.1,39.7,30.24,North,360,0.0,0.0,33,0.00,,---,0.00,VWS V14.01,2013-05-12 15:18:00,
2013-05-12 10:19:00,70.1,38.9,30.24,North,360,0.0,0.0,32,0.00,,---,0.00,VWS V14.01,2013-05-12 15:19:00,
2013-05-12 10:20:00,70.0,38.0,30.24,North,360,0.0,0.0,31,0.00,,---,0.00,VWS V14.01,2013-05-12 15:20:00,
2013-05-12 10:21:00,69.7,36.9,30.24,North,360,0.0,0.0,30,0.00,,---,0.00,VWS V14.01,2013-05-12 15:21:00,
2013-05-12 10:22:00,69.9,37.9,30.24,North,360,0.0,0.0,31,0.00,,---,0.00,VWS V14.01,2013-05-12 15:22:00,
2013-05-12 10:23:00,69.9,37.1,30.24,North,360,0.0,0.0,30,0.00,,---,0.00,VWS V14.01,2013-05-12 15:23:00,
2013-05-12 10:24:00,69.8,37.8,30.24,North,360,0.0,0.0,31,0.00,,---,0.00,VWS V14.01,2013-05-12 15:24:00,
2013-05-12 10:25:00,69.7,37.7,30.24,North,360,0.0,0.0,31,0.00,,---,0.00,VWS V14.01,2013-05-12 15:25:00,
2013-05-12 10:26:00,69.5,36.7,30.24,North,360,0.0,0.0,30,0.00,,---,0.00,VWS V14.01,2013-05-12 15:26:00,
2013-05-12 10:27:00,69.7,37.7,30.24,North,360,0.0,0.0,31,0.00,,---,0.00,VWS V14.01,2013-05-12 15:27:00,
2013-05-12 10:28:00,69.6,36.8,30.24,North,360,0.0,0.0,30,0.00,,---,0.00,VWS V14.01,2013-05-12 15:28:00,
2013-05-12 10:29:00,69.5,36.7,30.24,North,360,0.0,0.0,30,0.00,,---,0.00,VWS V14.01,2013-05-12 15:29:00,
2013-05-12 10:30:00,69.5,36.7,30.24,North,360,0.0,0.0,30,0.00,,---,0.00,VWS V14.01,2013-05-12 15:30:00,
2013-05-12 10:31:00,69.9,38.7,30.24,North,360,0.0,0.0,32,0.00,,---,0.00,VWS V14.01,2013-05-12 15:31:00,
2013-05-12 10:32:00,69.6,36.8,30.24,North,360,0.0,0.0,30,0.00,,---,0.00,VWS V14.01,2013-05-12 15:32:00,
2013-05-12 10:33:00,69.6,37.7,30.24,North,360,0.0,0.0,31,0.00,,---,0.00,VWS V14.01,2013-05-12 15:33:00,
2013-05-12 10:34:00,69.7,38.5,30.24,North,360,0.0,0.0,32,0.00,,---,0.00,VWS V14.01,2013-05-12 15:34:00,
2013-05-12 10:35:00,69.8,37.8,30.24,North,360,0.0,0.0,31,0.00,,---,0.00,VWS V14.01,2013-05-12 15:35:00,
2013-05-12 10:36:00,70.6,40.1,30.25,North,360,0.0,0.0,33,0.00,,---,0.00,VWS V14.01,2013-05-12 15:36:00,
2013-05-12 10:37:00,70.1,38.9,30.24,North,360,0.0,0.0,32,0.00,,---,0.00,VWS V14.01,2013-05-12 15:37:00,
2013-05-12 10:38:00,70.2,39.8,30.25,North,360,0.0,0.0,33,0.00,,---,0.00,VWS V14.01,2013-05-12 15:38:00,
2013-05-12 10:39:00,70.4,40.0,30.25,North,360,0.0,0.0,33,0.00,,---,0.00,VWS V14.01,2013-05-12 15:39:00,
2013-05-12 10:40:00,70.5,40.8,30.24,North,360,0.0,0.0,34,0.00,,---,0.00,VWS V14.01,2013-05-12 15:40:00,
2013-05-12 10:41:00,71.1,39.8,30.25,North,360,0.0,0.0,32,0.00,,---,0.00,VWS V14.01,2013-05-12 15:41:00,
2013-05-12 10:42:00,70.8,39.5,30.25,North,360,0.0,0.0,32,0.00,,---,0.00,VWS V14.01,2013-05-12 15:42:00,
2013-05-12 10:43:00,70.9,39.6,30.25,North,360,0.0,0.0,32,0.00,,---,0.00,VWS V14.01,2013-05-12 15:43:00,
2013-05-12 10:44:00,71.0,39.7,30.25,North,360,0.0,0.0,32,0.00,,---,0.00,VWS V14.01,2013-05-12 15:44:00,
2013-05-12 10:45:00,71.1,39.0,30.25,North,360,0.0,0.0,31,0.00,,---,0.00,VWS V14.01,2013-05-12 15:45:00,
2013-05-12 10:46:00,71.4,41.6,30.25,North,360,0.0,0.0,34,0.00,,---,0.00,VWS V14.01,2013-05-12 15:46:00,
2013-05-12 10:47:00,71.2,39.0,30.25,North,360,0.0,0.0,31,0.00,,---,0.00,VWS V14.01,2013-05-12 15:47:00,
2013-05-12 10:48:00,71.2,40.7,30.25,North,360,0.0,0.0,33,0.00,,---,0.00,VWS V14.01,2013-05-12 15:48:00,
2013-05-12 10:49:00,71.3,41.5,30.25,North,360,0.0,0.0,34,0.00,,---,0.00,VWS V14.01,2013-05-12 15:49:00,
2013-05-12 10:50:00,71.3,39.1,30.25,North,360,0.0,0.0,31,0.00,,---,0.00,VWS V14.01,2013-05-12 15:50:00,
2013-05-12 10:51:00,71.6,41.0,30.25,North,360,0.0,0.0,33,0.00,,---,0.00,VWS V14.01,2013-05-12 15:51:00,
2013-05-12 10:52:00,71.5,40.1,30.25,North,360,0.0,0.0,32,0.00,,---,0.00,VWS V14.01,2013-05-12 15:52:00,
2013-05-12 10:53:00,71.5,40.9,30.25,North,360,0.0,0.0,33,0.00,,---,0.00,VWS V14.01,2013-05-12 15:53:00,
2013-05-12 10:54:00,71.5,40.9,30.25,North,360,0.0,0.0,33,0.00,,---,0.00,VWS V14.01,2013-05-12 15:54:00,
2013-05-12 10:55:00,71.6,41.0,30.24,North,360,0.0,0.0,33,0.00,,---,0.00,VWS V14.01,2013-05-12 15:55:00,
2013-05-12 10:56:00,71.9,39.7,30.25,North,360,0.0,0.0,31,0.00,,---,0.00,VWS V14.01,2013-05-12 15:56:00,
2013-05-12 10:57:00,71.7,40.3,30.24,North,360,0.0,0.0,32,0.00,,---,0.00,VWS V14.01,2013-05-12 15:57:00,
2013-05-12 10:58:00,71.7,41.1,30.24,North,360,0.0,0.0,33,0.00,,---,0.00,VWS V14.01,2013-05-12 15:58:00,
2013-05-12 10:59:00,71.8,39.6,30.24,North,360,0.0,0.0,31,0.00,,---,0.00,VWS V14.01,2013-05-12 15:59:00,
2013-05-12 11:00:00,71.9,40.5,30.25,North,360,0.0,0.0,32,0.00,,---,0.00,VWS V14.01,2013-05-12 16:00:00,
2013-05-12 11:01:00,72.2,39.9,30.25,North,360,0.0,0.0,31,0.00,,---,0.00,VWS V14.01,2013-05-12 16:01:00,
2013-05-12 11:02:00,71.9,38.0,30.25,North,360,0.0,0.0,29,0.00,,---,0.00,VWS V14.01,2013-05-12 16:02:00,
2013-05-12 11:03:00,72.0,38.9,30.25,North,360,0.0,0.0,30,0.00,,---,0.00,VWS V14.01,2013-05-12 16:03:00,
2013-05-12 11:04:00,72.0,39.7,30.25,North,360,0.0,0.0,31,0.00,,---,0.00,VWS V14.01,2013-05-12 16:04:00,
2013-05-12 11:05:00,72.1,39.8,30.25,North,360,0.0,0.0,31,0.00,,---,0.00,VWS V14.01,2013-05-12 16:05:00,
2013-05-12 11:06:00,72.7,38.6,30.25,North,360,0.0,0.0,29,0.00,,---,0.00,VWS V14.01,2013-05-12 16:06:00,
2013-05-12 11:07:00,72.2,38.2,30.25,North,360,0.0,0.0,29,0.00,,---,0.00,VWS V14.01,2013-05-12 16:07:00,
2013-05-12 11:08:00,72.3,39.2,30.25,North,360,0.0,0.0,30,0.00,,---,0.00,VWS V14.01,2013-05-12 16:08:00,
2013-05-12 11:09:00,72.5,40.2,30.25,North,360,0.0,0.0,31,0.00,,---,0.00,VWS V14.01,2013-05-12 16:09:00,
2013-05-12 11:10:00,72.6,40.3,30.25,North,360,0.0,0.0,31,0.00,,---,0.00,VWS V14.01,2013-05-12 16:10:00,
2013-05-12 11:11:00,73.1,37.2,30.25,North,360,0.0,0.0,27,0.00,,---,0.00,VWS V14.01,2013-05-12 16:11:00,
2013-05-12 11:12:00,72.8,39.6,30.25,North,360,0.0,0.0,30,0.00,,---,0.00,VWS V14.01,2013-05-12 16:12:00,
2013-05-12 11:13:00,73.0,41.4,30.25,North,360,0.0,0.0,32,0.00,,---,0.00,VWS V14.01,2013-05-12 16:13:00,
2013-05-12 11:14:00,73.0,38.0,30.25,North,360,0.0,0.0,28,0.00,,---,0.00,VWS V14.01,2013-05-12 16:14:00,
2013-05-12 11:15:00,73.1,37.2,30.25,North,360,0.0,0.0,27,0.00,,---,0.00,VWS V14.01,2013-05-12 16:15:00,
2013-05-12 11:16:00,72.9,38.8,30.25,North,360,0.0,0.0,29,0.00,,---,0.00,VWS V14.01,2013-05-12 16:16:00,
2013-05-12 11:17:00,73.0,38.0,30.24,North,360,0.0,0.0,28,0.00,,---,0.00,VWS V14.01,2013-05-12 16:17:00,
2013-05-12 11:18:00,73.0,38.0,30.25,North,360,0.0,0.0,28,0.00,,---,0.00,VWS V14.01,2013-05-12 16:18:00,
2013-05-12 11:19:00,73.0,38.9,30.25,North,360,0.0,0.0,29,0.00,,---,0.00,VWS V14.01,2013-05-12 16:19:00,
2013-05-12 11:20:00,73.0,38.9,30.25,North,360,0.0,0.0,29,0.00,,---,0.00,VWS V14.01,2013-05-12 16:20:00,
2013-05-12 11:21:00,73.0,38.9,30.24,North,360,0.0,0.0,29,0.00,,---,0.00,VWS V14.01,2013-05-12 16:21:00,
2013-05-12 11:22:00,73.0,38.9,30.25,North,360,0.0,0.0,29,0.00,,---,0.00,VWS V14.01,2013-05-12 16:22:00,
2013-05-12 11:23:00,73.0,38.0,30.25,North,360,0.0,0.0,28,0.00,,---,0.00,VWS V14.01,2013-05-12 16:23:00,
2013-05-12 11:24:00,73.0,39.8,30.24,North,360,0.0,0.0,30,0.00,,---,0.00,VWS V14.01,2013-05-12 16:24:00,
2013-05-12 11:25:00,73.0,39.8,30.24,North,360,0.0,0.0,30,0.00,,---,0.00,VWS V14.01,2013-05-12 16:25:00,
2013-05-12 11:26:00,73.0,40.6,30.24,North,360,0.0,0.0,31,0.00,,---,0.00,VWS V14.01,2013-05-12 16:26:00,
2013-05-12 11:27:00,73.0,38.9,30.25,North,360,0.0,0.0,29,0.00,,---,0.00,VWS V14.01,2013-05-12 16:27:00,
2013-05-12 11:28:00,73.0,38.0,30.25,North,360,0.0,0.0,28,0.00,,---,0.00,VWS V14.01,2013-05-12 16:28:00,
2013-05-12 11:29:00,73.0,38.0,30.25,North,360,0.0,0.0,28,0.00,,---,0.00,VWS V14.01,2013-05-12 16:29:00,
2013-05-12 11:30:00,73.0,40.6,30.24,North,360,0.0,0.0,31,0.00,,---,0.00,VWS V14.01,2013-05-12 16:30:00,
2013-05-12 11:31:00,73.2,38.2,30.25,North,360,0.0,0.0,28,0.00,,---,0.00,VWS V14.01,2013-05-12 16:31:00,
2013-05-12 11:32:00,73.1,39.0,30.24,North,360,0.0,0.0,29,0.00,,---,0.00,VWS V14.01,2013-05-12 16:32:00,
2013-05-12 11:33:00,73.1,38.1,30.24,North,360,0.0,0.0,28,0.00,,---,0.00,VWS V14.01,2013-05-12 16:33:00,
2013-05-12 11:35:00,73.1,38.1,30.25,North,360,0.0,0.0,28,0.00,,---,0.00,VWS V14.01,2013-05-12 16:35:00,
2013-05-12 11:36:00,73.7,38.6,30.25,North,360,0.0,0.0,28,0.00,,---,0.00,VWS V14.01,2013-05-12 16:36:00,
2013-05-12 11:37:00,73.2,39.1,30.25,North,360,0.0,0.0,29,0.00,,---,0.00,VWS V14.01,2013-05-12 16:37:00,
2013-05-12 11:38:00,73.3,40.9,30.25,North,360,0.0,0.0,31,0.00,,---,0.00,VWS V14.01,2013-05-12 16:38:00,
2013-05-12 11:39:00,73.4,40.1,30.25,North,360,0.0,0.0,30,0.00,,---,0.00,VWS V14.01,2013-05-12 16:39:00,
2013-05-12 11:40:00,73.5,41.0,30.25,North,360,0.0,0.0,31,0.00,,---,0.00,VWS V14.01,2013-05-12 16:40:00,
2013-05-12 11:41:00,74.0,41.5,30.25,North,360,0.0,0.0,31,0.00,,---,0.00,VWS V14.01,2013-05-12 16:41:00,
2013-05-12 11:42:00,73.8,38.7,30.25,North,360,0.0,0.0,28,0.00,,---,0.00,VWS V14.01,2013-05-12 16:42:00,
2013-05-12 11:43:00,73.8,37.8,30.24,North,360,0.0,0.0,27,0.00,,---,0.00,VWS V14.01,2013-05-12 16:43:00,
2013-05-12 11:44:00,73.9,40.5,30.25,North,360,0.0,0.0,30,0.00,,---,0.00,VWS V14.01,2013-05-12 16:44:00,
2013-05-12 11:45:00,73.9,40.5,30.25,North,360,0.0,0.0,30,0.00,,---,0.00,VWS V14.01,2013-05-12 16:45:00,
2013-05-12 11:46:00,74.4,39.2,30.24,North,360,0.0,0.0,28,0.00,,---,0.00,VWS V14.01,2013-05-12 16:46:00,
2013-05-12 11:47:00,74.2,39.9,30.25,North,360,0.0,0.0,29,0.00,,---,0.00,VWS V14.01,2013-05-12 16:47:00,
2013-05-12 11:48:00,74.3,40.9,30.25,North,360,0.0,0.0,30,0.00,,---,0.00,VWS V14.01,2013-05-12 16:48:00,
2013-05-12 11:49:00,74.3,40.9,30.24,North,360,0.0,0.0,30,0.00,,---,0.00,VWS V14.01,2013-05-12 16:49:00,
2013-05-12 11:50:00,74.4,39.2,30.25,North,360,0.0,0.0,28,0.00,,---,0.00,VWS V14.01,2013-05-12 16:50:00,
2013-05-12 11:51:00,73.9,36.9,30.25,North,360,0.0,0.0,26,0.00,,---,0.00,VWS V14.01,2013-05-12 16:51:00,
2013-05-12 11:52:00,74.4,38.3,30.24,North,360,0.0,0.0,27,0.00,,---,0.00,VWS V14.01,2013-05-12 16:52:00,
2013-05-12 11:53:00,74.3,38.2,30.24,North,360,0.0,0.0,27,0.00,,---,0.00,VWS V14.01,2013-05-12 16:53:00,
2013-05-12 11:54:00,74.2,37.1,30.25,North,360,0.0,0.0,26,0.00,,---,0.00,VWS V14.01,2013-05-12 16:54:00,
2013-05-12 11:55:00,74.0,37.9,30.25,North,360,0.0,0.0,27,0.00,,---,0.00,VWS V14.01,2013-05-12 16:55:00,
2013-05-12 11:56:00,74.0,39.8,30.24,North,360,0.0,0.0,29,0.00,,---,0.00,VWS V14.01,2013-05-12 16:56:00,
2013-05-12 11:57:00,73.8,39.6,30.24,North,360,0.0,0.0,29,0.00,,---,0.00,VWS V14.01,2013-05-12 16:57:00,
2013-05-12 11:58:00,73.8,42.9,30.24,North,360,0.0,0.0,33,0.00,,---,0.00,VWS V14.01,2013-05-12 16:58:00,
2013-05-12 11:59:00,73.9,41.4,30.24,North,360,0.0,0.0,31,0.00,,---,0.00,VWS V14.01,2013-05-12 16:59:00,
2013-05-12 12:00:00,73.9,41.4,30.25,North,360,0.0,0.0,31,0.00,,---,0.00,VWS V14.01,2013-05-12 17:00:00,
2013-05-12 12:01:00,74.6,38.5,30.25,North,360,0.0,0.0,27,0.00,,---,0.00,VWS V14.01,2013-05-12 17:01:00,
2013-05-12 12:02:00,74.2,39.0,30.25,North,360,0.0,0.0,28,0.00,,---,0.00,VWS V14.01,2013-05-12 17:02:00,
2013-05-12 12:03:00,74.3,39.1,30.25,North,360,0.0,0.0,28,0.00,,---,0.00,VWS V14.01,2013-05-12 17:03:00,
2013-05-12 12:04:00,74.4,40.1,30.25,North,360,0.0,0.0,29,0.00,,---,0.00,VWS V14.01,2013-05-12 17:04:00,
2013-05-12 12:05:00,74.5,38.4,30.25,North,360,0.0,0.0,27,0.00,,---,0.00,VWS V14.01,2013-05-12 17:05:00,
2013-05-12 12:06:00,75.0,39.7,30.25,North,360,0.0,0.0,28,0.00,,---,0.00,VWS V14.01,2013-05-12 17:06:00,
2013-05-12 12:07:00,74.7,40.4,30.25,North,360,0.0,0.0,29,0.00,,---,0.00,VWS V14.01,2013-05-12 17:07:00,
2013-05-12 12:08:00,74.8,42.2,30.25,North,360,0.0,0.0,31,0.00,,---,0.00,VWS V14.01,2013-05-12 17:08:00,
2013-05-12 12:09:00,74.9,40.5,30.25,North,360,0.0,0.0,29,0.00,,---,0.00,VWS V14.01,2013-05-12 17:09:00,
2013-05-12 12:10:00,74.9,40.5,30.25,North,360,0.0,0.0,29,0.00,,---,0.00,VWS V14.01,2013-05-12 17:10:00,
2013-05-12 12:11:00,74.9,38.7,30.24,North,360,0.0,0.0,27,0.00,,---,0.00,VWS V14.01,2013-05-12 17:11:00,
2013-05-12 12:12:00,75.0,38.8,30.25,North,360,0.0,0.0,27,0.00,,---,0.00,VWS V14.01,2013-05-12 17:12:00,
2013-05-12 12:13:00,75.0,37.8,30.25,North,360,0.0,0.0,26,0.00,,---,0.00,VWS V14.01,2013-05-12 17:13:00,
2013-05-12 12:14:00,75.0,38.8,30.24,North,360,0.0,0.0,27,0.00,,---,0.00,VWS V14.01,2013-05-12 17:14:00,
2013-05-12 12:15:00,74.9,39.6,30.24,North,360,0.0,0.0,28,0.00,,---,0.00,VWS V14.01,2013-05-12 17:15:00,
2013-05-12 12:16:00,74.9,40.5,30.24,North,360,0.0,0.0,29,0.00,,---,0.00,VWS V14.01,2013-05-12 17:16:00,
2013-05-12 12:17:00,74.9,40.5,30.24,North,360,0.0,0.0,29,0.00,,---,0.00,VWS V14.01,2013-05-12 17:17:00,
2013-05-12 12:18:00,74.9,40.5,30.24,North,360,0.0,0.0,29,0.00,,---,0.00,VWS V14.01,2013-05-12 17:18:00,
2013-05-12 12:19:00,74.9,40.5,30.24,North,360,0.0,0.0,29,0.00,,---,0.00,VWS V14.01,2013-05-12 17:19:00,
2013-05-12 12:20:00,74.9,39.6,30.24,North,360,0.0,0.0,28,0.00,,---,0.00,VWS V14.01,2013-05-12 17:20:00,
2013-05-12 12:21:00,75.2,41.7,30.24,North,360,0.0,0.0,30,0.00,,---,0.00,VWS V14.01,2013-05-12 17:21:00,
2013-05-12 12:22:00,74.9,41.4,30.24,North,360,0.0,0.0,30,0.00,,---,0.00,VWS V14.01,2013-05-12 17:22:00,
2013-05-12 12:23:00,75.0,41.5,30.24,North,360,0.0,0.0,30,0.00,,---,0.00,VWS V14.01,2013-05-12 17:23:00,
2013-05-12 12:24:00,75.1,41.6,30.24,North,360,0.0,0.0,30,0.00,,---,0.00,VWS V14.01,2013-05-12 17:24:00,
2013-05-12 12:25:00,75.1,40.7,30.24,North,360,0.0,0.0,29,0.00,,---,0.00,VWS V14.01,2013-05-12 17:25:00,
2013-05-12 12:26:00,75.5,41.0,30.24,North,360,0.0,0.0,29,0.00,,---,0.00,VWS V14.01,2013-05-12 17:26:00,
2013-05-12 12:27:00,75.3,44.2,30.24,North,360,0.0,0.0,33,0.00,,---,0.00,VWS V14.01,2013-05-12 17:27:00,
2013-05-12 12:28:00,75.3,42.6,30.24,North,360,0.0,0.0,31,0.00,,---,0.00,VWS V14.01,2013-05-12 17:28:00,
2013-05-12 12:29:00,75.4,41.0,30.24,North,360,0.0,0.0,29,0.00,,---,0.00,VWS V14.01,2013-05-12 17:29:00,
2013-05-12 12:30:00,75.5,41.0,30.24,North,360,0.0,0.0,29,0.00,,---,0.00,VWS V14.01,2013-05-12 17:30:00,
2013-05-12 12:31:00,75.6,39.3,30.23,North,360,0.0,0.0,27,0.00,,---,0.00,VWS V14.01,2013-05-12 17:31:00,
2013-05-12 12:32:00,75.5,40.2,30.24,North,360,0.0,0.0,28,0.00,,---,0.00,VWS V14.01,2013-05-12 17:32:00,
2013-05-12 12:33:00,75.6,41.1,30.23,North,360,0.0,0.0,29,0.00,,---,0.00,VWS V14.01,2013-05-12 17:33:00,
2013-05-12 12:34:00,75.5,41.0,30.23,North,360,0.0,0.0,29,0.00,,---,0.00,VWS V14.01,2013-05-12 17:34:00,
2013-05-12 12:35:00,75.6,42.0,30.23,North,360,0.0,0.0,30,0.00,,---,0.00,VWS V14.01,2013-05-12 17:35:00,
2013-05-12 12:36:00,75.7,37.4,30.23,North,360,0.0,0.0,25,0.00,,---,0.00,VWS V14.01,2013-05-12 17:36:00,
2013-05-12 12:37:00,75.6,39.3,30.23,North,360,0.0,0.0,27,0.00,,---,0.00,VWS V14.01,2013-05-12 17:37:00,
2013-05-12 12:38:00,75.6,39.3,30.23,North,360,0.0,0.0,27,0.00,,---,0.00,VWS V14.01,2013-05-12 17:38:00,
2013-05-12 12:39:00,75.6,40.2,30.23,North,360,0.0,0.0,28,0.00,,---,0.00,VWS V14.01,2013-05-12 17:39:00,
2013-05-12 12:40:00,75.6,39.3,30.23,North,360,0.0,0.0,27,0.00,,---,0.00,VWS V14.01,2013-05-12 17:40:00,
2013-05-12 12:41:00,75.7,42.1,30.24,North,360,0.0,0.0,30,0.00,,---,0.00,VWS V14.01,2013-05-12 17:41:00,
2013-05-12 12:42:00,75.6,37.3,30.23,North,360,0.0,0.0,25,0.00,,---,0.00,VWS V14.01,2013-05-12 17:42:00,
2013-05-12 12:43:00,75.6,39.3,30.23,North,360,0.0,0.0,27,0.00,,---,0.00,VWS V14.01,2013-05-12 17:43:00,
2013-05-12 12:44:00,75.6,42.0,30.24,North,360,0.0,0.0,30,0.00,,---,0.00,VWS V14.01,2013-05-12 17:44:00,
2013-05-12 12:45:00,75.6,41.1,30.23,North,360,0.0,0.0,29,0.00,,---,0.00,VWS V14.01,2013-05-12 17:45:00,
2013-05-12 12:46:00,75.9,39.6,30.23,North,360,0.0,0.0,27,0.00,,---,0.00,VWS V14.01,2013-05-12 17:46:00,
2013-05-12 12:47:00,75.7,40.3,30.24,North,360,0.0,0.0,28,0.00,,---,0.00,VWS V14.01,2013-05-12 17:47:00,
2013-05-12 12:48:00,75.8,38.5,30.23,North,360,0.0,0.0,26,0.00,,---,0.00,VWS V14.01,2013-05-12 17:48:00,
2013-05-12 12:49:00,75.8,38.5,30.23,North,360,0.0,0.0,26,0.00,,---,0.00,VWS V14.01,2013-05-12 17:49:00,
2013-05-12 12:50:00,75.8,40.4,30.23,North,360,0.0,0.0,28,0.00,,---,0.00,VWS V14.01,2013-05-12 17:50:00,
2013-05-12 12:51:00,76.1,38.8,30.23,North,360,0.0,0.0,26,0.00,,---,0.00,VWS V14.01,2013-05-12 17:51:00,
2013-05-12 12:52:00,75.9,40.5,30.23,North,360,0.0,0.0,28,0.00,,---,0.00,VWS V14.01,2013-05-12 17:52:00,
2013-05-12 12:53:00,76.0,42.4,30.23,North,360,0.0,0.0,30,0.00,,---,0.00,VWS V14.01,2013-05-12 17:53:00,
2013-05-12 12:54:00,76.0,38.7,30.23,North,360,0.0,0.0,26,0.00,,---,0.00,VWS V14.01,2013-05-12 17:54:00,
2013-05-12 12:55:00,76.1,38.8,30.24,North,360,0.0,0.0,26,0.00,,---,0.00,VWS V14.01,2013-05-12 17:55:00,
2013-05-12 12:56:00,76.2,39.8,30.23,North,360,0.0,0.0,27,0.00,,---,0.00,VWS V14.01,2013-05-12 17:56:00,
2013-05-12 12:57:00,76.1,40.7,30.23,North,360,0.0,0.0,28,0.00,,---,0.00,VWS V14.01,2013-05-12 17:57:00,
2013-05-12 12:58:00,76.2,40.8,30.23,North,360,0.0,0.0,28,0.00,,---,0.00,VWS V14.01,2013-05-12 17:58:00,
2013-05-12 12:59:00,76.2,38.8,30.23,North,360,0.0,0.0,26,0.00,,---,0.00,VWS V14.01,2013-05-12 17:59:00,
2013-05-12 13:00:00,76.2,38.8,30.23,North,360,0.0,0.0,26,0.00,,---,0.00,VWS V14.01,2013-05-12 18:00:00,
2013-05-12 13:01:00,76.4,38.0,30.23,North,360,0.0,0.0,25,0.00,,---,0.00,VWS V14.01,2013-05-12 18:01:00,
2013-05-12 13:02:00,76.3,38.9,30.23,North,360,0.0,0.0,26,0.00,,---,0.00,VWS V14.01,2013-05-12 18:02:00,
2013-05-12 13:03:00,76.3,40.8,30.23,North,360,0.0,0.0,28,0.00,,---,0.00,VWS V14.01,2013-05-12 18:03:00,
2013-05-12 13:04:00,76.4,40.0,30.23,North,360,0.0,0.0,27,0.00,,---,0.00,VWS V14.01,2013-05-12 18:04:00,
2013-05-12 13:05:00,76.4,40.0,30.23,North,360,0.0,0.0,27,0.00,,---,0.00,VWS V14.01,2013-05-12 18:05:00,
2013-05-12 13:06:00,76.3,37.9,30.22,North,360,0.0,0.0,25,0.00,,---,0.00,VWS V14.01,2013-05-12 18:06:00,
2013-05-12 13:07:00,76.4,37.0,30.23,North,360,0.0,0.0,24,0.00,,---,0.00,VWS V14.01,2013-05-12 18:07:00,
2013-05-12 13:08:00,76.4,37.0,30.23,North,360,0.0,0.0,24,0.00,,---,0.00,VWS V14.01,2013-05-12 18:08:00,
2013-05-12 13:09:00,76.4,37.0,30.23,North,360,0.0,0.0,24,0.00,,---,0.00,VWS V14.01,2013-05-12 18:09:00,
2013-05-12 13:10:00,76.4,44.4,30.23,North,360,0.0,0.0,32,0.00,,---,0.00,VWS V14.01,2013-05-12 18:10:00,
2013-05-12 13:11:00,76.5,41.0,30.22,North,360,0.0,0.0,28,0.00,,---,0.00,VWS V14.01,2013-05-12 18:11:00,
2013-05-12 13:12:00,76.3,39.9,30.22,North,360,0.0,0.0,27,0.00,,---,0.00,VWS V14.01,2013-05-12 18:12:00,
2013-05-12 13:13:00,76.4,40.9,30.23,North,360,0.0,0.0,28,0.00,,---,0.00,VWS V14.01,2013-05-12 18:13:00,
2013-05-12 13:14:00,76.4,40.0,30.22,North,360,0.0,0.0,27,0.00,,---,0.00,VWS V14.01,2013-05-12 18:14:00,
2013-05-12 13:15:00,76.4,40.0,30.22,North,360,0.0,0.0,27,0.00,,---,0.00,VWS V14.01,2013-05-12 18:15:00,
2013-05-12 13:16:00,76.8,42.2,30.22,North,360,0.0,0.0,29,0.00,,---,0.00,VWS V14.01,2013-05-12 18:16:00,
2013-05-12 13:17:00,76.6,41.1,30.22,North,360,0.0,0.0,28,0.00,,---,0.00,VWS V14.01,2013-05-12 18:17:00,
2013-05-12 13:18:00,76.6,42.0,30.22,North,360,0.0,0.0,29,0.00,,---,0.00,VWS V14.01,2013-05-12 18:18:00,
2013-05-12 13:19:00,76.7,41.2,30.22,North,360,0.0,0.0,28,0.00,,---,0.00,VWS V14.01,2013-05-12 18:19:00,
2013-05-12 13:20:00,76.7,42.1,30.22,North,360,0.0,0.0,29,0.00,,---,0.00,VWS V14.01,2013-05-12 18:20:00,
2013-05-12 13:21:00,76.8,39.3,30.22,North,360,0.0,0.0,26,0.00,,---,0.00,VWS V14.01,2013-05-12 18:21:00,
2013-05-12 13:22:00,76.8,42.2,30.22,North,360,0.0,0.0,29,0.00,,---,0.00,VWS V14.01,2013-05-12 18:22:00,
2013-05-12 13:23:00,76.9,42.3,30.22,North,360,0.0,0.0,29,0.00,,---,0.00,VWS V14.01,2013-05-12 18:23:00,
2013-05-12 13:24:00,76.9,38.4,30.22,North,360,0.0,0.0,25,0.00,,---,0.00,VWS V14.01,2013-05-12 18:24:00,
2013-05-12 13:25:00,76.8,39.3,30.22,North,360,0.0,0.0,26,0.00,,---,0.00,VWS V14.01,2013-05-12 18:25:00,
2013-05-12 13:26:00,76.8,40.3,30.22,North,360,0.0,0.0,27,0.00,,---,0.00,VWS V14.01,2013-05-12 18:26:00,
2013-05-12 13:27:00,76.8,39.3,30.22,North,360,0.0,0.0,26,0.00,,---,0.00,VWS V14.01,2013-05-12 18:27:00,
2013-05-12 13:28:00,76.8,38.3,30.22,North,360,0.0,0.0,25,0.00,,---,0.00,VWS V14.01,2013-05-12 18:28:00,
2013-05-12 13:29:00,76.8,40.3,30.22,North,360,0.0,0.0,27,0.00,,---,0.00,VWS V14.01,2013-05-12 18:29:00,
2013-05-12 13:30:00,76.8,41.3,30.22,North,360,0.0,0.0,28,0.00,,---,0.00,VWS V14.01,2013-05-12 18:30:00,
2013-05-12 13:31:00,76.5,38.1,30.22,North,360,0.0,0.0,25,0.00,,---,0.00,VWS V14.01,2013-05-12 18:31:00,
2013-05-12 13:32:00,76.7,40.2,30.22,North,360,0.0,0.0,27,0.00,,---,0.00,VWS V14.01,2013-05-12 18:32:00,
2013-05-12 13:33:00,76.7,39.3,30.22,North,360,0.0,0.0,26,0.00,,---,0.00,VWS V14.01,2013-05-12 18:33:00,
2013-05-12 13:34:00,76.6,40.2,30.22,North,360,0.0,0.0,27,0.00,,---,0.00,VWS V14.01,2013-05-12 18:34:00,
2013-05-12 13:35:00,76.5,39.1,30.22,North,360,0.0,0.0,26,0.00,,---,0.00,VWS V14.01,2013-05-12 18:35:00,
2013-05-12 13:36:00,76.3,37.9,30.22,North,360,0.0,0.0,25,0.00,,---,0.00,VWS V14.01,2013-05-12 18:36:00,
2013-05-12 13:37:00,76.4,39.0,30.22,North,360,0.0,0.0,26,0.00,,---,0.00,VWS V14.01,2013-05-12 18:37:00,
2013-05-12 13:38:00,76.4,39.0,30.22,North,360,0.0,0.0,26,0.00,,---,0.00,VWS V14.01,2013-05-12 18:38:00,
2013-05-12 13:39:00,76.4,42.7,30.22,North,360,0.0,0.0,30,0.00,,---,0.00,VWS V14.01,2013-05-12 18:39:00,
2013-05-12 13:40:00,76.4,40.9,30.22,North,360,0.0,0.0,28,0.00,,---,0.00,VWS V14.01,2013-05-12 18:40:00,
2013-05-12 13:41:00,76.5,43.7,30.21,North,360,0.0,0.0,31,0.00,,---,0.00,VWS V14.01,2013-05-12 18:41:00,
2013-05-12 13:42:00,76.3,37.9,30.22,North,360,0.0,0.0,25,0.00,,---,0.00,VWS V14.01,2013-05-12 18:42:00,
2013-05-12 13:43:00,76.3,40.8,30.22,North,360,0.0,0.0,28,0.00,,---,0.00,VWS V14.01,2013-05-12 18:43:00,
2013-05-12 13:44:00,76.3,42.6,30.22,North,360,0.0,0.0,30,0.00,,---,0.00,VWS V14.01,2013-05-12 18:44:00,
2013-05-12 13:45:00,76.4,43.6,30.22,North,360,0.0,0.0,31,0.00,,---,0.00,VWS V14.01,2013-05-12 18:45:00,
2013-05-12 13:46:00,76.4,44.4,30.22,North,360,0.0,0.0,32,0.00,,---,0.00,VWS V14.01,2013-05-12 18:46:00,
2013-05-12 13:47:00,76.9,42.3,30.22,North,360,0.0,0.0,29,0.00,,---,0.00,VWS V14.01,2013-05-12 18:47:00,
2013-05-12 13:48:00,76.6,42.0,30.21,North,360,0.0,0.0,29,0.00,,---,0.00,VWS V14.01,2013-05-12 18:48:00,
2013-05-12 13:49:00,76.7,40.2,30.22,North,360,0.0,0.0,27,0.00,,---,0.00,VWS V14.01,2013-05-12 18:49:00,
2013-05-12 13:50:00,76.7,39.3,30.22,North,360,0.0,0.0,26,0.00,,---,0.00,VWS V14.01,2013-05-12 18:50:00,
2013-05-12 13:51:00,76.8,41.3,30.22,North,360,0.0,0.0,28,0.00,,---,0.00,VWS V14.01,2013-05-12 18:51:00,
2013-05-12 13:52:00,77.5,40.9,30.22,North,360,0.0,0.0,27,0.00,,---,0.00,VWS V14.01,2013-05-12 18:52:00,
2013-05-12 13:53:00,77.1,44.2,30.22,North,360,0.0,0.0,31,0.00,,---,0.00,VWS V14.01,2013-05-12 18:53:00,
2013-05-12 13:54:00,77.2,43.4,30.22,North,360,0.0,0.0,30,0.00,,---,0.00,VWS V14.01,2013-05-12 18:54:00,
2013-05-12 13:55:00,77.3,42.6,30.22,North,360,0.0,0.0,29,0.00,,---,0.00,VWS V14.01,2013-05-12 18:55:00,
2013-05-12 13:56:00,77.5,44.5,30.22,North,360,0.0,0.0,31,0.00,,---,0.00,VWS V14.01,2013-05-12 18:56:00,
2013-05-12 13:57:00,78.0,43.2,30.22,North,360,0.0,0.0,29,0.00,,---,0.00,VWS V14.01,2013-05-12 18:57:00,
2013-05-12 13:58:00,77.7,41.1,30.22,North,360,0.0,0.0,27,0.00,,---,0.00,VWS V14.01,2013-05-12 18:58:00,
2013-05-12 13:59:00,77.8,41.2,30.22,North,360,0.0,0.0,27,0.00,,---,0.00,VWS V14.01,2013-05-12 18:59:00,
2013-05-12 14:00:00,77.9,42.2,30.22,North,360,0.0,0.0,28,0.00,,---,0.00,VWS V14.01,2013-05-12 19:00:00,
2013-05-12 14:01:00,78.0,41.3,30.22,North,360,0.0,0.0,27,0.00,,---,0.00,VWS V14.01,2013-05-12 19:01:00,
2013-05-12 14:02:00,78.2,42.5,30.21,North,360,0.0,0.0,28,0.00,,---,0.00,VWS V14.01,2013-05-12 19:02:00,
2013-05-12 14:03:00,78.1,45.0,30.22,North,360,0.0,0.0,31,0.00,,---,0.00,VWS V14.01,2013-05-12 19:03:00,
2013-05-12 14:04:00,78.2,44.3,30.21,North,360,0.0,0.0,30,0.00,,---,0.00,VWS V14.01,2013-05-12 19:04:00,
2013-05-12 14:05:00,78.2,41.5,30.21,North,360,0.0,0.0,27,0.00,,---,0.00,VWS V14.01,2013-05-12 19:05:00,
2013-05-12 14:06:00,78.2,40.5,30.21,North,360,0.0,0.0,26,0.00,,---,0.00,VWS V14.01,2013-05-12 19:06:00,
2013-05-12 14:07:00,78.1,40.5,30.20,North,360,0.0,0.0,26,0.00,,---,0.00,VWS V14.01,2013-05-12 19:07:00,
2013-05-12 14:08:00,78.2,41.5,30.21,North,360,0.0,0.0,27,0.00,,---,0.00,VWS V14.01,2013-05-12 19:08:00,
2013-05-12 14:09:00,78.1,41.4,30.21,North,360,0.0,0.0,27,0.00,,---,0.00,VWS V14.01,2013-05-12 19:09:00,
2013-05-12 14:10:00,78.1,41.4,30.20,North,360,0.0,0.0,27,0.00,,---,0.00,VWS V14.01,2013-05-12 19:10:00,
2013-05-12 14:11:00,78.1,39.5,30.20,North,360,0.0,0.0,25,0.00,,---,0.00,VWS V14.01,2013-05-12 19:11:00,
2013-05-12 14:12:00,78.1,41.4,30.20,North,360,0.0,0.0,27,0.00,,---,0.00,VWS V14.01,2013-05-12 19:12:00,
2013-05-12 14:14:00,78.0,41.3,30.20,North,360,0.0,0.0,27,0.00,,---,0.00,VWS V14.01,2013-05-12 19:14:00,
2013-05-12 14:16:00,78.1,41.4,30.20,North,360,0.0,0.0,27,0.00,,---,0.00,VWS V14.01,2013-05-12 19:16:00,
2013-05-12 14:17:00,78.0,39.4,30.20,North,360,0.0,0.0,25,0.00,,---,0.00,VWS V14.01,2013-05-12 19:17:00,
2013-05-12 14:20:00,78.0,40.4,30.20,North,360,0.0,0.0,26,0.00,,---,0.00,VWS V14.01,2013-05-12 19:20:00,
2013-05-12 14:21:00,78.0,41.3,30.20,North,360,0.0,0.0,27,0.00,,---,0.00,VWS V14.01,2013-05-12 19:21:00,
2013-05-12 14:22:00,78.3,40.6,30.20,North,360,0.0,0.0,26,0.00,,---,0.00,VWS V14.01,2013-05-12 19:22:00,
2013-05-12 14:24:00,78.2,44.3,30.20,North,360,0.0,0.0,30,0.00,,---,0.00,VWS V14.01,2013-05-12 19:24:00,
2013-05-12 14:25:00,78.2,41.5,30.20,North,360,0.0,0.0,27,0.00,,---,0.00,VWS V14.01,2013-05-12 19:25:00,
2013-05-12 14:26:00,78.3,43.5,30.20,North,360,0.0,0.0,29,0.00,,---,0.00,VWS V14.01,2013-05-12 19:26:00,
2013-05-12 14:27:00,78.1,38.4,30.20,North,360,0.0,0.0,24,0.00,,---,0.00,VWS V14.01,2013-05-12 19:27:00,
2013-05-12 14:29:00,78.3,39.6,30.20,North,360,0.0,0.0,25,0.00,,---,0.00,VWS V14.01,2013-05-12 19:29:00,
2013-05-12 14:30:00,78.2,40.5,30.20,North,360,0.0,0.0,26,0.00,,---,0.00,VWS V14.01,2013-05-12 19:30:00,
2013-05-12 14:32:00,78.0,39.4,30.20,North,360,0.0,0.0,25,0.00,,---,0.00,VWS V14.01,2013-05-12 19:32:00,
2013-05-12 14:33:00,78.0,39.4,30.20,North,360,0.0,0.0,25,0.00,,---,0.00,VWS V14.01,2013-05-12 19:33:00,
2013-05-12 14:34:00,78.0,38.3,30.20,North,360,0.0,0.0,24,0.00,,---,0.00,VWS V14.01,2013-05-12 19:34:00,
2013-05-12 14:37:00,77.9,40.3,30.19,North,360,0.0,0.0,26,0.00,,---,0.00,VWS V14.01,2013-05-12 19:37:00,
2013-05-12 14:39:00,78.0,38.3,30.19,North,360,0.0,0.0,24,0.00,,---,0.00,VWS V14.01,2013-05-12 19:39:00,
2013-05-12 14:42:00,77.8,39.2,30.19,North,360,0.0,0.0,25,0.00,,---,0.00,VWS V14.01,2013-05-12 19:42:00,
2013-05-12 14:43:00,77.9,40.3,30.19,North,360,0.0,0.0,26,0.00,,---,0.00,VWS V14.01,2013-05-12 19:43:00,
2013-05-12 14:46:00,77.8,40.2,30.19,North,360,0.0,0.0,26,0.00,,---,0.00,VWS V14.01,2013-05-12 19:46:00,
2013-05-12 14:47:00,77.9,39.3,30.19,North,360,0.0,0.0,25,0.00,,---,0.00,VWS V14.01,2013-05-12 19:47:00,
2013-05-12 14:51:00,77.9,39.3,30.19,North,360,0.0,0.0,25,0.00,,---,0.00,VWS V14.01,2013-05-12 19:51:00,
2013-05-12 14:52:00,78.1,42.4,30.18,North,360,0.0,0.0,28,0.00,,---,0.00,VWS V14.01,2013-05-12 19:52:00,
2013-05-12 14:53:00,77.9,40.3,30.19,North,360,0.0,0.0,26,0.00,,---,0.00,VWS V14.01,2013-05-12 19:53:00,
2013-05-12 14:54:00,78.0,40.4,30.19,North,360,0.0,0.0,26,0.00,,---,0.00,VWS V14.01,2013-05-12 19:54:00,
2013-05-12 14:55:00,78.0,38.3,30.19,North,360,0.0,0.0,24,0.00,,---,0.00,VWS V14.01,2013-05-12 19:55:00,
2013-05-12 14:56:00,78.0,41.3,30.19,North,360,0.0,0.0,27,0.00,,---,0.00,VWS V14.01,2013-05-12 19:56:00,
2013-05-12 14:57:00,78.4,44.4,30.18,North,360,0.0,0.0,30,0.00,,---,0.00,VWS V14.01,2013-05-12 19:57:00,
2013-05-12 14:58:00,78.1,45.0,30.18,North,360,0.0,0.0,31,0.00,,---,0.00,VWS V14.01,2013-05-12 19:58:00,
2013-05-12 14:59:00,78.2,41.5,30.18,North,360,0.0,0.0,27,0.00,,---,0.00,VWS V14.01,2013-05-12 19:59:00,
2013-05-12 15:00:00,78.2,42.5,30.18,North,360,0.0,0.0,28,0.00,,---,0.00,VWS V14.01,2013-05-12 20:00:00,
2013-05-12 15:01:00,78.3,41.6,30.18,North,360,0.0,0.0,27,0.00,,---,0.00,VWS V14.01,2013-05-12 20:01:00,
2013-05-12 15:02:00,79.0,43.2,30.17,North,360,0.0,0.0,28,0.00,,---,0.00,VWS V14.01,2013-05-12 20:02:00,
2013-05-12 15:03:00,78.5,41.8,30.18,North,360,0.0,0.0,27,0.00,,---,0.00,VWS V14.01,2013-05-12 20:03:00,
2013-05-12 15:04:00,78.6,40.9,30.18,North,360,0.0,0.0,26,0.00,,---,0.00,VWS V14.01,2013-05-12 20:04:00,
2013-05-12 15:05:00,78.7,41.9,30.18,North,360,0.0,0.0,27,0.00,,---,0.00,VWS V14.01,2013-05-12 20:05:00,
2013-05-12 15:06:00,78.8,41.0,30.18,North,360,0.0,0.0,26,0.00,,---,0.00,VWS V14.01,2013-05-12 20:06:00,
2013-05-12 15:07:00,79.1,38.2,30.17,North,360,0.0,0.0,23,0.00,,---,0.00,VWS V14.01,2013-05-12 20:07:00,
2013-05-12 15:08:00,79.0,41.2,30.18,North,360,0.0,0.0,26,0.00,,---,0.00,VWS V14.01,2013-05-12 20:08:00,
2013-05-12 15:09:00,79.1,41.3,30.17,North,360,0.0,0.0,26,0.00,,---,0.00,VWS V14.01,2013-05-12 20:09:00,
2013-05-12 15:10:00,79.1,39.2,30.18,North,360,0.0,0.0,24,0.00,,---,0.00,VWS V14.01,2013-05-12 20:10:00,
2013-05-12 15:11:00,79.1,39.2,30.18,North,360,0.0,0.0,24,0.00,,---,0.00,VWS V14.01,2013-05-12 20:11:00,
2013-05-12 15:12:00,79.2,39.3,30.17,North,360,0.0,0.0,24,0.00,,---,0.00,VWS V14.01,2013-05-12 20:12:00,
2013-05-12 15:13:00,79.1,38.2,30.18,North,360,0.0,0.0,23,0.00,,---,0.00,VWS V14.01,2013-05-12 20:13:00,
2013-05-12 15:14:00,79.1,40.3,30.18,North,360,0.0,0.0,25,0.00,,---,0.00,VWS V14.01,2013-05-12 20:14:00,
2013-05-12 15:15:00,79.1,40.3,30.18,North,360,0.0,0.0,25,0.00,,---,0.00,VWS V14.01,2013-05-12 20:15:00,
2013-05-12 15:16:00,79.1,41.3,30.17,North,360,0.0,0.0,26,0.00,,---,0.00,VWS V14.01,2013-05-12 20:16:00,
2013-05-12 15:17:00,79.4,41.6,30.17,North,360,0.0,0.0,26,0.00,,---,0.00,VWS V14.01,2013-05-12 20:17:00,
2013-05-12 15:18:00,79.2,43.3,30.17,North,360,0.0,0.0,28,0.00,,---,0.00,VWS V14.01,2013-05-12 20:18:00,
2013-05-12 15:19:00,79.3,42.5,30.17,North,360,0.0,0.0,27,0.00,,---,0.00,VWS V14.01,2013-05-12 20:19:00,
2013-05-12 15:20:00,79.3,41.5,30.17,North,360,0.0,0.0,26,0.00,,---,0.00,VWS V14.01,2013-05-12 20:20:00,
2013-05-12 15:21:00,79.4,40.5,30.17,North,360,0.0,0.0,25,0.00,,---,0.00,VWS V14.01,2013-05-12 20:21:00,
2013-05-12 15:22:00,79.8,41.9,30.17,North,360,0.0,0.0,26,0.00,,---,0.00,VWS V14.01,2013-05-12 20:22:00,
2013-05-12 15:23:00,79.6,40.7,30.17,North,360,0.0,0.0,25,0.00,,---,0.00,VWS V14.01,2013-05-12 20:23:00,
2013-05-12 15:24:00,79.6,44.6,30.17,North,360,0.0,0.0,29,0.00,,---,0.00,VWS V14.01,2013-05-12 20:24:00,
2013-05-12 15:25:00,79.7,40.8,30.17,North,360,0.0,0.0,25,0.00,,---,0.00,VWS V14.01,2013-05-12 20:25:00,
2013-05-12 15:26:00,79.7,40.8,30.17,North,360,0.0,0.0,25,0.00,,---,0.00,VWS V14.01,2013-05-12 20:26:00,
2013-05-12 15:27:00,79.8,39.8,30.17,North,360,0.0,0.0,24,0.00,,---,0.00,VWS V14.01,2013-05-12 20:27:00,
2013-05-12 15:28:00,79.8,39.8,30.17,North,360,0.0,0.0,24,0.00,,---,0.00,VWS V14.01,2013-05-12 20:28:00,
2013-05-12 15:29:00,79.8,39.8,30.17,North,360,0.0,0.0,24,0.00,,---,0.00,VWS V14.01,2013-05-12 20:29:00,
2013-05-12 15:30:00,79.9,39.9,30.17,North,360,0.0,0.0,24,0.00,,---,0.00,VWS V14.01,2013-05-12 20:30:00,
2013-05-12 15:31:00,79.8,38.8,30.17,North,360,0.0,0.0,23,0.00,,---,0.00,VWS V14.01,2013-05-12 20:31:00,
2013-05-12 15:32:00,80.0,42.1,30.17,North,360,0.0,0.0,26,0.00,,---,0.00,VWS V14.01,2013-05-12 20:32:00,
2013-05-12 15:33:00,79.8,42.9,30.17,North,360,0.0,0.0,27,0.00,,---,0.00,VWS V14.01,2013-05-12 20:33:00,
2013-05-12 15:34:00,79.8,42.9,30.17,North,360,0.0,0.0,27,0.00,,---,0.00,VWS V14.01,2013-05-12 20:34:00,
2013-05-12 15:35:00,79.9,41.0,30.17,North,360,0.0,0.0,25,0.00,,---,0.00,VWS V14.01,2013-05-12 20:35:00,
2013-05-12 15:36:00,80.0,43.0,30.17,North,360,0.0,0.0,27,0.00,,---,0.00,VWS V14.01,2013-05-12 20:36:00,
2013-05-12 15:37:00,80.3,40.3,30.17,North,360,0.0,0.0,24,0.00,,---,0.00,VWS V14.01,2013-05-12 20:37:00,
2013-05-12 15:38:00,80.0,42.1,30.17,North,360,0.0,0.0,26,0.00,,---,0.00,VWS V14.01,2013-05-12 20:38:00,
2013-05-12 15:39:00,80.1,42.2,30.17,North,360,0.0,0.0,26,0.00,,---,0.00,VWS V14.01,2013-05-12 20:39:00,
2013-05-12 15:40:00,80.2,42.2,30.17,North,360,0.0,0.0,26,0.00,,---,0.00,VWS V14.01,2013-05-12 20:40:00,
2013-05-12 15:41:00,80.2,41.2,30.17,North,360,0.0,0.0,25,0.00,,---,0.00,VWS V14.01,2013-05-12 20:41:00,
2013-05-12 15:42:00,80.5,43.5,30.17,North,360,0.0,0.0,27,0.00,,---,0.00,VWS V14.01,2013-05-12 20:42:00,
2013-05-12 15:43:00,80.3,41.3,30.17,North,360,0.0,0.0,25,0.00,,---,0.00,VWS V14.01,2013-05-12 20:43:00,
2013-05-12 15:44:00,80.3,39.2,30.17,North,360,0.0,0.0,23,0.00,,---,0.00,VWS V14.01,2013-05-12 20:44:00,
2013-05-12 15:45:00,80.4,41.4,30.17,North,360,0.0,0.0,25,0.00,,---,0.00,VWS V14.01,2013-05-12 20:45:00,
2013-05-12 15:46:00,80.4,40.3,30.17,North,360,0.0,0.0,24,0.00,,---,0.00,VWS V14.01,2013-05-12 20:46:00,
2013-05-12 15:47:00,80.6,40.5,30.17,North,360,0.0,0.0,24,0.00,,---,0.00,VWS V14.01,2013-05-12 20:47:00,
2013-05-12 15:48:00,80.5,41.5,30.17,North,360,0.0,0.0,25,0.00,,---,0.00,VWS V14.01,2013-05-12 20:48:00,
2013-05-12 15:49:00,80.5,39.3,30.17,North,360,0.0,0.0,23,0.00,,---,0.00,VWS V14.01,2013-05-12 20:49:00,
2013-05-12 15:50:00,80.5,41.5,30.17,North,360,0.0,0.0,25,0.00,,---,0.00,VWS V14.01,2013-05-12 20:50:00,
2013-05-12 15:51:00,80.6,41.6,30.17,North,360,0.0,0.0,25,0.00,,---,0.00,VWS V14.01,2013-05-12 20:51:00,
2013-05-12 15:52:00,80.5,39.3,30.16,North,360,0.0,0.0,23,0.00,,---,0.00,VWS V14.01,2013-05-12 20:52:00,
2013-05-12 15:53:00,80.6,41.6,30.17,North,360,0.0,0.0,25,0.00,,---,0.00,VWS V14.01,2013-05-12 20:53:00,
2013-05-12 15:54:00,80.6,38.3,30.16,North,360,0.0,0.0,22,0.00,,---,0.00,VWS V14.01,2013-05-12 20:54:00,
2013-05-12 15:55:00,80.6,38.3,30.16,North,360,0.0,0.0,22,0.00,,---,0.00,VWS V14.01,2013-05-12 20:55:00,
2013-05-12 15:56:00,80.6,41.6,30.16,North,360,0.0,0.0,25,0.00,,---,0.00,VWS V14.01,2013-05-12 20:56:00,
2013-05-12 15:57:00,80.6,40.5,30.16,North,360,0.0,0.0,24,0.00,,---,0.00,VWS V14.01,2013-05-12 20:57:00,
2013-05-12 15:58:00,80.6,40.5,30.16,North,360,0.0,0.0,24,0.00,,---,0.00,VWS V14.01,2013-05-12 20:58:00,
2013-05-12 16:00:00,80.6,39.4,30.16,North,360,0.0,0.0,23,0.00,,---,0.00,VWS V14.01,2013-05-12 21:00:00,
2013-05-12 16:01:00,80.6,42.6,30.16,North,360,0.0,0.0,26,0.00,,---,0.00,VWS V14.01,2013-05-12 21:01:00,
2013-05-12 16:02:00,80.7,40.6,30.16,North,360,0.0,0.0,24,0.00,,---,0.00,VWS V14.01,2013-05-12 21:02:00,
2013-05-12 16:03:00,80.6,41.6,30.16,North,360,0.0,0.0,25,0.00,,---,0.00,VWS V14.01,2013-05-12 21:03:00,
2013-05-12 16:04:00,80.6,41.6,30.16,North,360,0.0,0.0,25,0.00,,---,0.00,VWS V14.01,2013-05-12 21:04:00,
2013-05-12 16:05:00,80.7,42.7,30.17,North,360,0.0,0.0,26,0.00,,---,0.00,VWS V14.01,2013-05-12 21:05:00,
2013-05-12 16:06:00,80.7,41.7,30.16,North,360,0.0,0.0,25,0.00,,---,0.00,VWS V14.01,2013-05-12 21:06:00,
2013-05-12 16:07:00,80.9,39.7,30.16,North,360,0.0,0.0,23,0.00,,---,0.00,VWS V14.01,2013-05-12 21:07:00,
2013-05-12 16:08:00,80.7,40.6,30.16,North,360,0.0,0.0,24,0.00,,---,0.00,VWS V14.01,2013-05-12 21:08:00,
2013-05-12 16:09:00,80.8,41.7,30.16,North,360,0.0,0.0,25,0.00,,---,0.00,VWS V14.01,2013-05-12 21:09:00,
2013-05-12 16:10:00,80.8,39.6,30.17,North,360,0.0,0.0,23,0.00,,---,0.00,VWS V14.01,2013-05-12 21:10:00,
2013-05-12 16:11:00,80.8,40.7,30.16,North,360,0.0,0.0,24,0.00,,---,0.00,VWS V14.01,2013-05-12 21:11:00,
2013-05-12 16:12:00,81.0,41.9,30.16,North,360,0.0,0.0,25,0.00,,---,0.00,VWS V14.01,2013-05-12 21:12:00,
2013-05-12 16:13:00,80.9,40.8,30.16,North,360,0.0,0.0,24,0.00,,---,0.00,VWS V14.01,2013-05-12 21:13:00,
2013-05-12 16:14:00,80.9,39.7,30.16,North,360,0.0,0.0,23,0.00,,---,0.00,VWS V14.01,2013-05-12 21:14:00,
2013-05-12 16:15:00,80.9,39.7,30.16,North,360,0.0,0.0,23,0.00,,---,0.00,VWS V14.01,2013-05-12 21:15:00,
2013-05-12 16:16:00,80.9,44.8,30.16,North,360,0.0,0.0,28,0.00,,---,0.00,VWS V14.01,2013-05-12 21:16:00,
2013-05-12 16:17:00,81.2,42.1,30.16,North,360,0.0,0.0,25,0.00,,---,0.00,VWS V14.01,2013-05-12 21:17:00,
2013-05-12 16:18:00,81.1,42.0,30.16,North,360,0.0,0.0,25,0.00,,---,0.00,VWS V14.01,2013-05-12 21:18:00,
2013-05-12 16:19:00,81.1,39.8,30.16,North,360,0.0,0.0,23,0.00,,---,0.00,VWS V14.01,2013-05-12 21:19:00,
2013-05-12 16:20:00,81.2,43.1,30.16,North,360,0.0,0.0,26,0.00,,---,0.00,VWS V14.01,2013-05-12 21:20:00,
2013-05-12 16:21:00,81.2,44.1,30.16,North,360,0.0,0.0,27,0.00,,---,0.00,VWS V14.01,2013-05-12 21:21:00,
2013-05-12 16:22:00,81.2,42.1,30.16,North,360,0.0,0.0,25,0.00,,---,0.00,VWS V14.01,2013-05-12 21:22:00,
2013-05-12 16:23:00,81.2,42.1,30.16,North,360,0.0,0.0,25,0.00,,---,0.00,VWS V14.01,2013-05-12 21:23:00,
2013-05-12 16:24:00,81.2,44.1,30.16,North,360,0.0,0.0,27,0.00,,---,0.00,VWS V14.01,2013-05-12 21:24:00,
2013-05-12 16:25:00,81.2,41.0,30.16,North,360,0.0,0.0,24,0.00,,---,0.00,VWS V14.01,2013-05-12 21:25:00,
2013-05-12 16:26:00,81.2,41.0,30.16,North,360,0.0,0.0,24,0.00,,---,0.00,VWS V14.01,2013-05-12 21:26:00,
2013-05-12 16:27:00,81.3,40.0,30.16,North,360,0.0,0.0,23,0.00,,---,0.00,VWS V14.01,2013-05-12 21:27:00,
2013-05-12 16:28:00,81.2,42.1,30.16,North,360,0.0,0.0,25,0.00,,---,0.00,VWS V14.01,2013-05-12 21:28:00,
2013-05-12 16:29:00,81.2,41.0,30.16,North,360,0.0,0.0,24,0.00,,---,0.00,VWS V14.01,2013-05-12 21:29:00,
2013-05-12 16:30:00,81.2,42.1,30.16,North,360,0.0,0.0,25,0.00,,---,0.00,VWS V14.01,2013-05-12 21:30:00,
2013-05-12 16:31:00,81.3,43.2,30.16,North,360,0.0,0.0,26,0.00,,---,0.00,VWS V14.01,2013-05-12 21:31:00,
2013-05-12 16:32:00,81.5,43.3,30.16,North,360,0.0,0.0,26,0.00,,---,0.00,VWS V14.01,2013-05-12 21:32:00,
2013-05-12 16:33:00,81.3,41.1,30.16,North,360,0.0,0.0,24,0.00,,---,0.00,VWS V14.01,2013-05-12 21:33:00,
2013-05-12 16:34:00,81.4,43.3,30.16,North,360,0.0,0.0,26,0.00,,---,0.00,VWS V14.01,2013-05-12 21:34:00,
2013-05-12 16:35:00,81.4,42.2,30.16,North,360,0.0,0.0,25,0.00,,---,0.00,VWS V14.01,2013-05-12 21:35:00,
2013-05-12 16:36:00,81.4,43.3,30.16,North,360,0.0,0.0,26,0.00,,---,0.00,VWS V14.01,2013-05-12 21:36:00,
2013-05-12 16:37:00,81.6,42.4,30.16,North,360,0.0,0.0,25,0.00,,---,0.00,VWS V14.01,2013-05-12 21:37:00,
2013-05-12 16:38:00,81.5,42.3,30.16,North,360,0.0,0.0,25,0.00,,---,0.00,VWS V14.01,2013-05-12 21:38:00,
2013-05-12 16:39:00,81.5,42.3,30.16,North,360,0.0,0.0,25,0.00,,---,0.00,VWS V14.01,2013-05-12 21:39:00,
2013-05-12 16:40:00,81.5,42.3,30.16,North,360,0.0,0.0,25,0.00,,---,0.00,VWS V14.01,2013-05-12 21:40:00,
2013-05-12 16:41:00,81.6,43.4,30.16,North,360,0.0,0.0,26,0.00,,---,0.00,VWS V14.01,2013-05-12 21:41:00,
2013-05-12 16:42:00,81.6,42.4,30.15,North,360,0.0,0.0,25,0.00,,---,0.00,VWS V14.01,2013-05-12 21:42:00,
2013-05-12 16:43:00,81.6,44.4,30.16,North,360,0.0,0.0,27,0.00,,---,0.00,VWS V14.01,2013-05-12 21:43:00,
2013-05-12 16:44:00,81.7,44.5,30.15,North,360,0.0,0.0,27,0.00,,---,0.00,VWS V14.01,2013-05-12 21:44:00,
2013-05-12 16:45:00,81.7,42.5,30.15,North,360,0.0,0.0,25,0.00,,---,0.00,VWS V14.01,2013-05-12 21:45:00,
2013-05-12 16:46:00,81.6,41.3,30.15,North,360,0.0,0.0,24,0.00,,---,0.00,VWS V14.01,2013-05-12 21:46:00,
2013-05-12 16:47:00,81.5,42.3,30.15,North,360,0.0,0.0,25,0.00,,---,0.00,VWS V14.01,2013-05-12 21:47:00,
2013-05-12 16:48:00,81.6,43.4,30.15,North,360,0.0,0.0,26,0.00,,---,0.00,VWS V14.01,2013-05-12 21:48:00,
2013-05-12 16:49:00,81.6,44.4,30.15,North,360,0.0,0.0,27,0.00,,---,0.00,VWS V14.01,2013-05-12 21:49:00,
2013-05-12 16:50:00,81.6,43.4,30.15,North,360,0.0,0.0,26,0.00,,---,0.00,VWS V14.01,2013-05-12 21:50:00,
2013-05-12 16:51:00,81.6,44.4,30.15,North,360,0.0,0.0,27,0.00,,---,0.00,VWS V14.01,2013-05-12 21:51:00,
2013-05-12 16:52:00,81.3,38.9,30.15,North,360,0.0,0.0,22,0.00,,---,0.00,VWS V14.01,2013-05-12 21:52:00,
2013-05-12 16:53:00,81.5,42.3,30.15,North,360,0.0,0.0,25,0.00,,---,0.00,VWS V14.01,2013-05-12 21:53:00,
2013-05-12 16:54:00,81.5,42.3,30.15,North,360,0.0,0.0,25,0.00,,---,0.00,VWS V14.01,2013-05-12 21:54:00,
2013-05-12 16:55:00,81.4,41.2,30.15,North,360,0.0,0.0,24,0.00,,---,0.00,VWS V14.01,2013-05-12 21:55:00,
2013-05-12 16:56:00,81.4,38.9,30.15,North,360,0.0,0.0,22,0.00,,---,0.00,VWS V14.01,2013-05-12 21:56:00,
2013-05-12 16:57:00,81.1,42.0,30.15,North,360,0.0,0.0,25,0.00,,---,0.00,VWS V14.01,2013-05-12 21:57:00,
2013-05-12 16:58:00,81.2,38.8,30.15,North,360,0.0,0.0,22,0.00,,---,0.00,VWS V14.01,2013-05-12 21:58:00,
2013-05-12 16:59:00,81.2,41.0,30.15,North,360,0.0,0.0,24,0.00,,---,0.00,VWS V14.01,2013-05-12 21:59:00,
2013-05-12 17:00:00,81.2,42.1,30.15,North,360,0.0,0.0,25,0.00,,---,0.00,VWS V14.01,2013-05-12 22:00:00,
2013-05-12 17:01:00,81.1,40.9,30.15,North,360,0.0,0.0,24,0.00,,---,0.00,VWS V14.01,2013-05-12 22:01:00,
2013-05-12 17:02:00,81.0,39.8,30.15,North,360,0.0,0.0,23,0.00,,---,0.00,VWS V14.01,2013-05-12 22:02:00,
2013-05-12 17:03:00,81.1,42.0,30.15,North,360,0.0,0.0,25,0.00,,---,0.00,VWS V14.01,2013-05-12 22:03:00,
2013-05-12 17:04:00,81.1,43.0,30.15,North,360,0.0,0.0,26,0.00,,---,0.00,VWS V14.01,2013-05-12 22:04:00,
2013-05-12 17:05:00,81.1,42.0,30.15,North,360,0.0,0.0,25,0.00,,---,0.00,VWS V14.01,2013-05-12 22:05:00,
2013-05-12 17:06:00,81.0,40.8,30.15,North,360,0.0,0.0,24,0.00,,---,0.00,VWS V14.01,2013-05-12 22:06:00,
2013-05-12 17:07:00,80.9,39.7,30.15,North,360,0.0,0.0,23,0.00,,---,0.00,VWS V14.01,2013-05-12 22:07:00,
2013-05-12 17:08:00,81.0,39.8,30.15,North,360,0.0,0.0,23,0.00,,---,0.00,VWS V14.01,2013-05-12 22:08:00,
2013-05-12 17:09:00,81.0,39.8,30.15,North,360,0.0,0.0,23,0.00,,---,0.00,VWS V14.01,2013-05-12 22:09:00,
2013-05-12 17:10:00,80.9,39.7,30.15,North,360,0.0,0.0,23,0.00,,---,0.00,VWS V14.01,2013-05-12 22:10:00,
2013-05-12 17:11:00,80.9,40.8,30.15,North,360,0.0,0.0,24,0.00,,---,0.00,VWS V14.01,2013-05-12 22:11:00,
2013-05-12 17:12:00,81.0,40.8,30.14,North,360,0.0,0.0,24,0.00,,---,0.00,VWS V14.01,2013-05-12 22:12:00,
2013-05-12 17:13:00,80.9,40.8,30.15,North,360,0.0,0.0,24,0.00,,---,0.00,VWS V14.01,2013-05-12 22:13:00,
2013-05-12 17:14:00,81.0,40.8,30.15,North,360,0.0,0.0,24,0.00,,---,0.00,VWS V14.01,2013-05-12 22:14:00,
2013-05-12 17:15:00,81.0,40.8,30.15,North,360,0.0,0.0,24,0.00,,---,0.00,VWS V14.01,2013-05-12 22:15:00,
2013-05-12 17:16:00,81.0,42.9,30.15,North,360,0.0,0.0,26,0.00,,---,0.00,VWS V14.01,2013-05-12 22:16:00,
2013-05-12 17:17:00,81.2,42.1,30.14,North,360,0.0,0.0,25,0.00,,---,0.00,VWS V14.01,2013-05-12 22:17:00,
2013-05-12 17:18:00,81.1,40.9,30.14,North,360,0.0,0.0,24,0.00,,---,0.00,VWS V14.01,2013-05-12 22:18:00,
2013-05-12 17:19:00,81.1,43.0,30.14,North,360,0.0,0.0,26,0.00,,---,0.00,VWS V14.01,2013-05-12 22:19:00,
2013-05-12 17:20:00,81.1,43.0,30.14,North,360,0.0,0.0,26,0.00,,---,0.00,VWS V14.01,2013-05-12 22:20:00,
2013-05-12 17:21:00,81.2,42.1,30.14,North,360,0.0,0.0,25,0.00,,---,0.00,VWS V14.01,2013-05-12 22:21:00,
2013-05-12 17:22:00,81.4,41.2,30.14,North,360,0.0,0.0,24,0.00,,---,0.00,VWS V14.01,2013-05-12 22:22:00,
2013-05-12 17:23:00,81.2,43.1,30.14,North,360,0.0,0.0,26,0.00,,---,0.00,VWS V14.01,2013-05-12 22:23:00,
2013-05-12 17:24:00,81.3,42.2,30.14,North,360,0.0,0.0,25,0.00,,---,0.00,VWS V14.01,2013-05-12 22:24:00,
2013-05-12 17:25:00,81.3,41.1,30.14,North,360,0.0,0.0,24,0.00,,---,0.00,VWS V14.01,2013-05-12 22:25:00,
2013-05-12 17:26:00,81.4,41.2,30.14,North,360,0.0,0.0,24,0.00,,---,0.00,VWS V14.01,2013-05-12 22:26:00,
2013-05-12 17:27:00,81.3,40.0,30.14,North,360,0.0,0.0,23,0.00,,---,0.00,VWS V14.01,2013-05-12 22:27:00,
2013-05-12 17:28:00,81.4,41.2,30.14,North,360,0.0,0.0,24,0.00,,---,0.00,VWS V14.01,2013-05-12 22:28:00,
2013-05-12 17:29:00,81.4,40.1,30.14,North,360,0.0,0.0,23,0.00,,---,0.00,VWS V14.01,2013-05-12 22:29:00,
2013-05-12 17:30:00,81.3,38.9,30.14,North,360,0.0,0.0,22,0.00,,---,0.00,VWS V14.01,2013-05-12 22:30:00,
2013-05-12 17:31:00,81.3,40.0,30.14,North,360,0.0,0.0,23,0.00,,---,0.00,VWS V14.01,2013-05-12 22:31:00,
2013-05-12 17:32:00,81.2,42.1,30.14,North,360,0.0,0.0,25,0.00,,---,0.00,VWS V14.01,2013-05-12 22:32:00,
2013-05-12 17:33:00,81.3,40.0,30.14,North,360,0.0,0.0,23,0.00,,---,0.00,VWS V14.01,2013-05-12 22:33:00,
2013-05-12 17:34:00,81.2,41.0,30.14,North,360,0.0,0.0,24,0.00,,---,0.00,VWS V14.01,2013-05-12 22:34:00,
2013-05-12 17:35:00,81.2,41.0,30.14,North,360,0.0,0.0,24,0.00,,---,0.00,VWS V14.01,2013-05-12 22:35:00,
2013-05-12 17:36:00,81.2,43.1,30.14,North,360,0.0,0.0,26,0.00,,---,0.00,VWS V14.01,2013-05-12 22:36:00,
2013-05-12 17:37:00,81.2,41.0,30.14,North,360,0.0,0.0,24,0.00,,---,0.00,VWS V14.01,2013-05-12 22:37:00,
2013-05-12 17:38:00,81.2,42.1,30.14,North,360,0.0,0.0,25,0.00,,---,0.00,VWS V14.01,2013-05-12 22:38:00,
2013-05-12 17:39:00,81.2,42.1,30.14,North,360,0.0,0.0,25,0.00,,---,0.00,VWS V14.01,2013-05-12 22:39:00,
2013-05-12 17:40:00,81.2,41.0,30.14,North,360,0.0,0.0,24,0.00,,---,0.00,VWS V14.01,2013-05-12 22:40:00,
2013-05-12 17:41:00,81.2,41.0,30.14,North,360,0.0,0.0,24,0.00,,---,0.00,VWS V14.01,2013-05-12 22:41:00,
2013-05-12 17:42:00,81.2,42.1,30.14,North,360,0.0,0.0,25,0.00,,---,0.00,VWS V14.01,2013-05-12 22:42:00,
2013-05-12 17:43:00,81.2,41.0,30.14,North,360,0.0,0.0,24,0.00,,---,0.00,VWS V14.01,2013-05-12 22:43:00,
2013-05-12 17:44:00,81.2,42.1,30.14,North,360,0.0,0.0,25,0.00,,---,0.00,VWS V14.01,2013-05-12 22:44:00,
2013-05-12 17:45:00,81.2,43.1,30.14,North,360,0.0,0.0,26,0.00,,---,0.00,VWS V14.01,2013-05-12 22:45:00,
2013-05-12 17:46:00,81.2,42.1,30.14,North,360,0.0,0.0,25,0.00,,---,0.00,VWS V14.01,2013-05-12 22:46:00,
2013-05-12 17:47:00,81.2,41.0,30.14,North,360,0.0,0.0,24,0.00,,---,0.00,VWS V14.01,2013-05-12 22:47:00,
2013-05-12 17:48:00,81.2,42.1,30.14,North,360,0.0,0.0,25,0.00,,---,0.00,VWS V14.01,2013-05-12 22:48:00,
2013-05-12 17:49:00,81.2,41.0,30.14,North,360,0.0,0.0,24,0.00,,---,0.00,VWS V14.01,2013-05-12 22:49:00,
2013-05-12 17:50:00,81.2,41.0,30.14,North,360,0.0,0.0,24,0.00,,---,0.00,VWS V14.01,2013-05-12 22:50:00,
2013-05-12 17:51:00,81.2,41.0,30.14,North,360,0.0,0.0,24,0.00,,---,0.00,VWS V14.01,2013-05-12 22:51:00,
2013-05-12 17:52:00,81.2,42.1,30.14,North,360,0.0,0.0,25,0.00,,---,0.00,VWS V14.01,2013-05-12 22:52:00,
2013-05-12 17:53:00,81.1,40.9,30.14,North,360,0.0,0.0,24,0.00,,---,0.00,VWS V14.01,2013-05-12 22:53:00,
2013-05-12 17:54:00,81.2,41.0,30.14,North,360,0.0,0.0,24,0.00,,---,0.00,VWS V14.01,2013-05-12 22:54:00,
2013-05-12 17:55:00,81.2,41.0,30.14,North,360,0.0,0.0,24,0.00,,---,0.00,VWS V14.01,2013-05-12 22:55:00,
2013-05-12 17:56:00,81.2,42.1,30.14,North,360,0.0,0.0,25,0.00,,---,0.00,VWS V14.01,2013-05-12 22:56:00,
2013-05-12 17:57:00,80.8,40.7,30.14,North,360,0.0,0.0,24,0.00,,---,0.00,VWS V14.01,2013-05-12 22:57:00,
2013-05-12 17:58:00,81.1,40.9,30.14,North,360,0.0,0.0,24,0.00,,---,0.00,VWS V14.01,2013-05-12 22:58:00,
2013-05-12 17:59:00,81.1,40.9,30.14,North,360,0.0,0.0,24,0.00,,---,0.00,VWS V14.01,2013-05-12 22:59:00,
2013-05-12 18:00:00,81.0,38.6,30.14,North,360,0.0,0.0,22,0.00,,---,0.00,VWS V14.01,2013-05-12 23:00:00,
2013-05-12 18:01:00,81.0,39.8,30.14,North,360,0.0,0.0,23,0.00,,---,0.00,VWS V14.01,2013-05-12 23:01:00,
2013-05-12 18:02:00,80.9,41.8,30.14,North,360,0.0,0.0,25,0.00,,---,0.00,VWS V14.01,2013-05-12 23:02:00,
2013-05-12 18:03:00,80.5,42.5,30.14,North,360,0.0,0.0,26,0.00,,---,0.00,VWS V14.01,2013-05-12 23:03:00,
2013-05-12 18:04:00,80.7,39.5,30.14,North,360,0.0,0.0,23,0.00,,---,0.00,VWS V14.01,2013-05-12 23:04:00,
2013-05-12 18:05:00,80.6,37.1,30.14,North,360,0.0,0.0,21,0.00,,---,0.00,VWS V14.01,2013-05-12 23:05:00,
2013-05-12 18:06:00,80.6,39.4,30.14,North,360,0.0,0.0,23,0.00,,---,0.00,VWS V14.01,2013-05-12 23:06:00,
2013-05-12 18:07:00,80.1,41.1,30.14,North,360,0.0,0.0,25,0.00,,---,0.00,VWS V14.01,2013-05-12 23:07:00,
2013-05-12 18:08:00,80.4,42.4,30.14,North,360,0.0,0.0,26,0.00,,---,0.00,VWS V14.01,2013-05-12 23:08:00,
2013-05-12 18:09:00,80.4,42.4,30.14,North,360,0.0,0.0,26,0.00,,---,0.00,VWS V14.01,2013-05-12 23:09:00,
2013-05-12 18:10:00,80.3,42.3,30.14,North,360,0.0,0.0,26,0.00,,---,0.00,VWS V14.01,2013-05-12 23:10:00,
2013-05-12 18:11:00,80.3,41.3,30.14,North,360,0.0,0.0,25,0.00,,---,0.00,VWS V14.01,2013-05-12 23:11:00,
2013-05-12 18:12:00,80.2,41.2,30.14,North,360,0.0,0.0,25,0.00,,---,0.00,VWS V14.01,2013-05-12 23:12:00,
2013-05-12 18:13:00,79.8,40.9,30.14,North,360,0.0,0.0,25,0.00,,---,0.00,VWS V14.01,2013-05-12 23:13:00,
2013-05-12 18:14:00,80.1,41.1,30.13,North,360,0.0,0.0,25,0.00,,---,0.00,VWS V14.01,2013-05-12 23:14:00,
2013-05-12 18:15:00,80.0,41.1,30.13,North,360,0.0,0.0,25,0.00,,---,0.00,VWS V14.01,2013-05-12 23:15:00,
2013-05-12 18:16:00,80.0,40.0,30.13,North,360,0.0,0.0,24,0.00,,---,0.00,VWS V14.01,2013-05-12 23:16:00,
2013-05-12 18:17:00,79.9,41.0,30.13,North,360,0.0,0.0,25,0.00,,---,0.00,VWS V14.01,2013-05-12 23:17:00,
2013-05-12 18:18:00,79.5,39.6,30.12,North,360,0.0,0.0,24,0.00,,---,0.00,VWS V14.01,2013-05-12 23:18:00,
2013-05-12 18:19:00,79.8,40.9,30.13,North,360,0.0,0.0,25,0.00,,---,0.00,VWS V14.01,2013-05-12 23:19:00,
2013-05-12 18:20:00,79.7,41.8,30.13,North,360,0.0,0.0,26,0.00,,---,0.00,VWS V14.01,2013-05-12 23:20:00,
2013-05-12 18:21:00,79.6,40.7,30.13,North,360,0.0,0.0,25,0.00,,---,0.00,VWS V14.01,2013-05-12 23:21:00,
2013-05-12 18:22:00,79.6,39.7,30.12,North,360,0.0,0.0,24,0.00,,---,0.00,VWS V14.01,2013-05-12 23:22:00,
2013-05-12 18:23:00,79.3,40.5,30.12,North,360,0.0,0.0,25,0.00,,---,0.00,VWS V14.01,2013-05-12 23:23:00,
2013-05-12 18:24:00,79.5,40.6,30.13,North,360,0.0,0.0,25,0.00,,---,0.00,VWS V14.01,2013-05-12 23:24:00,
2013-05-12 18:25:00,79.4,40.5,30.13,North,360,0.0,0.0,25,0.00,,---,0.00,VWS V14.01,2013-05-12 23:25:00,
2013-05-12 18:26:00,79.4,41.6,30.13,North,360,0.0,0.0,26,0.00,,---,0.00,VWS V14.01,2013-05-12 23:26:00,
2013-05-12 18:27:00,79.3,41.5,30.13,North,360,0.0,0.0,26,0.00,,---,0.00,VWS V14.01,2013-05-12 23:27:00,
2013-05-12 18:28:00,79.1,41.3,30.13,North,360,0.0,0.0,26,0.00,,---,0.00,VWS V14.01,2013-05-12 23:28:00,
2013-05-12 18:29:00,79.2,39.3,30.13,North,360,0.0,0.0,24,0.00,,---,0.00,VWS V14.01,2013-05-12 23:29:00,
2013-05-12 18:30:00,79.2,41.4,30.13,North,360,0.0,0.0,26,0.00,,---,0.00,VWS V14.01,2013-05-12 23:30:00,
2013-05-12 18:31:00,79.1,41.3,30.13,North,360,0.0,0.0,26,0.00,,---,0.00,VWS V14.01,2013-05-12 23:31:00,
2013-05-12 18:32:00,79.1,41.3,30.13,North,360,0.0,0.0,26,0.00,,---,0.00,VWS V14.01,2013-05-12 23:32:00,
2013-05-12 18:33:00,78.9,42.1,30.13,North,360,0.0,0.0,27,0.00,,---,0.00,VWS V14.01,2013-05-12 23:33:00,
2013-05-12 18:34:00,79.0,41.2,30.13,North,360,0.0,0.0,26,0.00,,---,0.00,VWS V14.01,2013-05-12 23:34:00,
2013-05-12 18:35:00,79.0,42.2,30.13,North,360,0.0,0.0,27,0.00,,---,0.00,VWS V14.01,2013-05-12 23:35:00,
2013-05-12 18:36:00,79.0,41.2,30.13,North,360,0.0,0.0,26,0.00,,---,0.00,VWS V14.01,2013-05-12 23:36:00,
2013-05-12 18:37:00,78.9,41.1,30.13,North,360,0.0,0.0,26,0.00,,---,0.00,VWS V14.01,2013-05-12 23:37:00,
2013-05-12 18:38:00,78.9,40.1,30.13,North,360,0.0,0.0,25,0.00,,---,0.00,VWS V14.01,2013-05-12 23:38:00,
2013-05-12 18:39:00,78.9,42.1,30.13,North,360,0.0,0.0,27,0.00,,---,0.00,VWS V14.01,2013-05-12 23:39:00,
2013-05-12 18:40:00,78.9,41.1,30.13,North,360,0.0,0.0,26,0.00,,---,0.00,VWS V14.01,2013-05-12 23:40:00,
2013-05-12 18:41:00,78.9,39.1,30.13,North,360,0.0,0.0,24,0.00,,---,0.00,VWS V14.01,2013-05-12 23:41:00,
2013-05-12 18:42:00,78.9,39.1,30.13,North,360,0.0,0.0,24,0.00,,---,0.00,VWS V14.01,2013-05-12 23:42:00,
2013-05-12 18:43:00,78.9,38.0,30.12,North,360,0.0,0.0,23,0.00,,---,0.00,VWS V14.01,2013-05-12 23:43:00,
2013-05-12 18:44:00,78.9,41.1,30.13,North,360,0.0,0.0,26,0.00,,---,0.00,VWS V14.01,2013-05-12 23:44:00,
2013-05-12 18:45:00,78.9,39.1,30.12,North,360,0.0,0.0,24,0.00,,---,0.00,VWS V14.01,2013-05-12 23:45:00,
2013-05-12 18:46:00,78.9,40.1,30.12,North,360,0.0,0.0,25,0.00,,---,0.00,VWS V14.01,2013-05-12 23:46:00,
2013-05-12 18:47:00,78.9,38.0,30.12,North,360,0.0,0.0,23,0.00,,---,0.00,VWS V14.01,2013-05-12 23:47:00,
2013-05-12 18:48:00,78.9,42.1,30.12,North,360,0.0,0.0,27,0.00,,---,0.00,VWS V14.01,2013-05-12 23:48:00,
2013-05-12 18:49:00,78.9,38.0,30.12,North,360,0.0,0.0,23,0.00,,---,0.00,VWS V14.01,2013-05-12 23:49:00,
2013-05-12 18:50:00,78.9,39.1,30.12,North,360,0.0,0.0,24,0.00,,---,0.00,VWS V14.01,2013-05-12 23:50:00,
2013-05-12 18:51:00,78.9,41.1,30.12,North,360,0.0,0.0,26,0.00,,---,0.00,VWS V14.01,2013-05-12 23:51:00,
2013-05-12 18:52:00,78.9,41.1,30.12,North,360,0.0,0.0,26,0.00,,---,0.00,VWS V14.01,2013-05-12 23:52:00,
2013-05-12 18:53:00,78.9,42.1,30.12,North,360,0.0,0.0,27,0.00,,---,0.00,VWS V14.01,2013-05-12 23:53:00,
2013-05-12 18:54:00,78.9,42.1,30.12,North,360,0.0,0.0,27,0.00,,---,0.00,VWS V14.01,2013-05-12 23:54:00,
2013-05-12 18:55:00,78.9,42.1,30.12,North,360,0.0,0.0,27,0.00,,---,0.00,VWS V14.01,2013-05-12 23:55:00,
2013-05-12 18:56:00,78.9,41.1,30.12,North,360,0.0,0.0,26,0.00,,---,0.00,VWS V14.01,2013-05-12 23:56:00,
2013-05-12 18:57:00,78.9,41.1,30.12,North,360,0.0,0.0,26,0.00,,---,0.00,VWS V14.01,2013-05-12 23:57:00,
2013-05-12 18:58:00,78.8,43.0,30.12,North,360,0.0,0.0,28,0.00,,---,0.00,VWS V14.01,2013-05-12 23:58:00,
2013-05-12 18:59:00,78.9,42.1,30.13,North,360,0.0,0.0,27,0.00,,---,0.00,VWS V14.01,2013-05-12 23:59:00,
2013-05-12 19:00:00,78.9,42.1,30.12,North,360,0.0,0.0,27,0.00,,---,0.00,VWS V14.01,2013-05-13 00:00:00,
2013-05-12 19:01:00,78.8,43.0,30.12,North,360,0.0,0.0,28,0.00,,---,0.00,VWS V14.01,2013-05-13 00:01:00,
2013-05-12 19:02:00,78.8,42.0,30.13,North,360,0.0,0.0,27,0.00,,---,0.00,VWS V14.01,2013-05-13 00:02:00,
2013-05-12 19:03:00,78.7,41.9,30.12,North,360,0.0,0.0,27,0.00,,---,0.00,VWS V14.01,2013-05-13 00:03:00,
2013-05-12 19:04:00,78.8,42.0,30.12,North,360,0.0,0.0,27,0.00,,---,0.00,VWS V14.01,2013-05-13 00:04:00,
2013-05-12 19:05:00,78.7,41.0,30.12,North,360,0.0,0.0,26,0.00,,---,0.00,VWS V14.01,2013-05-13 00:05:00,
2013-05-12 19:06:00,78.7,41.0,30.12,North,360,0.0,0.0,26,0.00,,---,0.00,VWS V14.01,2013-05-13 00:06:00,
2013-05-12 19:07:00,78.7,41.9,30.12,North,360,0.0,0.0,27,0.00,,---,0.00,VWS V14.01,2013-05-13 00:07:00,
2013-05-12 19:08:00,78.6,39.9,30.12,North,360,0.0,0.0,25,0.00,,---,0.00,VWS V14.01,2013-05-13 00:08:00,
2013-05-12 19:09:00,78.7,41.0,30.12,North,360,0.0,0.0,26,0.00,,---,0.00,VWS V14.01,2013-05-13 00:09:00,
2013-05-12 19:10:00,78.6,40.9,30.12,North,360,0.0,0.0,26,0.00,,---,0.00,VWS V14.01,2013-05-13 00:10:00,
2013-05-12 19:11:00,78.6,40.9,30.12,North,360,0.0,0.0,26,0.00,,---,0.00,VWS V14.01,2013-05-13 00:11:00,
2013-05-12 19:12:00,78.6,40.9,30.12,North,360,0.0,0.0,26,0.00,,---,0.00,VWS V14.01,2013-05-13 00:12:00,
2013-05-12 19:13:00,78.5,40.8,30.11,North,360,0.0,0.0,26,0.00,,---,0.00,VWS V14.01,2013-05-13 00:13:00,
2013-05-12 19:14:00,78.5,38.7,30.12,North,360,0.0,0.0,24,0.00,,---,0.00,VWS V14.01,2013-05-13 00:14:00,
2013-05-12 19:15:00,78.5,38.7,30.12,North,360,0.0,0.0,24,0.00,,---,0.00,VWS V14.01,2013-05-13 00:15:00,
2013-05-12 19:16:00,78.5,40.8,30.12,North,360,0.0,0.0,26,0.00,,---,0.00,VWS V14.01,2013-05-13 00:16:00,
2013-05-12 19:17:00,78.5,40.8,30.12,North,360,0.0,0.0,26,0.00,,---,0.00,VWS V14.01,2013-05-13 00:17:00,
2013-05-12 19:18:00,78.3,39.6,30.11,North,360,0.0,0.0,25,0.00,,---,0.00,VWS V14.01,2013-05-13 00:18:00,
2013-05-12 19:19:00,78.5,40.8,30.11,North,360,0.0,0.0,26,0.00,,---,0.00,VWS V14.01,2013-05-13 00:19:00,
2013-05-12 19:20:00,78.4,40.7,30.11,North,360,0.0,0.0,26,0.00,,---,0.00,VWS V14.01,2013-05-13 00:20:00,
2013-05-12 19:21:00,78.4,38.7,30.11,North,360,0.0,0.0,24,0.00,,---,0.00,VWS V14.01,2013-05-13 00:21:00,
2013-05-12 19:22:00,78.3,38.6,30.11,North,360,0.0,0.0,24,0.00,,---,0.00,VWS V14.01,2013-05-13 00:22:00,
2013-05-12 19:23:00,78.1,39.5,30.12,North,360,0.0,0.0,25,0.00,,---,0.00,VWS V14.01,2013-05-13 00:23:00,
2013-05-12 19:24:00,78.3,40.6,30.11,North,360,0.0,0.0,26,0.00,,---,0.00,VWS V14.01,2013-05-13 00:24:00,
2013-05-12 19:25:00,78.2,39.5,30.11,North,360,0.0,0.0,25,0.00,,---,0.00,VWS V14.01,2013-05-13 00:25:00,
2013-05-12 19:26:00,78.2,39.5,30.11,North,360,0.0,0.0,25,0.00,,---,0.00,VWS V14.01,2013-05-13 00:26:00,
2013-05-12 19:27:00,78.2,41.5,30.12,North,360,0.0,0.0,27,0.00,,---,0.00,VWS V14.01,2013-05-13 00:27:00,
2013-05-12 19:28:00,77.8,39.2,30.11,North,360,0.0,0.0,25,0.00,,---,0.00,VWS V14.01,2013-05-13 00:28:00,
2013-05-12 19:29:00,78.0,39.4,30.12,North,360,0.0,0.0,25,0.00,,---,0.00,VWS V14.01,2013-05-13 00:29:00,
2013-05-12 19:30:00,77.9,40.3,30.11,North,360,0.0,0.0,26,0.00,,---,0.00,VWS V14.01,2013-05-13 00:30:00,
2013-05-12 19:31:00,77.9,40.3,30.11,North,360,0.0,0.0,26,0.00,,---,0.00,VWS V14.01,2013-05-13 00:31:00,
2013-05-12 19:32:00,77.8,39.2,30.11,North,360,0.0,0.0,25,0.00,,---,0.00,VWS V14.01,2013-05-13 00:32:00,
2013-05-12 19:33:00,77.5,40.0,30.11,North,360,0.0,0.0,26,0.00,,---,0.00,VWS V14.01,2013-05-13 00:33:00,
2013-05-12 19:34:00,77.7,39.1,30.11,North,360,0.0,0.0,25,0.00,,---,0.00,VWS V14.01,2013-05-13 00:34:00,
2013-05-12 19:35:00,77.6,39.0,30.11,North,360,0.0,0.0,25,0.00,,---,0.00,VWS V14.01,2013-05-13 00:35:00,
2013-05-12 19:36:00,77.6,39.0,30.11,North,360,0.0,0.0,25,0.00,,---,0.00,VWS V14.01,2013-05-13 00:36:00,
2013-05-12 19:37:00,77.5,38.9,30.11,North,360,0.0,0.0,25,0.00,,---,0.00,VWS V14.01,2013-05-13 00:37:00,
2013-05-12 19:38:00,77.1,38.6,30.11,North,360,0.0,0.0,25,0.00,,---,0.00,VWS V14.01,2013-05-13 00:38:00,
2013-05-12 19:39:00,77.4,39.9,30.11,North,360,0.0,0.0,26,0.00,,---,0.00,VWS V14.01,2013-05-13 00:39:00,
2013-05-12 19:40:00,77.3,38.8,30.11,North,360,0.0,0.0,25,0.00,,---,0.00,VWS V14.01,2013-05-13 00:40:00,
2013-05-12 19:41:00,77.3,38.8,30.11,North,360,0.0,0.0,25,0.00,,---,0.00,VWS V14.01,2013-05-13 00:41:00,
2013-05-12 19:42:00,77.2,39.7,30.11,North,360,0.0,0.0,26,0.00,,---,0.00,VWS V14.01,2013-05-13 00:42:00,
2013-05-12 19:43:00,76.7,38.3,30.11,North,360,0.0,0.0,25,0.00,,---,0.00,VWS V14.01,2013-05-13 00:43:00,
2013-05-12 19:44:00,77.1,38.6,30.11,North,360,0.0,0.0,25,0.00,,---,0.00,VWS V14.01,2013-05-13 00:44:00,
2013-05-12 19:45:00,77.0,38.5,30.11,North,360,0.0,0.0,25,0.00,,---,0.00,VWS V14.01,2013-05-13 00:45:00,
2013-05-12 19:46:00,76.9,38.4,30.11,North,360,0.0,0.0,25,0.00,,---,0.00,VWS V14.01,2013-05-13 00:46:00,
2013-05-12 19:47:00,76.8,38.3,30.11,North,360,0.0,0.0,25,0.00,,---,0.00,VWS V14.01,2013-05-13 00:47:00,
2013-05-12 19:48:00,76.4,38.0,30.11,North,360,0.0,0.0,25,0.00,,---,0.00,VWS V14.01,2013-05-13 00:48:00,
2013-05-12 19:49:00,76.7,38.3,30.11,North,360,0.0,0.0,25,0.00,,---,0.00,VWS V14.01,2013-05-13 00:49:00,
2013-05-12 19:50:00,76.6,39.2,30.11,North,360,0.0,0.0,26,0.00,,---,0.00,VWS V14.01,2013-05-13 00:50:00,
2013-05-12 19:51:00,76.5,39.1,30.11,North,360,0.0,0.0,26,0.00,,---,0.00,VWS V14.01,2013-05-13 00:51:00,
2013-05-12 19:52:00,76.4,38.0,30.11,North,360,0.0,0.0,25,0.00,,---,0.00,VWS V14.01,2013-05-13 00:52:00,
2013-05-12 19:53:00,76.0,38.7,30.11,North,360,0.0,0.0,26,0.00,,---,0.00,VWS V14.01,2013-05-13 00:53:00,
2013-05-12 19:54:00,76.3,37.9,30.11,North,360,0.0,0.0,25,0.00,,---,0.00,VWS V14.01,2013-05-13 00:54:00,
2013-05-12 19:55:00,76.2,37.8,30.11,North,360,0.0,0.0,25,0.00,,---,0.00,VWS V14.01,2013-05-13 00:55:00,
2013-05-12 19:56:00,76.1,37.8,30.11,North,360,0.0,0.0,25,0.00,,---,0.00,VWS V14.01,2013-05-13 00:56:00,
2013-05-12 19:57:00,76.1,37.8,30.11,North,360,0.0,0.0,25,0.00,,---,0.00,VWS V14.01,2013-05-13 00:57:00,
2013-05-12 19:58:00,75.6,38.3,30.11,North,360,0.0,0.0,26,0.00,,---,0.00,VWS V14.01,2013-05-13 00:58:00,
2013-05-12 19:59:00,76.0,38.7,30.11,North,360,0.0,0.0,26,0.00,,---,0.00,VWS V14.01,2013-05-13 00:59:00,
2013-05-12 20:00:00,75.9,38.6,30.11,North,360,0.0,0.0,26,0.00,,---,0.00,VWS V14.01,2013-05-13 01:00:00,
2013-05-12 20:01:00,75.8,38.5,30.11,North,360,0.0,0.0,26,0.00,,---,0.00,VWS V14.01,2013-05-13 01:01:00,
2013-05-12 20:02:00,75.7,38.4,30.11,North,360,0.0,0.0,26,0.00,,---,0.00,VWS V14.01,2013-05-13 01:02:00,
2013-05-12 20:03:00,75.2,38.0,30.11,North,360,0.0,0.0,26,0.00,,---,0.00,VWS V14.01,2013-05-13 01:03:00,
2013-05-12 20:04:00,75.6,38.3,30.11,North,360,0.0,0.0,26,0.00,,---,0.00,VWS V14.01,2013-05-13 01:04:00,
2013-05-12 20:05:00,75.5,39.2,30.11,North,360,0.0,0.0,27,0.00,,---,0.00,VWS V14.01,2013-05-13 01:05:00,
2013-05-12 20:06:00,75.4,39.1,30.11,North,360,0.0,0.0,27,0.00,,---,0.00,VWS V14.01,2013-05-13 01:06:00,
2013-05-12 20:07:00,75.3,38.1,30.11,North,360,0.0,0.0,26,0.00,,---,0.00,VWS V14.01,2013-05-13 01:07:00,
2013-05-12 20:08:00,74.9,38.7,30.11,North,360,0.0,0.0,27,0.00,,---,0.00,VWS V14.01,2013-05-13 01:08:00,
2013-05-12 20:09:00,75.2,38.0,30.11,North,360,0.0,0.0,26,0.00,,---,0.00,VWS V14.01,2013-05-13 01:09:00,
2013-05-12 20:10:00,75.1,37.9,30.11,North,360,0.0,0.0,26,0.00,,---,0.00,VWS V14.01,2013-05-13 01:10:00,
2013-05-12 20:11:00,75.0,37.8,30.11,North,360,0.0,0.0,26,0.00,,---,0.00,VWS V14.01,2013-05-13 01:11:00,
2013-05-12 20:12:00,75.0,38.8,30.11,North,360,0.0,0.0,27,0.00,,---,0.00,VWS V14.01,2013-05-13 01:12:00,
2013-05-12 20:13:00,74.6,39.4,30.11,North,360,0.0,0.0,28,0.00,,---,0.00,VWS V14.01,2013-05-13 01:13:00,
2013-05-12 20:14:00,74.8,38.6,30.11,North,360,0.0,0.0,27,0.00,,---,0.00,VWS V14.01,2013-05-13 01:14:00,
2013-05-12 20:15:00,74.7,38.5,30.11,North,360,0.0,0.0,27,0.00,,---,0.00,VWS V14.01,2013-05-13 01:15:00,
2013-05-12 20:16:00,74.7,38.5,30.11,North,360,0.0,0.0,27,0.00,,---,0.00,VWS V14.01,2013-05-13 01:16:00,
2013-05-12 20:17:00,74.6,39.4,30.11,North,360,0.0,0.0,28,0.00,,---,0.00,VWS V14.01,2013-05-13 01:17:00,
2013-05-12 20:18:00,74.2,39.9,30.11,North,360,0.0,0.0,29,0.00,,---,0.00,VWS V14.01,2013-05-13 01:18:00,
2013-05-12 20:19:00,74.5,40.2,30.11,North,360,0.0,0.0,29,0.00,,---,0.00,VWS V14.01,2013-05-13 01:19:00,
2013-05-12 20:20:00,74.4,40.1,30.11,North,360,0.0,0.0,29,0.00,,---,0.00,VWS V14.01,2013-05-13 01:20:00,
2013-05-12 20:21:00,74.4,40.1,30.11,North,360,0.0,0.0,29,0.00,,---,0.00,VWS V14.01,2013-05-13 01:21:00,
2013-05-12 20:22:00,74.3,40.0,30.11,North,360,0.0,0.0,29,0.00,,---,0.00,VWS V14.01,2013-05-13 01:22:00,
2013-05-12 20:23:00,73.6,38.5,30.11,North,360,0.0,0.0,28,0.00,,---,0.00,VWS V14.01,2013-05-13 01:23:00,
2013-05-12 20:24:00,74.1,39.8,30.11,North,360,0.0,0.0,29,0.00,,---,0.00,VWS V14.01,2013-05-13 01:24:00,
2013-05-12 20:25:00,73.9,39.7,30.12,North,360,0.0,0.0,29,0.00,,---,0.00,VWS V14.01,2013-05-13 01:25:00,
2013-05-12 20:26:00,73.9,39.7,30.11,North,360,0.0,0.0,29,0.00,,---,0.00,VWS V14.01,2013-05-13 01:26:00,
2013-05-12 20:27:00,73.7,38.6,30.11,North,360,0.0,0.0,28,0.00,,---,0.00,VWS V14.01,2013-05-13 01:27:00,
2013-05-12 20:28:00,73.1,39.0,30.11,North,360,0.0,0.0,29,0.00,,---,0.00,VWS V14.01,2013-05-13 01:28:00,
2013-05-12 20:29:00,73.5,38.4,30.11,North,360,0.0,0.0,28,0.00,,---,0.00,VWS V14.01,2013-05-13 01:29:00,
2013-05-12 20:30:00,73.5,38.4,30.11,North,360,0.0,0.0,28,0.00,,---,0.00,VWS V14.01,2013-05-13 01:30:00,
2013-05-12 20:31:00,73.4,39.2,30.11,North,360,0.0,0.0,29,0.00,,---,0.00,VWS V14.01,2013-05-13 01:31:00,
2013-05-12 20:32:00,73.3,39.2,30.11,North,360,0.0,0.0,29,0.00,,---,0.00,VWS V14.01,2013-05-13 01:32:00,
2013-05-12 20:33:00,72.8,38.7,30.12,North,360,0.0,0.0,29,0.00,,---,0.00,VWS V14.01,2013-05-13 01:33:00,
2013-05-12 20:34:00,73.1,39.0,30.11,North,360,0.0,0.0,29,0.00,,---,0.00,VWS V14.01,2013-05-13 01:34:00,
2013-05-12 20:35:00,73.0,38.9,30.12,North,360,0.0,0.0,29,0.00,,---,0.00,VWS V14.01,2013-05-13 01:35:00,
2013-05-12 20:36:00,73.0,38.9,30.12,North,360,0.0,0.0,29,0.00,,---,0.00,VWS V14.01,2013-05-13 01:36:00,
2013-05-12 20:37:00,72.9,38.8,30.12,North,360,0.0,0.0,29,0.00,,---,0.00,VWS V14.01,2013-05-13 01:37:00,
2013-05-12 20:38:00,72.4,39.2,30.12,North,360,0.0,0.0,30,0.00,,---,0.00,VWS V14.01,2013-05-13 01:38:00,
2013-05-12 20:39:00,72.7,38.6,30.12,North,360,0.0,0.0,29,0.00,,---,0.00,VWS V14.01,2013-05-13 01:39:00,
2013-05-12 20:40:00,72.6,38.5,30.12,North,360,0.0,0.0,29,0.00,,---,0.00,VWS V14.01,2013-05-13 01:40:00,
2013-05-12 20:41:00,72.6,38.5,30.12,North,360,0.0,0.0,29,0.00,,---,0.00,VWS V14.01,2013-05-13 01:41:00,
2013-05-12 20:42:00,72.5,38.5,30.12,North,360,0.0,0.0,29,0.00,,---,0.00,VWS V14.01,2013-05-13 01:42:00,
2013-05-12 20:43:00,72.1,39.0,30.12,North,360,0.0,0.0,30,0.00,,---,0.00,VWS V14.01,2013-05-13 01:43:00,
2013-05-12 20:44:00,72.4,38.4,30.12,North,360,0.0,0.0,29,0.00,,---,0.00,VWS V14.01,2013-05-13 01:44:00,
2013-05-12 20:45:00,72.3,39.2,30.12,North,360,0.0,0.0,30,0.00,,---,0.00,VWS V14.01,2013-05-13 01:45:00,
2013-05-12 20:46:00,72.2,39.1,30.12,North,360,0.0,0.0,30,0.00,,---,0.00,VWS V14.01,2013-05-13 01:46:00,
2013-05-12 20:47:00,72.2,39.1,30.12,North,360,0.0,0.0,30,0.00,,---,0.00,VWS V14.01,2013-05-13 01:47:00,
2013-05-12 20:48:00,71.7,39.5,30.13,North,360,0.0,0.0,31,0.00,,---,0.00,VWS V14.01,2013-05-13 01:48:00,
2013-05-12 20:49:00,72.0,38.9,30.12,North,360,0.0,0.0,30,0.00,,---,0.00,VWS V14.01,2013-05-13 01:49:00,
2013-05-12 20:50:00,72.0,38.9,30.12,North,360,0.0,0.0,30,0.00,,---,0.00,VWS V14.01,2013-05-13 01:50:00,
2013-05-12 20:51:00,71.9,39.7,30.12,North,360,0.0,0.0,31,0.00,,---,0.00,VWS V14.01,2013-05-13 01:51:00,
2013-05-12 20:52:00,71.8,39.6,30.12,North,360,0.0,0.0,31,0.00,,---,0.00,VWS V14.01,2013-05-13 01:52:00,
2013-05-12 20:53:00,71.3,40.0,30.12,North,360,0.0,0.0,32,0.00,,---,0.00,VWS V14.01,2013-05-13 01:53:00,
2013-05-12 20:54:00,71.7,39.5,30.13,North,360,0.0,0.0,31,0.00,,---,0.00,VWS V14.01,2013-05-13 01:54:00,
2013-05-12 20:55:00,71.6,40.2,30.13,North,360,0.0,0.0,32,0.00,,---,0.00,VWS V14.01,2013-05-13 01:55:00,
2013-05-12 20:56:00,71.5,40.1,30.13,North,360,0.0,0.0,32,0.00,,---,0.00,VWS V14.01,2013-05-13 01:56:00,
2013-05-12 20:57:00,71.5,40.1,30.13,North,360,0.0,0.0,32,0.00,,---,0.00,VWS V14.01,2013-05-13 01:57:00,
2013-05-12 20:58:00,70.9,40.4,30.12,North,360,0.0,0.0,33,0.00,,---,0.00,VWS V14.01,2013-05-13 01:58:00,
2013-05-12 20:59:00,71.3,40.0,30.12,North,360,0.0,0.0,32,0.00,,---,0.00,VWS V14.01,2013-05-13 01:59:00,
2013-05-12 21:00:00,71.2,39.9,30.12,North,360,0.0,0.0,32,0.00,,---,0.00,VWS V14.01,2013-05-13 02:00:00,
2013-05-12 21:01:00,71.1,39.8,30.12,North,360,0.0,0.0,32,0.00,,---,0.00,VWS V14.01,2013-05-13 02:01:00,
2013-05-12 21:02:00,71.1,39.8,30.12,North,360,0.0,0.0,32,0.00,,---,0.00,VWS V14.01,2013-05-13 02:02:00,
2013-05-12 21:03:00,70.6,39.3,30.12,North,360,0.0,0.0,32,0.00,,---,0.00,VWS V14.01,2013-05-13 02:03:00,
2013-05-12 21:04:00,70.9,40.4,30.12,North,360,0.0,0.0,33,0.00,,---,0.00,VWS V14.01,2013-05-13 02:04:00,
2013-05-12 21:05:00,70.8,40.3,30.12,North,360,0.0,0.0,33,0.00,,---,0.00,VWS V14.01,2013-05-13 02:05:00,
2013-05-12 21:06:00,70.8,39.5,30.12,North,360,0.0,0.0,32,0.00,,---,0.00,VWS V14.01,2013-05-13 02:06:00,
2013-05-12 21:07:00,70.7,39.4,30.12,North,360,0.0,0.0,32,0.00,,---,0.00,VWS V14.01,2013-05-13 02:07:00,
2013-05-12 21:08:00,70.3,39.1,30.12,North,360,0.0,0.0,32,0.00,,---,0.00,VWS V14.01,2013-05-13 02:08:00,
2013-05-12 21:09:00,70.6,39.3,30.12,North,360,0.0,0.0,32,0.00,,---,0.00,VWS V14.01,2013-05-13 02:09:00,
2013-05-12 21:10:00,70.5,39.2,30.13,North,360,0.0,0.0,32,0.00,,---,0.00,VWS V14.01,2013-05-13 02:10:00,
2013-05-12 21:11:00,70.4,39.2,30.12,North,360,0.0,0.0,32,0.00,,---,0.00,VWS V14.01,2013-05-13 02:11:00,
2013-05-12 21:12:00,70.4,40.0,30.13,North,360,0.0,0.0,33,0.00,,---,0.00,VWS V14.01,2013-05-13 02:12:00,
2013-05-12 21:13:00,70.0,39.6,30.13,North,360,0.0,0.0,33,0.00,,---,0.00,VWS V14.01,2013-05-13 02:13:00,
2013-05-12 21:14:00,70.3,39.9,30.12,North,360,0.0,0.0,33,0.00,,---,0.00,VWS V14.01,2013-05-13 02:14:00,
2013-05-12 21:15:00,70.2,39.8,30.13,North,360,0.0,0.0,33,0.00,,---,0.00,VWS V14.01,2013-05-13 02:15:00,
2013-05-12 21:16:00,70.2,39.8,30.12,North,360,0.0,0.0,33,0.00,,---,0.00,VWS V14.01,2013-05-13 02:16:00,
2013-05-12 21:17:00,70.1,39.7,30.13,North,360,0.0,0.0,33,0.00,,---,0.00,VWS V14.01,2013-05-13 02:17:00,
2013-05-12 21:18:00,69.8,40.2,30.12,North,360,0.0,0.0,34,0.00,,---,0.00,VWS V14.01,2013-05-13 02:18:00,
2013-05-12 21:19:00,70.0,39.6,30.13,North,360,0.0,0.0,33,0.00,,---,0.00,VWS V14.01,2013-05-13 02:19:00,
2013-05-12 21:20:00,70.0,39.6,30.13,North,360,0.0,0.0,33,0.00,,---,0.00,VWS V14.01,2013-05-13 02:20:00,
2013-05-12 21:21:00,69.9,39.5,30.12,North,360,0.0,0.0,33,0.00,,---,0.00,VWS V14.01,2013-05-13 02:21:00,
2013-05-12 21:22:00,69.9,39.5,30.12,North,360,0.0,0.0,33,0.00,,---,0.00,VWS V14.01,2013-05-13 02:22:00,
2013-05-12 21:23:00,69.6,40.8,30.13,North,360,0.0,0.0,35,0.00,,---,0.00,VWS V14.01,2013-05-13 02:23:00,
2013-05-12 21:24:00,69.8,40.2,30.12,North,360,0.0,0.0,34,0.00,,---,0.00,VWS V14.01,2013-05-13 02:24:00,
2013-05-12 21:25:00,69.7,40.1,30.12,North,360,0.0,0.0,34,0.00,,---,0.00,VWS V14.01,2013-05-13 02:25:00,
2013-05-12 21:26:00,69.7,40.1,30.13,North,360,0.0,0.0,34,0.00,,---,0.00,VWS V14.01,2013-05-13 02:26:00,
2013-05-12 21:27:00,69.7,40.1,30.13,North,360,0.0,0.0,34,0.00,,---,0.00,VWS V14.01,2013-05-13 02:27:00,
2013-05-12 21:28:00,69.4,40.6,30.13,North,360,0.0,0.0,35,0.00,,---,0.00,VWS V14.01,2013-05-13 02:28:00,
2013-05-12 21:29:00,69.6,40.8,30.13,North,360,0.0,0.0,35,0.00,,---,0.00,VWS V14.01,2013-05-13 02:29:00,
2013-05-12 21:30:00,69.6,40.0,30.13,North,360,0.0,0.0,34,0.00,,---,0.00,VWS V14.01,2013-05-13 02:30:00,
2013-05-12 21:31:00,69.5,39.9,30.13,North,360,0.0,0.0,34,0.00,,---,0.00,VWS V14.01,2013-05-13 02:31:00,
2013-05-12 21:32:00,69.4,40.6,30.13,North,360,0.0,0.0,35,0.00,,---,0.00,VWS V14.01,2013-05-13 02:32:00,
2013-05-12 21:33:00,69.4,40.6,30.13,North,360,0.0,0.0,35,0.00,,---,0.00,VWS V14.01,2013-05-13 02:33:00,
2013-05-12 21:34:00,69.2,41.1,30.14,North,360,0.0,0.0,36,0.00,,---,0.00,VWS V14.01,2013-05-13 02:34:00,
2013-05-12 21:35:00,69.3,41.2,30.13,North,360,0.0,0.0,36,0.00,,---,0.00,VWS V14.01,2013-05-13 02:35:00,
2013-05-12 21:36:00,69.3,40.5,30.13,North,360,0.0,0.0,35,0.00,,---,0.00,VWS V14.01,2013-05-13 02:36:00,
2013-05-12 21:37:00,69.3,41.2,30.13,North,360,0.0,0.0,36,0.00,,---,0.00,VWS V14.01,2013-05-13 02:37:00,
2013-05-12 21:38:00,69.2,41.1,30.14,North,360,0.0,0.0,36,0.00,,---,0.00,VWS V14.01,2013-05-13 02:38:00,
2013-05-12 21:39:00,68.9,41.6,30.14,North,360,0.0,0.0,37,0.00,,---,0.00,VWS V14.01,2013-05-13 02:39:00,
2013-05-12 21:40:00,69.1,41.8,30.14,North,360,0.0,0.0,37,0.00,,---,0.00,VWS V14.01,2013-05-13 02:40:00,
2013-05-12 21:41:00,69.0,41.7,30.14,North,360,0.0,0.0,37,0.00,,---,0.00,VWS V14.01,2013-05-13 02:41:00,
2013-05-12 21:42:00,69.0,41.7,30.14,North,360,0.0,0.0,37,0.00,,---,0.00,VWS V14.01,2013-05-13 02:42:00,
2013-05-12 21:43:00,69.0,41.7,30.14,North,360,0.0,0.0,37,0.00,,---,0.00,VWS V14.01,2013-05-13 02:43:00,
2013-05-12 21:44:00,68.7,42.1,30.13,North,360,0.0,0.0,38,0.00,,---,0.00,VWS V14.01,2013-05-13 02:44:00,
2013-05-12 21:45:00,68.8,41.5,30.14,North,360,0.0,0.0,37,0.00,,---,0.00,VWS V14.01,2013-05-13 02:45:00,
2013-05-12 21:46:00,68.8,41.5,30.13,North,360,0.0,0.0,37,0.00,,---,0.00,VWS V14.01,2013-05-13 02:46:00,
2013-05-12 21:47:00,68.8,41.5,30.13,North,360,0.0,0.0,37,0.00,,---,0.00,VWS V14.01,2013-05-13 02:47:00,
2013-05-12 21:48:00,68.7,41.4,30.13,North,360,0.0,0.0,37,0.00,,---,0.00,VWS V14.01,2013-05-13 02:48:00,
2013-05-12 21:49:00,68.4,41.8,30.14,North,360,0.0,0.0,38,0.00,,---,0.00,VWS V14.01,2013-05-13 02:49:00,
2013-05-12 21:50:00,68.6,41.3,30.13,North,360,0.0,0.0,37,0.00,,---,0.00,VWS V14.01,2013-05-13 02:50:00,
2013-05-12 21:51:00,68.5,41.9,30.14,North,360,0.0,0.0,38,0.00,,---,0.00,VWS V14.01,2013-05-13 02:51:00,
2013-05-12 21:52:00,68.5,41.9,30.14,North,360,0.0,0.0,38,0.00,,---,0.00,VWS V14.01,2013-05-13 02:52:00,
2013-05-12 21:53:00,68.5,41.9,30.14,North,360,0.0,0.0,38,0.00,,---,0.00,VWS V14.01,2013-05-13 02:53:00,
2013-05-12 21:54:00,68.0,41.5,30.14,North,360,0.0,0.0,38,0.00,,---,0.00,VWS V14.01,2013-05-13 02:54:00,
2013-05-12 21:55:00,68.3,42.4,30.14,North,360,0.0,0.0,39,0.00,,---,0.00,VWS V14.01,2013-05-13 02:55:00,
2013-05-12 21:56:00,68.3,42.4,30.13,North,360,0.0,0.0,39,0.00,,---,0.00,VWS V14.01,2013-05-13 02:56:00,
2013-05-12 21:57:00,68.1,41.6,30.13,North,360,0.0,0.0,38,0.00,,---,0.00,VWS V14.01,2013-05-13 02:57:00,
2013-05-12 21:58:00,68.1,41.6,30.14,North,360,0.0,0.0,38,0.00,,---,0.00,VWS V14.01,2013-05-13 02:58:00,
2013-05-12 21:59:00,67.7,41.9,30.14,North,360,0.0,0.0,39,0.00,,---,0.00,VWS V14.01,2013-05-13 02:59:00,
2013-05-12 22:00:00,67.9,41.4,30.13,North,360,0.0,0.0,38,0.00,,---,0.00,VWS V14.01,2013-05-13 03:00:00,
2013-05-12 22:01:00,67.9,42.1,30.14,North,360,0.0,0.0,39,0.00,,---,0.00,VWS V14.01,2013-05-13 03:01:00,
2013-05-12 22:02:00,67.8,42.0,30.14,North,360,0.0,0.0,39,0.00,,---,0.00,VWS V14.01,2013-05-13 03:02:00,
2013-05-12 22:03:00,67.7,41.9,30.14,North,360,0.0,0.0,39,0.00,,---,0.00,VWS V14.01,2013-05-13 03:03:00,
2013-05-12 22:04:00,67.3,42.8,30.14,North,360,0.0,0.0,41,0.00,,---,0.00,VWS V14.01,2013-05-13 03:04:00,
2013-05-12 22:05:00,67.6,42.4,30.14,North,360,0.0,0.0,40,0.00,,---,0.00,VWS V14.01,2013-05-13 03:05:00,
2013-05-12 22:06:00,67.5,42.3,30.14,North,360,0.0,0.0,40,0.00,,---,0.00,VWS V14.01,2013-05-13 03:06:00,
2013-05-12 22:07:00,67.4,42.9,30.14,North,360,0.0,0.0,41,0.00,,---,0.00,VWS V14.01,2013-05-13 03:07:00,
2013-05-12 22:08:00,67.4,42.9,30.14,North,360,0.0,0.0,41,0.00,,---,0.00,VWS V14.01,2013-05-13 03:08:00,
2013-05-12 22:09:00,66.9,43.1,30.14,North,360,0.0,0.0,42,0.00,,---,0.00,VWS V14.01,2013-05-13 03:09:00,
2013-05-12 22:10:00,67.2,43.3,30.14,North,360,0.0,0.0,42,0.00,,---,0.00,VWS V14.01,2013-05-13 03:10:00,
2013-05-12 22:11:00,67.1,43.3,30.14,North,360,0.0,0.0,42,0.00,,---,0.00,VWS V14.01,2013-05-13 03:11:00,
2013-05-12 22:12:00,67.0,43.2,30.14,North,360,0.0,0.0,42,0.00,,---,0.00,VWS V14.01,2013-05-13 03:12:00,
2013-05-12 22:13:00,67.0,43.2,30.14,North,360,0.0,0.0,42,0.00,,---,0.00,VWS V14.01,2013-05-13 03:13:00,
2013-05-12 22:14:00,66.6,43.4,30.14,North,360,0.0,0.0,43,0.00,,---,0.00,VWS V14.01,2013-05-13 03:14:00,
2013-05-12 22:15:00,66.8,43.0,30.14,North,360,0.0,0.0,42,0.00,,---,0.00,VWS V14.01,2013-05-13 03:15:00,
2013-05-12 22:16:00,66.8,43.6,30.14,North,360,0.0,0.0,43,0.00,,---,0.00,VWS V14.01,2013-05-13 03:16:00,
2013-05-12 22:17:00,66.7,43.5,30.14,North,360,0.0,0.0,43,0.00,,---,0.00,VWS V14.01,2013-05-13 03:17:00,
2013-05-12 22:18:00,66.6,43.4,30.14,North,360,0.0,0.0,43,0.00,,---,0.00,VWS V14.01,2013-05-13 03:18:00,
2013-05-12 22:19:00,66.3,43.8,30.14,North,360,0.0,0.0,44,0.00,,---,0.00,VWS V14.01,2013-05-13 03:19:00,
2013-05-12 22:20:00,66.5,43.3,30.14,North,360,0.0,0.0,43,0.00,,---,0.00,VWS V14.01,2013-05-13 03:20:00,
2013-05-12 22:21:00,66.5,43.3,30.14,North,360,0.0,0.0,43,0.00,,---,0.00,VWS V14.01,2013-05-13 03:21:00,
2013-05-12 22:22:00,66.4,43.2,30.14,North,360,0.0,0.0,43,0.00,,---,0.00,VWS V14.01,2013-05-13 03:22:00,
2013-05-12 22:23:00,66.3,43.2,30.14,North,360,0.0,0.0,43,0.00,,---,0.00,VWS V14.01,2013-05-13 03:23:00,
2013-05-12 22:24:00,65.9,42.8,30.15,North,360,0.0,0.0,43,0.00,,---,0.00,VWS V14.01,2013-05-13 03:24:00,
2013-05-12 22:25:00,66.2,43.7,30.15,North,360,0.0,0.0,44,0.00,,---,0.00,VWS V14.01,2013-05-13 03:25:00,
2013-05-12 22:26:00,66.1,43.6,30.15,North,360,0.0,0.0,44,0.00,,---,0.00,VWS V14.01,2013-05-13 03:26:00,
2013-05-12 22:27:00,66.1,43.6,30.15,North,360,0.0,0.0,44,0.00,,---,0.00,VWS V14.01,2013-05-13 03:27:00,
2013-05-12 22:28:00,66.0,42.9,30.15,North,360,0.0,0.0,43,0.00,,---,0.00,VWS V14.01,2013-05-13 03:28:00,
2013-05-12 22:29:00,65.8,42.7,30.15,North,360,0.0,0.0,43,0.00,,---,0.00,VWS V14.01,2013-05-13 03:29:00,
2013-05-12 22:30:00,65.9,42.8,30.15,North,360,0.0,0.0,43,0.00,,---,0.00,VWS V14.01,2013-05-13 03:30:00,
2013-05-12 22:31:00,65.9,42.8,30.15,North,360,0.0,0.0,43,0.00,,---,0.00,VWS V14.01,2013-05-13 03:31:00,
2013-05-12 22:32:00,65.8,42.7,30.15,North,360,0.0,0.0,43,0.00,,---,0.00,VWS V14.01,2013-05-13 03:32:00,
2013-05-12 22:33:00,65.8,42.7,30.15,North,360,0.0,0.0,43,0.00,,---,0.00,VWS V14.01,2013-05-13 03:33:00,
2013-05-12 22:34:00,65.7,42.6,30.16,North,360,0.0,0.0,43,0.00,,---,0.00,VWS V14.01,2013-05-13 03:34:00,
2013-05-12 22:35:00,65.7,42.6,30.15,North,360,0.0,0.0,43,0.00,,---,0.00,VWS V14.01,2013-05-13 03:35:00,
2013-05-12 22:36:00,65.7,42.6,30.15,North,360,0.0,0.0,43,0.00,,---,0.00,VWS V14.01,2013-05-13 03:36:00,
2013-05-12 22:37:00,65.7,42.6,30.15,North,360,0.0,0.0,43,0.00,,---,0.00,VWS V14.01,2013-05-13 03:37:00,
2013-05-12 22:38:00,65.7,42.6,30.16,North,360,0.0,0.0,43,0.00,,---,0.00,VWS V14.01,2013-05-13 03:38:00,
2013-05-12 22:39:00,65.7,42.6,30.16,North,360,0.0,0.0,43,0.00,,---,0.00,VWS V14.01,2013-05-13 03:39:00,
2013-05-12 22:40:00,65.7,42.6,30.16,North,360,0.0,0.0,43,0.00,,---,0.00,VWS V14.01,2013-05-13 03:40:00,
2013-05-12 22:41:00,65.7,42.6,30.16,North,360,0.0,0.0,43,0.00,,---,0.00,VWS V14.01,2013-05-13 03:41:00,
2013-05-12 22:42:00,65.7,42.6,30.16,North,360,0.0,0.0,43,0.00,,---,0.00,VWS V14.01,2013-05-13 03:42:00,
2013-05-12 22:43:00,65.7,42.6,30.16,North,360,0.0,0.0,43,0.00,,---,0.00,VWS V14.01,2013-05-13 03:43:00,
2013-05-12 22:44:00,65.6,43.1,30.16,North,360,0.0,0.0,44,0.00,,---,0.00,VWS V14.01,2013-05-13 03:44:00,
2013-05-12 22:45:00,65.6,42.5,30.16,North,360,0.0,0.0,43,0.00,,---,0.00,VWS V14.01,2013-05-13 03:45:00,
2013-05-12 22:46:00,65.6,42.5,30.16,North,360,0.0,0.0,43,0.00,,---,0.00,VWS V14.01,2013-05-13 03:46:00,
2013-05-12 22:47:00,65.6,42.5,30.15,North,360,0.0,0.0,43,0.00,,---,0.00,VWS V14.01,2013-05-13 03:47:00,
2013-05-12 22:48:00,65.6,42.5,30.16,North,360,0.0,0.0,43,0.00,,---,0.00,VWS V14.01,2013-05-13 03:48:00,
2013-05-12 22:49:00,65.5,42.4,30.16,North,360,0.0,0.0,43,0.00,,---,0.00,VWS V14.01,2013-05-13 03:49:00,
2013-05-12 22:50:00,65.6,43.1,30.16,North,360,0.0,0.0,44,0.00,,---,0.00,VWS V14.01,2013-05-13 03:50:00,
2013-05-12 22:51:00,65.6,42.5,30.16,North,360,0.0,0.0,43,0.00,,---,0.00,VWS V14.01,2013-05-13 03:51:00,
2013-05-12 22:52:00,65.6,42.5,30.16,North,360,0.0,0.0,43,0.00,,---,0.00,VWS V14.01,2013-05-13 03:52:00,
2013-05-12 22:53:00,65.5,42.4,30.16,North,360,0.0,0.0,43,0.00,,---,0.00,VWS V14.01,2013-05-13 03:53:00,
2013-05-12 22:54:00,65.4,42.9,30.16,North,360,0.0,0.0,44,0.00,,---,0.00,VWS V14.01,2013-05-13 03:54:00,
2013-05-12 22:55:00,65.5,42.4,30.16,North,360,0.0,0.0,43,0.00,,---,0.00,VWS V14.01,2013-05-13 03:55:00,
2013-05-12 22:56:00,65.4,42.9,30.16,North,360,0.0,0.0,44,0.00,,---,0.00,VWS V14.01,2013-05-13 03:56:00,
2013-05-12 22:57:00,65.4,42.9,30.16,North,360,0.0,0.0,44,0.00,,---,0.00,VWS V14.01,2013-05-13 03:57:00,
2013-05-12 22:58:00,65.4,42.9,30.16,North,360,0.0,0.0,44,0.00,,---,0.00,VWS V14.01,2013-05-13 03:58:00,
2013-05-12 22:59:00,65.2,42.8,30.16,North,360,0.0,0.0,44,0.00,,---,0.00,VWS V14.01,2013-05-13 03:59:00,
2013-05-12 23:00:00,65.3,42.8,30.16,North,360,0.0,0.0,44,0.00,,---,0.00,VWS V14.01,2013-05-13 04:00:00,
2013-05-12 23:01:00,65.2,42.8,30.16,North,360,0.0,0.0,44,0.00,,---,0.00,VWS V14.01,2013-05-13 04:01:00,
2013-05-12 23:02:00,65.3,42.8,30.16,North,360,0.0,0.0,44,0.00,,---,0.00,VWS V14.01,2013-05-13 04:02:00,
2013-05-12 23:03:00,65.3,42.8,30.16,North,360,0.0,0.0,44,0.00,,---,0.00,VWS V14.01,2013-05-13 04:03:00,
2013-05-12 23:04:00,65.2,42.8,30.16,North,360,0.0,0.0,44,0.00,,---,0.00,VWS V14.01,2013-05-13 04:04:00,
2013-05-12 23:05:00,65.2,42.8,30.16,North,360,0.0,0.0,44,0.00,,---,0.00,VWS V14.01,2013-05-13 04:05:00,
2013-05-12 23:06:00,65.0,42.6,30.16,North,360,0.0,0.0,44,0.00,,---,0.00,VWS V14.01,2013-05-13 04:06:00,
2013-05-12 23:07:00,65.1,43.3,30.16,North,360,0.0,0.0,45,0.00,,---,0.00,VWS V14.01,2013-05-13 04:07:00,
2013-05-12 23:08:00,65.1,42.7,30.16,North,360,0.0,0.0,44,0.00,,---,0.00,VWS V14.01,2013-05-13 04:08:00,
2013-05-12 23:09:00,65.1,42.7,30.16,North,360,0.0,0.0,44,0.00,,---,0.00,VWS V14.01,2013-05-13 04:09:00,
2013-05-12 23:10:00,65.1,42.7,30.16,North,360,0.0,0.0,44,0.00,,---,0.00,VWS V14.01,2013-05-13 04:10:00,
2013-05-12 23:11:00,64.9,43.1,30.16,North,360,0.0,0.0,45,0.00,,---,0.00,VWS V14.01,2013-05-13 04:11:00,
2013-05-12 23:12:00,65.0,42.6,30.16,North,360,0.0,0.0,44,0.00,,---,0.00,VWS V14.01,2013-05-13 04:12:00,
2013-05-12 23:13:00,65.0,43.2,30.16,North,360,0.0,0.0,45,0.00,,---,0.00,VWS V14.01,2013-05-13 04:13:00,
2013-05-12 23:14:00,64.9,43.1,30.16,North,360,0.0,0.0,45,0.00,,---,0.00,VWS V14.01,2013-05-13 04:14:00,
2013-05-12 23:15:00,64.9,43.1,30.16,North,360,0.0,0.0,45,0.00,,---,0.00,VWS V14.01,2013-05-13 04:15:00,
2013-05-12 23:16:00,64.6,43.4,30.16,North,360,0.0,0.0,46,0.00,,---,0.00,VWS V14.01,2013-05-13 04:16:00,
2013-05-12 23:17:00,64.8,43.0,30.16,North,360,0.0,0.0,45,0.00,,---,0.00,VWS V14.01,2013-05-13 04:17:00,
2013-05-12 23:18:00,64.8,43.0,30.16,North,360,0.0,0.0,45,0.00,,---,0.00,VWS V14.01,2013-05-13 04:18:00,
2013-05-12 23:19:00,64.8,43.0,30.16,North,360,0.0,0.0,45,0.00,,---,0.00,VWS V14.01,2013-05-13 04:19:00,
2013-05-12 23:20:00,64.7,42.9,30.16,North,360,0.0,0.0,45,0.00,,---,0.00,VWS V14.01,2013-05-13 04:20:00,
2013-05-12 23:21:00,64.3,43.1,30.16,North,360,0.0,0.0,46,0.00,,---,0.00,VWS V14.01,2013-05-13 04:21:00,
2013-05-12 23:22:00,64.6,43.4,30.16,North,360,0.0,0.0,46,0.00,,---,0.00,VWS V14.01,2013-05-13 04:22:00,
2013-05-12 23:23:00,64.5,43.3,30.16,North,360,0.0,0.0,46,0.00,,---,0.00,VWS V14.01,2013-05-13 04:23:00,
2013-05-12 23:24:00,64.5,42.7,30.16,North,360,0.0,0.0,45,0.00,,---,0.00,VWS V14.01,2013-05-13 04:24:00,
2013-05-12 23:25:00,64.4,43.2,30.16,North,360,0.0,0.0,46,0.00,,---,0.00,VWS V14.01,2013-05-13 04:25:00,
2013-05-12 23:26:00,64.1,42.9,30.16,North,360,0.0,0.0,46,0.00,,---,0.00,VWS V14.01,2013-05-13 04:26:00,
2013-05-12 23:27:00,64.3,43.1,30.16,North,360,0.0,0.0,46,0.00,,---,0.00,VWS V14.01,2013-05-13 04:27:00,
2013-05-12 23:28:00,64.3,43.7,30.16,North,360,0.0,0.0,47,0.00,,---,0.00,VWS V14.01,2013-05-13 04:28:00,
2013-05-12 23:29:00,64.2,43.0,30.16,North,360,0.0,0.0,46,0.00,,---,0.00,VWS V14.01,2013-05-13 04:29:00,
2013-05-12 23:30:00,64.1,42.9,30.16,North,360,0.0,0.0,46,0.00,,---,0.00,VWS V14.01,2013-05-13 04:30:00,
2013-05-12 23:31:00,63.8,43.2,30.16,North,360,0.0,0.0,47,0.00,,---,0.00,VWS V14.01,2013-05-13 04:31:00,
2013-05-12 23:32:00,64.0,42.8,30.16,North,360,0.0,0.0,46,0.00,,---,0.00,VWS V14.01,2013-05-13 04:32:00,
2013-05-12 23:33:00,64.0,43.4,30.16,North,360,0.0,0.0,47,0.00,,---,0.00,VWS V14.01,2013-05-13 04:33:00,
2013-05-12 23:34:00,64.0,43.4,30.16,North,360,0.0,0.0,47,0.00,,---,0.00,VWS V14.01,2013-05-13 04:34:00,
2013-05-12 23:35:00,63.9,43.3,30.15,North,360,0.0,0.0,47,0.00,,---,0.00,VWS V14.01,2013-05-13 04:35:00,
2013-05-12 23:36:00,63.6,43.0,30.16,North,360,0.0,0.0,47,0.00,,---,0.00,VWS V14.01,2013-05-13 04:36:00,
2013-05-12 23:37:00,63.8,43.2,30.16,North,360,0.0,0.0,47,0.00,,---,0.00,VWS V14.01,2013-05-13 04:37:00,
2013-05-12 23:38:00,63.7,43.1,30.16,North,360,0.0,0.0,47,0.00,,---,0.00,VWS V14.01,2013-05-13 04:38:00,
2013-05-12 23:39:00,63.7,43.1,30.16,North,360,0.0,0.0,47,0.00,,---,0.00,VWS V14.01,2013-05-13 04:39:00,
2013-05-12 23:40:00,63.6,43.0,30.16,North,360,0.0,0.0,47,0.00,,---,0.00,VWS V14.01,2013-05-13 04:40:00,
2013-05-12 23:41:00,63.4,43.4,30.16,North,360,0.0,0.0,48,0.00,,---,0.00,VWS V14.01,2013-05-13 04:41:00,
2013-05-12 23:42:00,63.5,42.9,30.16,North,360,0.0,0.0,47,0.00,,---,0.00,VWS V14.01,2013-05-13 04:42:00,
2013-05-12 23:43:00,63.5,42.9,30.16,North,360,0.0,0.0,47,0.00,,---,0.00,VWS V14.01,2013-05-13 04:43:00,
2013-05-12 23:44:00,63.5,42.9,30.16,North,360,0.0,0.0,47,0.00,,---,0.00,VWS V14.01,2013-05-13 04:44:00,
2013-05-12 23:45:00,63.4,42.8,30.16,North,360,0.0,0.0,47,0.00,,---,0.00,VWS V14.01,2013-05-13 04:45:00,
2013-05-12 23:46:00,63.2,43.2,30.16,North,360,0.0,0.0,48,0.00,,---,0.00,VWS V14.01,2013-05-13 04:46:00,
2013-05-12 23:47:00,63.4,43.4,30.16,North,360,0.0,0.0,48,0.00,,---,0.00,VWS V14.01,2013-05-13 04:47:00,
2013-05-12 23:48:00,63.3,43.3,30.16,North,360,0.0,0.0,48,0.00,,---,0.00,VWS V14.01,2013-05-13 04:48:00,
2013-05-12 23:49:00,63.3,43.3,30.16,North,360,0.0,0.0,48,0.00,,---,0.00,VWS V14.01,2013-05-13 04:49:00,
2013-05-12 23:50:00,63.3,43.3,30.16,North,360,0.0,0.0,48,0.00,,---,0.00,VWS V14.01,2013-05-13 04:50:00,
2013-05-12 23:51:00,63.1,44.2,30.16,North,360,0.0,0.0,50,0.00,,---,0.00,VWS V14.01,2013-05-13 04:51:00,
2013-05-12 23:52:00,63.2,43.7,30.16,North,360,0.0,0.0,49,0.00,,---,0.00,VWS V14.01,2013-05-13 04:52:00,
2013-05-12 23:53:00,63.2,43.7,30.16,North,360,0.0,0.0,49,0.00,,---,0.00,VWS V14.01,2013-05-13 04:53:00,
2013-05-12 23:54:00,63.2,43.7,30.16,North,360,0.0,0.0,49,0.00,,---,0.00,VWS V14.01,2013-05-13 04:54:00,
2013-05-12 23:55:00,63.2,44.3,30.16,North,360,0.0,0.0,50,0.00,,---,0.00,VWS V14.01,2013-05-13 04:55:00,
2013-05-12 23:56:00,62.9,44.0,30.16,North,360,0.0,0.0,50,0.00,,---,0.00,VWS V14.01,2013-05-13 04:56:00,
2013-05-12 23:57:00,63.1,44.2,30.16,North,360,0.0,0.0,50,0.00,,---,0.00,VWS V14.01,2013-05-13 04:57:00,
2013-05-12 23:58:00,63.1,44.2,30.16,North,360,0.0,0.0,50,0.00,,---,0.00,VWS V14.01,2013-05-13 04:58:00,
2013-05-12 23:59:00,63.1,44.2,30.16,North,360,0.0,0.0,50,0.00,,---,0.00,VWS V14.01,2013-05-13 04:59:00,